<?xml version="1.0" encoding="UTF-8" standalone="no" ?>
<gpx xmlns="http://www.topografix.com/GPX/1/1" xmlns:xsi="http://www.w3.org/2001/XMLSchema-instance" xsi:schemaLocation="http://www.topografix.com/GPX/1/1 http://www.topografix.com/GPX/1/1/gpx.xsd" version="1.1" creator="VisuGPX - https://www.visugpx.com">
  <metadata>
    <name>Allons au marché de Revel en VTT !</name>
    <desc><![CDATA[Sortie du samedi matin (départ 7:00) car très forte chaleur !!!]]></desc>
  </metadata>
  <trk>
    <name><![CDATA[Allons au marché de Revel en VTT !_1]]></name>
    <trkseg>
      <trkpt lat="43.4913" lon="1.51567">
        <ele>209.4</ele>
        <time>2015-07-18T05:07:17Z</time>
      </trkpt>
      <trkpt lat="43.4913" lon="1.51567">
        <ele>209.4</ele>
        <time>2015-07-18T05:07:22Z</time>
      </trkpt>
      <trkpt lat="43.4913" lon="1.51567">
        <ele>209.4</ele>
        <time>2015-07-18T05:07:28Z</time>
      </trkpt>
      <trkpt lat="43.4913" lon="1.51567">
        <ele>209.4</ele>
        <time>2015-07-18T05:07:37Z</time>
      </trkpt>
      <trkpt lat="43.49137" lon="1.51566">
        <ele>208.6</ele>
        <time>2015-07-18T05:07:42Z</time>
      </trkpt>
      <trkpt lat="43.49137" lon="1.51566">
        <ele>208.6</ele>
        <time>2015-07-18T05:07:47Z</time>
      </trkpt>
      <trkpt lat="43.49137" lon="1.51566">
        <ele>208.6</ele>
        <time>2015-07-18T05:07:54Z</time>
      </trkpt>
      <trkpt lat="43.49137" lon="1.51566">
        <ele>208.6</ele>
        <time>2015-07-18T05:07:59Z</time>
      </trkpt>
      <trkpt lat="43.49137" lon="1.51566">
        <ele>208.6</ele>
        <time>2015-07-18T05:08:05Z</time>
      </trkpt>
      <trkpt lat="43.49137" lon="1.51566">
        <ele>208.6</ele>
        <time>2015-07-18T05:08:11Z</time>
      </trkpt>
      <trkpt lat="43.49129" lon="1.51568">
        <ele>207.5</ele>
        <time>2015-07-18T05:08:17Z</time>
      </trkpt>
      <trkpt lat="43.49125" lon="1.51576">
        <ele>207.9</ele>
        <time>2015-07-18T05:08:22Z</time>
      </trkpt>
      <trkpt lat="43.49125" lon="1.51583">
        <ele>208.2</ele>
        <time>2015-07-18T05:08:28Z</time>
      </trkpt>
      <trkpt lat="43.49126" lon="1.51595">
        <ele>208.8</ele>
        <time>2015-07-18T05:08:33Z</time>
      </trkpt>
      <trkpt lat="43.49118" lon="1.5161">
        <ele>209.7</ele>
        <time>2015-07-18T05:08:38Z</time>
      </trkpt>
      <trkpt lat="43.49108" lon="1.51624">
        <ele>210.9</ele>
        <time>2015-07-18T05:08:44Z</time>
      </trkpt>
      <trkpt lat="43.49096" lon="1.51646">
        <ele>212.2</ele>
        <time>2015-07-18T05:08:50Z</time>
      </trkpt>
      <trkpt lat="43.49086" lon="1.51663">
        <ele>213.5</ele>
        <time>2015-07-18T05:08:56Z</time>
      </trkpt>
      <trkpt lat="43.49092" lon="1.51683">
        <ele>214.5</ele>
        <time>2015-07-18T05:09:01Z</time>
      </trkpt>
      <trkpt lat="43.49104" lon="1.51702">
        <ele>215.1</ele>
        <time>2015-07-18T05:09:07Z</time>
      </trkpt>
      <trkpt lat="43.49104" lon="1.51703">
        <ele>217.3</ele>
        <time>2015-07-18T05:09:13Z</time>
      </trkpt>
      <trkpt lat="43.49104" lon="1.51703">
        <ele>217.3</ele>
        <time>2015-07-18T05:09:18Z</time>
      </trkpt>
      <trkpt lat="43.49109" lon="1.51703">
        <ele>216</ele>
        <time>2015-07-18T05:09:24Z</time>
      </trkpt>
      <trkpt lat="43.49122" lon="1.51723">
        <ele>216.6</ele>
        <time>2015-07-18T05:09:29Z</time>
      </trkpt>
      <trkpt lat="43.49136" lon="1.51749">
        <ele>215.8</ele>
        <time>2015-07-18T05:09:35Z</time>
      </trkpt>
      <trkpt lat="43.49157" lon="1.51786">
        <ele>213.5</ele>
        <time>2015-07-18T05:09:40Z</time>
      </trkpt>
      <trkpt lat="43.49186" lon="1.5182">
        <ele>211.1</ele>
        <time>2015-07-18T05:09:46Z</time>
      </trkpt>
      <trkpt lat="43.49226" lon="1.51857">
        <ele>207.3</ele>
        <time>2015-07-18T05:09:52Z</time>
      </trkpt>
      <trkpt lat="43.49252" lon="1.51901">
        <ele>202.8</ele>
        <time>2015-07-18T05:09:57Z</time>
      </trkpt>
      <trkpt lat="43.49288" lon="1.51949">
        <ele>196</ele>
        <time>2015-07-18T05:10:03Z</time>
      </trkpt>
      <trkpt lat="43.49325" lon="1.51974">
        <ele>190.8</ele>
        <time>2015-07-18T05:10:08Z</time>
      </trkpt>
      <trkpt lat="43.49352" lon="1.51996">
        <ele>187.6</ele>
        <time>2015-07-18T05:10:21Z</time>
      </trkpt>
      <trkpt lat="43.49425" lon="1.52096">
        <ele>176.7</ele>
        <time>2015-07-18T05:10:27Z</time>
      </trkpt>
      <trkpt lat="43.49426" lon="1.5212">
        <ele>175.9</ele>
        <time>2015-07-18T05:10:32Z</time>
      </trkpt>
      <trkpt lat="43.49411" lon="1.52141">
        <ele>175.3</ele>
        <time>2015-07-18T05:10:37Z</time>
      </trkpt>
      <trkpt lat="43.49413" lon="1.52167">
        <ele>174.8</ele>
        <time>2015-07-18T05:10:43Z</time>
      </trkpt>
      <trkpt lat="43.49423" lon="1.52209">
        <ele>173.5</ele>
        <time>2015-07-18T05:10:48Z</time>
      </trkpt>
      <trkpt lat="43.49427" lon="1.52248">
        <ele>172.4</ele>
        <time>2015-07-18T05:10:53Z</time>
      </trkpt>
      <trkpt lat="43.49425" lon="1.52277">
        <ele>171.4</ele>
        <time>2015-07-18T05:10:59Z</time>
      </trkpt>
      <trkpt lat="43.49417" lon="1.52319">
        <ele>170.5</ele>
        <time>2015-07-18T05:11:04Z</time>
      </trkpt>
      <trkpt lat="43.4941" lon="1.52355">
        <ele>170.2</ele>
        <time>2015-07-18T05:11:09Z</time>
      </trkpt>
      <trkpt lat="43.49403" lon="1.52402">
        <ele>169.1</ele>
        <time>2015-07-18T05:11:15Z</time>
      </trkpt>
      <trkpt lat="43.49396" lon="1.52445">
        <ele>168.1</ele>
        <time>2015-07-18T05:11:21Z</time>
      </trkpt>
      <trkpt lat="43.49388" lon="1.52481">
        <ele>167</ele>
        <time>2015-07-18T05:11:26Z</time>
      </trkpt>
      <trkpt lat="43.49376" lon="1.52523">
        <ele>166.1</ele>
        <time>2015-07-18T05:11:32Z</time>
      </trkpt>
      <trkpt lat="43.49367" lon="1.52559">
        <ele>165.7</ele>
        <time>2015-07-18T05:11:37Z</time>
      </trkpt>
      <trkpt lat="43.4936" lon="1.52604">
        <ele>164.9</ele>
        <time>2015-07-18T05:11:43Z</time>
      </trkpt>
      <trkpt lat="43.49359" lon="1.52651">
        <ele>164.2</ele>
        <time>2015-07-18T05:11:49Z</time>
      </trkpt>
      <trkpt lat="43.49371" lon="1.52733">
        <ele>162.7</ele>
        <time>2015-07-18T05:12:00Z</time>
      </trkpt>
      <trkpt lat="43.49385" lon="1.52773">
        <ele>162.7</ele>
        <time>2015-07-18T05:12:08Z</time>
      </trkpt>
      <trkpt lat="43.49403" lon="1.52826">
        <ele>163.2</ele>
        <time>2015-07-18T05:12:14Z</time>
      </trkpt>
      <trkpt lat="43.49413" lon="1.52852">
        <ele>162.8</ele>
        <time>2015-07-18T05:12:19Z</time>
      </trkpt>
      <trkpt lat="43.49424" lon="1.52888">
        <ele>161.6</ele>
        <time>2015-07-18T05:12:24Z</time>
      </trkpt>
      <trkpt lat="43.49428" lon="1.5294">
        <ele>161.9</ele>
        <time>2015-07-18T05:12:30Z</time>
      </trkpt>
      <trkpt lat="43.49421" lon="1.52977">
        <ele>160.5</ele>
        <time>2015-07-18T05:12:35Z</time>
      </trkpt>
      <trkpt lat="43.49408" lon="1.53018">
        <ele>160.4</ele>
        <time>2015-07-18T05:12:40Z</time>
      </trkpt>
      <trkpt lat="43.49402" lon="1.53039">
        <ele>160.5</ele>
        <time>2015-07-18T05:12:46Z</time>
      </trkpt>
      <trkpt lat="43.4939" lon="1.53088">
        <ele>160.4</ele>
        <time>2015-07-18T05:12:51Z</time>
      </trkpt>
      <trkpt lat="43.49383" lon="1.53131">
        <ele>160.1</ele>
        <time>2015-07-18T05:12:56Z</time>
      </trkpt>
      <trkpt lat="43.49394" lon="1.53179">
        <ele>159.6</ele>
        <time>2015-07-18T05:13:04Z</time>
      </trkpt>
      <trkpt lat="43.49411" lon="1.53211">
        <ele>158.9</ele>
        <time>2015-07-18T05:13:09Z</time>
      </trkpt>
      <trkpt lat="43.49431" lon="1.53244">
        <ele>158.8</ele>
        <time>2015-07-18T05:13:15Z</time>
      </trkpt>
      <trkpt lat="43.4945" lon="1.53271">
        <ele>158.7</ele>
        <time>2015-07-18T05:13:21Z</time>
      </trkpt>
      <trkpt lat="43.49475" lon="1.533">
        <ele>159.1</ele>
        <time>2015-07-18T05:13:26Z</time>
      </trkpt>
      <trkpt lat="43.4949" lon="1.5332">
        <ele>159</ele>
        <time>2015-07-18T05:13:40Z</time>
      </trkpt>
      <trkpt lat="43.49536" lon="1.53419">
        <ele>158.4</ele>
        <time>2015-07-18T05:13:46Z</time>
      </trkpt>
      <trkpt lat="43.4955" lon="1.53457">
        <ele>159.1</ele>
        <time>2015-07-18T05:13:52Z</time>
      </trkpt>
      <trkpt lat="43.49563" lon="1.53487">
        <ele>159.8</ele>
        <time>2015-07-18T05:13:57Z</time>
      </trkpt>
      <trkpt lat="43.4958" lon="1.5352">
        <ele>159.6</ele>
        <time>2015-07-18T05:14:03Z</time>
      </trkpt>
      <trkpt lat="43.49594" lon="1.53547">
        <ele>160.8</ele>
        <time>2015-07-18T05:14:09Z</time>
      </trkpt>
      <trkpt lat="43.49599" lon="1.53563">
        <ele>161</ele>
        <time>2015-07-18T05:14:14Z</time>
      </trkpt>
      <trkpt lat="43.4959" lon="1.53586">
        <ele>160.3</ele>
        <time>2015-07-18T05:14:20Z</time>
      </trkpt>
      <trkpt lat="43.49554" lon="1.53599">
        <ele>161.5</ele>
        <time>2015-07-18T05:14:26Z</time>
      </trkpt>
      <trkpt lat="43.49527" lon="1.53609">
        <ele>162.3</ele>
        <time>2015-07-18T05:14:31Z</time>
      </trkpt>
      <trkpt lat="43.49502" lon="1.53617">
        <ele>163.5</ele>
        <time>2015-07-18T05:14:36Z</time>
      </trkpt>
      <trkpt lat="43.49479" lon="1.53625">
        <ele>165</ele>
        <time>2015-07-18T05:14:41Z</time>
      </trkpt>
      <trkpt lat="43.49454" lon="1.53632">
        <ele>166.1</ele>
        <time>2015-07-18T05:14:47Z</time>
      </trkpt>
      <trkpt lat="43.49432" lon="1.53636">
        <ele>166</ele>
        <time>2015-07-18T05:14:52Z</time>
      </trkpt>
      <trkpt lat="43.49406" lon="1.53644">
        <ele>166.6</ele>
        <time>2015-07-18T05:14:58Z</time>
      </trkpt>
      <trkpt lat="43.49376" lon="1.53652">
        <ele>166.7</ele>
        <time>2015-07-18T05:15:04Z</time>
      </trkpt>
      <trkpt lat="43.4934" lon="1.53658">
        <ele>164.9</ele>
        <time>2015-07-18T05:15:10Z</time>
      </trkpt>
      <trkpt lat="43.49318" lon="1.53658">
        <ele>165.4</ele>
        <time>2015-07-18T05:15:15Z</time>
      </trkpt>
      <trkpt lat="43.49285" lon="1.5366">
        <ele>166.9</ele>
        <time>2015-07-18T05:15:21Z</time>
      </trkpt>
      <trkpt lat="43.49255" lon="1.53661">
        <ele>167.2</ele>
        <time>2015-07-18T05:15:26Z</time>
      </trkpt>
      <trkpt lat="43.4923" lon="1.53661">
        <ele>166.9</ele>
        <time>2015-07-18T05:15:31Z</time>
      </trkpt>
      <trkpt lat="43.49201" lon="1.53657">
        <ele>168.1</ele>
        <time>2015-07-18T05:15:37Z</time>
      </trkpt>
      <trkpt lat="43.49177" lon="1.53654">
        <ele>168.7</ele>
        <time>2015-07-18T05:15:43Z</time>
      </trkpt>
      <trkpt lat="43.49139" lon="1.53648">
        <ele>167.1</ele>
        <time>2015-07-18T05:15:49Z</time>
      </trkpt>
      <trkpt lat="43.4911" lon="1.53638">
        <ele>166.9</ele>
        <time>2015-07-18T05:15:54Z</time>
      </trkpt>
      <trkpt lat="43.49077" lon="1.53625">
        <ele>166.8</ele>
        <time>2015-07-18T05:16:00Z</time>
      </trkpt>
      <trkpt lat="43.49042" lon="1.53619">
        <ele>166.9</ele>
        <time>2015-07-18T05:16:05Z</time>
      </trkpt>
      <trkpt lat="43.49014" lon="1.53626">
        <ele>167.5</ele>
        <time>2015-07-18T05:16:11Z</time>
      </trkpt>
      <trkpt lat="43.48986" lon="1.53647">
        <ele>168.8</ele>
        <time>2015-07-18T05:16:16Z</time>
      </trkpt>
      <trkpt lat="43.48967" lon="1.53682">
        <ele>167.9</ele>
        <time>2015-07-18T05:16:23Z</time>
      </trkpt>
      <trkpt lat="43.48958" lon="1.53722">
        <ele>167.2</ele>
        <time>2015-07-18T05:16:29Z</time>
      </trkpt>
      <trkpt lat="43.48956" lon="1.53748">
        <ele>168.7</ele>
        <time>2015-07-18T05:16:36Z</time>
      </trkpt>
      <trkpt lat="43.48969" lon="1.53808">
        <ele>169.9</ele>
        <time>2015-07-18T05:16:42Z</time>
      </trkpt>
      <trkpt lat="43.4898" lon="1.53849">
        <ele>170.8</ele>
        <time>2015-07-18T05:16:47Z</time>
      </trkpt>
      <trkpt lat="43.48983" lon="1.53886">
        <ele>171.2</ele>
        <time>2015-07-18T05:16:54Z</time>
      </trkpt>
      <trkpt lat="43.48984" lon="1.53917">
        <ele>171.6</ele>
        <time>2015-07-18T05:17:00Z</time>
      </trkpt>
      <trkpt lat="43.48982" lon="1.53979">
        <ele>172</ele>
        <time>2015-07-18T05:17:06Z</time>
      </trkpt>
      <trkpt lat="43.48979" lon="1.54011">
        <ele>172</ele>
        <time>2015-07-18T05:17:11Z</time>
      </trkpt>
      <trkpt lat="43.48974" lon="1.54058">
        <ele>172.1</ele>
        <time>2015-07-18T05:17:18Z</time>
      </trkpt>
      <trkpt lat="43.48971" lon="1.54102">
        <ele>172.7</ele>
        <time>2015-07-18T05:17:24Z</time>
      </trkpt>
      <trkpt lat="43.48965" lon="1.54145">
        <ele>173.7</ele>
        <time>2015-07-18T05:17:29Z</time>
      </trkpt>
      <trkpt lat="43.48951" lon="1.54191">
        <ele>175.2</ele>
        <time>2015-07-18T05:17:38Z</time>
      </trkpt>
      <trkpt lat="43.48933" lon="1.54238">
        <ele>178</ele>
        <time>2015-07-18T05:17:43Z</time>
      </trkpt>
      <trkpt lat="43.48916" lon="1.54272">
        <ele>181.3</ele>
        <time>2015-07-18T05:17:49Z</time>
      </trkpt>
      <trkpt lat="43.48875" lon="1.54344">
        <ele>180.6</ele>
        <time>2015-07-18T05:18:00Z</time>
      </trkpt>
      <trkpt lat="43.48849" lon="1.5438">
        <ele>179.5</ele>
        <time>2015-07-18T05:18:06Z</time>
      </trkpt>
      <trkpt lat="43.48835" lon="1.54398">
        <ele>179.3</ele>
        <time>2015-07-18T05:18:13Z</time>
      </trkpt>
      <trkpt lat="43.48799" lon="1.54448">
        <ele>179.1</ele>
        <time>2015-07-18T05:18:20Z</time>
      </trkpt>
      <trkpt lat="43.48783" lon="1.54476">
        <ele>177.6</ele>
        <time>2015-07-18T05:18:25Z</time>
      </trkpt>
      <trkpt lat="43.48763" lon="1.54507">
        <ele>175.5</ele>
        <time>2015-07-18T05:18:31Z</time>
      </trkpt>
      <trkpt lat="43.4874" lon="1.54542">
        <ele>174.1</ele>
        <time>2015-07-18T05:18:37Z</time>
      </trkpt>
      <trkpt lat="43.48714" lon="1.54573">
        <ele>175.2</ele>
        <time>2015-07-18T05:18:43Z</time>
      </trkpt>
      <trkpt lat="43.48693" lon="1.54596">
        <ele>178.2</ele>
        <time>2015-07-18T05:18:48Z</time>
      </trkpt>
      <trkpt lat="43.48672" lon="1.5461">
        <ele>180.6</ele>
        <time>2015-07-18T05:18:53Z</time>
      </trkpt>
      <trkpt lat="43.48652" lon="1.54618">
        <ele>182.5</ele>
        <time>2015-07-18T05:19:00Z</time>
      </trkpt>
      <trkpt lat="43.48626" lon="1.54628">
        <ele>183.7</ele>
        <time>2015-07-18T05:19:05Z</time>
      </trkpt>
      <trkpt lat="43.48597" lon="1.54635">
        <ele>184.2</ele>
        <time>2015-07-18T05:19:11Z</time>
      </trkpt>
      <trkpt lat="43.48576" lon="1.54637">
        <ele>184.1</ele>
        <time>2015-07-18T05:19:18Z</time>
      </trkpt>
      <trkpt lat="43.48524" lon="1.54643">
        <ele>184</ele>
        <time>2015-07-18T05:19:24Z</time>
      </trkpt>
      <trkpt lat="43.48422" lon="1.54685">
        <ele>183.8</ele>
        <time>2015-07-18T05:19:45Z</time>
      </trkpt>
      <trkpt lat="43.48395" lon="1.54685">
        <ele>182.3</ele>
        <time>2015-07-18T05:19:51Z</time>
      </trkpt>
      <trkpt lat="43.48365" lon="1.54678">
        <ele>181.5</ele>
        <time>2015-07-18T05:19:57Z</time>
      </trkpt>
      <trkpt lat="43.48334" lon="1.54669">
        <ele>179.8</ele>
        <time>2015-07-18T05:20:04Z</time>
      </trkpt>
      <trkpt lat="43.48301" lon="1.54669">
        <ele>178.5</ele>
        <time>2015-07-18T05:20:09Z</time>
      </trkpt>
      <trkpt lat="43.48268" lon="1.54691">
        <ele>178.4</ele>
        <time>2015-07-18T05:20:15Z</time>
      </trkpt>
      <trkpt lat="43.4824" lon="1.54721">
        <ele>179.5</ele>
        <time>2015-07-18T05:20:22Z</time>
      </trkpt>
      <trkpt lat="43.48218" lon="1.54749">
        <ele>181.2</ele>
        <time>2015-07-18T05:20:27Z</time>
      </trkpt>
      <trkpt lat="43.48195" lon="1.54771">
        <ele>184.1</ele>
        <time>2015-07-18T05:20:33Z</time>
      </trkpt>
      <trkpt lat="43.48177" lon="1.54783">
        <ele>186.6</ele>
        <time>2015-07-18T05:20:38Z</time>
      </trkpt>
      <trkpt lat="43.48159" lon="1.54794">
        <ele>188.1</ele>
        <time>2015-07-18T05:20:43Z</time>
      </trkpt>
      <trkpt lat="43.48125" lon="1.54806">
        <ele>190.9</ele>
        <time>2015-07-18T05:20:49Z</time>
      </trkpt>
      <trkpt lat="43.48074" lon="1.54848">
        <ele>191.9</ele>
        <time>2015-07-18T05:20:55Z</time>
      </trkpt>
      <trkpt lat="43.48062" lon="1.54872">
        <ele>192.6</ele>
        <time>2015-07-18T05:21:00Z</time>
      </trkpt>
      <trkpt lat="43.48059" lon="1.54904">
        <ele>194.1</ele>
        <time>2015-07-18T05:21:05Z</time>
      </trkpt>
      <trkpt lat="43.48053" lon="1.54938">
        <ele>195.8</ele>
        <time>2015-07-18T05:21:11Z</time>
      </trkpt>
      <trkpt lat="43.48044" lon="1.54968">
        <ele>197.9</ele>
        <time>2015-07-18T05:21:16Z</time>
      </trkpt>
      <trkpt lat="43.48034" lon="1.55001">
        <ele>198</ele>
        <time>2015-07-18T05:21:21Z</time>
      </trkpt>
      <trkpt lat="43.48017" lon="1.55031">
        <ele>198.8</ele>
        <time>2015-07-18T05:21:27Z</time>
      </trkpt>
      <trkpt lat="43.47995" lon="1.55054">
        <ele>200.4</ele>
        <time>2015-07-18T05:21:34Z</time>
      </trkpt>
      <trkpt lat="43.47968" lon="1.55078">
        <ele>204.4</ele>
        <time>2015-07-18T05:21:40Z</time>
      </trkpt>
      <trkpt lat="43.47943" lon="1.55097">
        <ele>206.7</ele>
        <time>2015-07-18T05:21:46Z</time>
      </trkpt>
      <trkpt lat="43.47918" lon="1.55114">
        <ele>205.2</ele>
        <time>2015-07-18T05:21:51Z</time>
      </trkpt>
      <trkpt lat="43.47887" lon="1.5514">
        <ele>201.7</ele>
        <time>2015-07-18T05:21:56Z</time>
      </trkpt>
      <trkpt lat="43.47859" lon="1.55169">
        <ele>200.5</ele>
        <time>2015-07-18T05:22:01Z</time>
      </trkpt>
      <trkpt lat="43.47842" lon="1.55195">
        <ele>199.6</ele>
        <time>2015-07-18T05:22:06Z</time>
      </trkpt>
      <trkpt lat="43.4782" lon="1.5522">
        <ele>199.4</ele>
        <time>2015-07-18T05:22:11Z</time>
      </trkpt>
      <trkpt lat="43.47792" lon="1.55251">
        <ele>198.2</ele>
        <time>2015-07-18T05:22:17Z</time>
      </trkpt>
      <trkpt lat="43.47768" lon="1.55272">
        <ele>196.6</ele>
        <time>2015-07-18T05:22:23Z</time>
      </trkpt>
      <trkpt lat="43.47753" lon="1.55287">
        <ele>193.2</ele>
        <time>2015-07-18T05:22:29Z</time>
      </trkpt>
      <trkpt lat="43.47731" lon="1.55311">
        <ele>185.8</ele>
        <time>2015-07-18T05:22:34Z</time>
      </trkpt>
      <trkpt lat="43.47706" lon="1.55337">
        <ele>181</ele>
        <time>2015-07-18T05:22:39Z</time>
      </trkpt>
      <trkpt lat="43.4768" lon="1.55363">
        <ele>178.5</ele>
        <time>2015-07-18T05:22:45Z</time>
      </trkpt>
      <trkpt lat="43.47673" lon="1.55371">
        <ele>177.7</ele>
        <time>2015-07-18T05:22:53Z</time>
      </trkpt>
      <trkpt lat="43.47639" lon="1.55408">
        <ele>177.2</ele>
        <time>2015-07-18T05:22:58Z</time>
      </trkpt>
      <trkpt lat="43.4762" lon="1.55423">
        <ele>177.9</ele>
        <time>2015-07-18T05:23:04Z</time>
      </trkpt>
      <trkpt lat="43.47605" lon="1.55438">
        <ele>177.8</ele>
        <time>2015-07-18T05:23:09Z</time>
      </trkpt>
      <trkpt lat="43.47579" lon="1.5546">
        <ele>177.4</ele>
        <time>2015-07-18T05:23:14Z</time>
      </trkpt>
      <trkpt lat="43.47555" lon="1.55485">
        <ele>177.4</ele>
        <time>2015-07-18T05:23:20Z</time>
      </trkpt>
      <trkpt lat="43.47529" lon="1.55511">
        <ele>177.6</ele>
        <time>2015-07-18T05:23:25Z</time>
      </trkpt>
      <trkpt lat="43.47388" lon="1.55635">
        <ele>175.9</ele>
        <time>2015-07-18T05:23:56Z</time>
      </trkpt>
      <trkpt lat="43.47367" lon="1.55644">
        <ele>175.8</ele>
        <time>2015-07-18T05:24:02Z</time>
      </trkpt>
      <trkpt lat="43.47246" lon="1.557">
        <ele>174.2</ele>
        <time>2015-07-18T05:24:26Z</time>
      </trkpt>
      <trkpt lat="43.47215" lon="1.55713">
        <ele>174.2</ele>
        <time>2015-07-18T05:24:31Z</time>
      </trkpt>
      <trkpt lat="43.47185" lon="1.55721">
        <ele>175.6</ele>
        <time>2015-07-18T05:24:38Z</time>
      </trkpt>
      <trkpt lat="43.47147" lon="1.55732">
        <ele>176.3</ele>
        <time>2015-07-18T05:24:44Z</time>
      </trkpt>
      <trkpt lat="43.47107" lon="1.55742">
        <ele>177</ele>
        <time>2015-07-18T05:24:49Z</time>
      </trkpt>
      <trkpt lat="43.47075" lon="1.55751">
        <ele>177</ele>
        <time>2015-07-18T05:24:54Z</time>
      </trkpt>
      <trkpt lat="43.47045" lon="1.55759">
        <ele>175.5</ele>
        <time>2015-07-18T05:24:59Z</time>
      </trkpt>
      <trkpt lat="43.47018" lon="1.55771">
        <ele>175.5</ele>
        <time>2015-07-18T05:25:05Z</time>
      </trkpt>
      <trkpt lat="43.4699" lon="1.55794">
        <ele>176.1</ele>
        <time>2015-07-18T05:25:10Z</time>
      </trkpt>
      <trkpt lat="43.46965" lon="1.55825">
        <ele>178.1</ele>
        <time>2015-07-18T05:25:16Z</time>
      </trkpt>
      <trkpt lat="43.46949" lon="1.55854">
        <ele>178.4</ele>
        <time>2015-07-18T05:25:22Z</time>
      </trkpt>
      <trkpt lat="43.46928" lon="1.5589">
        <ele>178.9</ele>
        <time>2015-07-18T05:25:27Z</time>
      </trkpt>
      <trkpt lat="43.46913" lon="1.55921">
        <ele>178.7</ele>
        <time>2015-07-18T05:25:33Z</time>
      </trkpt>
      <trkpt lat="43.46899" lon="1.55953">
        <ele>177.8</ele>
        <time>2015-07-18T05:25:39Z</time>
      </trkpt>
      <trkpt lat="43.46877" lon="1.55997">
        <ele>177.3</ele>
        <time>2015-07-18T05:25:46Z</time>
      </trkpt>
      <trkpt lat="43.46861" lon="1.56028">
        <ele>178.8</ele>
        <time>2015-07-18T05:25:51Z</time>
      </trkpt>
      <trkpt lat="43.46846" lon="1.56057">
        <ele>179.9</ele>
        <time>2015-07-18T05:25:57Z</time>
      </trkpt>
      <trkpt lat="43.46825" lon="1.56097">
        <ele>182.3</ele>
        <time>2015-07-18T05:26:02Z</time>
      </trkpt>
      <trkpt lat="43.46811" lon="1.56127">
        <ele>183.3</ele>
        <time>2015-07-18T05:26:08Z</time>
      </trkpt>
      <trkpt lat="43.46795" lon="1.56164">
        <ele>182.3</ele>
        <time>2015-07-18T05:26:15Z</time>
      </trkpt>
      <trkpt lat="43.46782" lon="1.56189">
        <ele>182.3</ele>
        <time>2015-07-18T05:26:20Z</time>
      </trkpt>
      <trkpt lat="43.46766" lon="1.56225">
        <ele>182.4</ele>
        <time>2015-07-18T05:26:26Z</time>
      </trkpt>
      <trkpt lat="43.46749" lon="1.56263">
        <ele>181.8</ele>
        <time>2015-07-18T05:26:31Z</time>
      </trkpt>
      <trkpt lat="43.46741" lon="1.5628">
        <ele>181.5</ele>
        <time>2015-07-18T05:26:43Z</time>
      </trkpt>
      <trkpt lat="43.46702" lon="1.56377">
        <ele>180.4</ele>
        <time>2015-07-18T05:26:49Z</time>
      </trkpt>
      <trkpt lat="43.46688" lon="1.56417">
        <ele>180.4</ele>
        <time>2015-07-18T05:26:55Z</time>
      </trkpt>
      <trkpt lat="43.46675" lon="1.56459">
        <ele>180.2</ele>
        <time>2015-07-18T05:27:00Z</time>
      </trkpt>
      <trkpt lat="43.46642" lon="1.56543">
        <ele>179.6</ele>
        <time>2015-07-18T05:27:14Z</time>
      </trkpt>
      <trkpt lat="43.46628" lon="1.56593">
        <ele>179.3</ele>
        <time>2015-07-18T05:27:20Z</time>
      </trkpt>
      <trkpt lat="43.46611" lon="1.56639">
        <ele>180.1</ele>
        <time>2015-07-18T05:27:26Z</time>
      </trkpt>
      <trkpt lat="43.46599" lon="1.56665">
        <ele>179.8</ele>
        <time>2015-07-18T05:27:31Z</time>
      </trkpt>
      <trkpt lat="43.46587" lon="1.5669">
        <ele>179.4</ele>
        <time>2015-07-18T05:27:37Z</time>
      </trkpt>
      <trkpt lat="43.46573" lon="1.56718">
        <ele>180.2</ele>
        <time>2015-07-18T05:27:44Z</time>
      </trkpt>
      <trkpt lat="43.46545" lon="1.56777">
        <ele>182.9</ele>
        <time>2015-07-18T05:27:50Z</time>
      </trkpt>
      <trkpt lat="43.46531" lon="1.56806">
        <ele>184</ele>
        <time>2015-07-18T05:27:55Z</time>
      </trkpt>
      <trkpt lat="43.46517" lon="1.56838">
        <ele>186.1</ele>
        <time>2015-07-18T05:28:00Z</time>
      </trkpt>
      <trkpt lat="43.465" lon="1.56869">
        <ele>187.1</ele>
        <time>2015-07-18T05:28:06Z</time>
      </trkpt>
      <trkpt lat="43.46479" lon="1.56899">
        <ele>186</ele>
        <time>2015-07-18T05:28:11Z</time>
      </trkpt>
      <trkpt lat="43.46464" lon="1.56924">
        <ele>185.9</ele>
        <time>2015-07-18T05:28:16Z</time>
      </trkpt>
      <trkpt lat="43.46456" lon="1.56942">
        <ele>185.2</ele>
        <time>2015-07-18T05:28:23Z</time>
      </trkpt>
      <trkpt lat="43.46446" lon="1.56955">
        <ele>183.9</ele>
        <time>2015-07-18T05:28:28Z</time>
      </trkpt>
      <trkpt lat="43.46435" lon="1.5697">
        <ele>179.3</ele>
        <time>2015-07-18T05:28:36Z</time>
      </trkpt>
      <trkpt lat="43.46402" lon="1.57005">
        <ele>172.2</ele>
        <time>2015-07-18T05:28:43Z</time>
      </trkpt>
      <trkpt lat="43.46371" lon="1.57036">
        <ele>170.3</ele>
        <time>2015-07-18T05:28:48Z</time>
      </trkpt>
      <trkpt lat="43.46349" lon="1.57054">
        <ele>170.6</ele>
        <time>2015-07-18T05:28:53Z</time>
      </trkpt>
      <trkpt lat="43.46315" lon="1.57075">
        <ele>170.1</ele>
        <time>2015-07-18T05:29:00Z</time>
      </trkpt>
      <trkpt lat="43.463" lon="1.5708">
        <ele>169.4</ele>
        <time>2015-07-18T05:29:06Z</time>
      </trkpt>
      <trkpt lat="43.46292" lon="1.57087">
        <ele>169.1</ele>
        <time>2015-07-18T05:29:11Z</time>
      </trkpt>
      <trkpt lat="43.46277" lon="1.571">
        <ele>168.2</ele>
        <time>2015-07-18T05:29:16Z</time>
      </trkpt>
      <trkpt lat="43.46256" lon="1.57117">
        <ele>167.2</ele>
        <time>2015-07-18T05:29:23Z</time>
      </trkpt>
      <trkpt lat="43.46224" lon="1.57149">
        <ele>166.1</ele>
        <time>2015-07-18T05:29:31Z</time>
      </trkpt>
      <trkpt lat="43.46215" lon="1.57159">
        <ele>167</ele>
        <time>2015-07-18T05:29:36Z</time>
      </trkpt>
      <trkpt lat="43.46208" lon="1.57168">
        <ele>168.7</ele>
        <time>2015-07-18T05:29:42Z</time>
      </trkpt>
      <trkpt lat="43.46191" lon="1.5719">
        <ele>170.4</ele>
        <time>2015-07-18T05:29:47Z</time>
      </trkpt>
      <trkpt lat="43.46176" lon="1.57213">
        <ele>172.4</ele>
        <time>2015-07-18T05:29:53Z</time>
      </trkpt>
      <trkpt lat="43.46158" lon="1.57238">
        <ele>174.1</ele>
        <time>2015-07-18T05:30:00Z</time>
      </trkpt>
      <trkpt lat="43.46133" lon="1.57273">
        <ele>176.2</ele>
        <time>2015-07-18T05:30:06Z</time>
      </trkpt>
      <trkpt lat="43.46121" lon="1.57294">
        <ele>177.5</ele>
        <time>2015-07-18T05:30:13Z</time>
      </trkpt>
      <trkpt lat="43.4605" lon="1.57417">
        <ele>182.7</ele>
        <time>2015-07-18T05:30:32Z</time>
      </trkpt>
      <trkpt lat="43.46036" lon="1.57443">
        <ele>183.5</ele>
        <time>2015-07-18T05:30:38Z</time>
      </trkpt>
      <trkpt lat="43.46019" lon="1.57482">
        <ele>185.6</ele>
        <time>2015-07-18T05:30:44Z</time>
      </trkpt>
      <trkpt lat="43.4601" lon="1.575">
        <ele>186.7</ele>
        <time>2015-07-18T05:31:00Z</time>
      </trkpt>
      <trkpt lat="43.45941" lon="1.57627">
        <ele>192</ele>
        <time>2015-07-18T05:31:06Z</time>
      </trkpt>
      <trkpt lat="43.4592" lon="1.57668">
        <ele>192</ele>
        <time>2015-07-18T05:31:13Z</time>
      </trkpt>
      <trkpt lat="43.45902" lon="1.57707">
        <ele>191.4</ele>
        <time>2015-07-18T05:31:20Z</time>
      </trkpt>
      <trkpt lat="43.45864" lon="1.57807">
        <ele>187.8</ele>
        <time>2015-07-18T05:31:35Z</time>
      </trkpt>
      <trkpt lat="43.45853" lon="1.57839">
        <ele>187.1</ele>
        <time>2015-07-18T05:31:42Z</time>
      </trkpt>
      <trkpt lat="43.45833" lon="1.57894">
        <ele>184.6</ele>
        <time>2015-07-18T05:31:58Z</time>
      </trkpt>
      <trkpt lat="43.4579" lon="1.58">
        <ele>176.8</ele>
        <time>2015-07-18T05:32:04Z</time>
      </trkpt>
      <trkpt lat="43.45767" lon="1.58039">
        <ele>175.3</ele>
        <time>2015-07-18T05:32:09Z</time>
      </trkpt>
      <trkpt lat="43.45751" lon="1.58072">
        <ele>176</ele>
        <time>2015-07-18T05:32:15Z</time>
      </trkpt>
      <trkpt lat="43.45738" lon="1.58091">
        <ele>176.8</ele>
        <time>2015-07-18T05:32:21Z</time>
      </trkpt>
      <trkpt lat="43.45709" lon="1.58123">
        <ele>176.5</ele>
        <time>2015-07-18T05:32:26Z</time>
      </trkpt>
      <trkpt lat="43.45689" lon="1.58152">
        <ele>177.2</ele>
        <time>2015-07-18T05:32:31Z</time>
      </trkpt>
      <trkpt lat="43.45668" lon="1.58191">
        <ele>177.6</ele>
        <time>2015-07-18T05:32:38Z</time>
      </trkpt>
      <trkpt lat="43.45643" lon="1.58225">
        <ele>178.8</ele>
        <time>2015-07-18T05:32:44Z</time>
      </trkpt>
      <trkpt lat="43.45628" lon="1.5825">
        <ele>178</ele>
        <time>2015-07-18T05:32:49Z</time>
      </trkpt>
      <trkpt lat="43.45604" lon="1.58291">
        <ele>178.5</ele>
        <time>2015-07-18T05:32:55Z</time>
      </trkpt>
      <trkpt lat="43.45591" lon="1.58322">
        <ele>178.9</ele>
        <time>2015-07-18T05:33:00Z</time>
      </trkpt>
      <trkpt lat="43.45579" lon="1.58362">
        <ele>176.9</ele>
        <time>2015-07-18T05:33:07Z</time>
      </trkpt>
      <trkpt lat="43.45572" lon="1.58419">
        <ele>177.6</ele>
        <time>2015-07-18T05:33:18Z</time>
      </trkpt>
      <trkpt lat="43.45568" lon="1.58498">
        <ele>179.9</ele>
        <time>2015-07-18T05:33:24Z</time>
      </trkpt>
      <trkpt lat="43.4557" lon="1.58534">
        <ele>181.3</ele>
        <time>2015-07-18T05:33:30Z</time>
      </trkpt>
      <trkpt lat="43.45573" lon="1.58562">
        <ele>183.6</ele>
        <time>2015-07-18T05:33:35Z</time>
      </trkpt>
      <trkpt lat="43.4558" lon="1.58608">
        <ele>186.2</ele>
        <time>2015-07-18T05:33:40Z</time>
      </trkpt>
      <trkpt lat="43.45583" lon="1.58647">
        <ele>185.7</ele>
        <time>2015-07-18T05:33:46Z</time>
      </trkpt>
      <trkpt lat="43.45588" lon="1.58683">
        <ele>186.3</ele>
        <time>2015-07-18T05:33:51Z</time>
      </trkpt>
      <trkpt lat="43.4559" lon="1.58725">
        <ele>187</ele>
        <time>2015-07-18T05:33:57Z</time>
      </trkpt>
      <trkpt lat="43.45591" lon="1.58757">
        <ele>187.6</ele>
        <time>2015-07-18T05:34:02Z</time>
      </trkpt>
      <trkpt lat="43.45593" lon="1.588">
        <ele>189.1</ele>
        <time>2015-07-18T05:34:07Z</time>
      </trkpt>
      <trkpt lat="43.45586" lon="1.58845">
        <ele>188.2</ele>
        <time>2015-07-18T05:34:12Z</time>
      </trkpt>
      <trkpt lat="43.45582" lon="1.5888">
        <ele>186.4</ele>
        <time>2015-07-18T05:34:18Z</time>
      </trkpt>
      <trkpt lat="43.45578" lon="1.5891">
        <ele>185.7</ele>
        <time>2015-07-18T05:34:24Z</time>
      </trkpt>
      <trkpt lat="43.45576" lon="1.58945">
        <ele>184.1</ele>
        <time>2015-07-18T05:34:30Z</time>
      </trkpt>
      <trkpt lat="43.45572" lon="1.58983">
        <ele>181.9</ele>
        <time>2015-07-18T05:34:35Z</time>
      </trkpt>
      <trkpt lat="43.45569" lon="1.59013">
        <ele>181.6</ele>
        <time>2015-07-18T05:34:40Z</time>
      </trkpt>
      <trkpt lat="43.45567" lon="1.59045">
        <ele>180.8</ele>
        <time>2015-07-18T05:34:45Z</time>
      </trkpt>
      <trkpt lat="43.45571" lon="1.59074">
        <ele>180.5</ele>
        <time>2015-07-18T05:34:50Z</time>
      </trkpt>
      <trkpt lat="43.45574" lon="1.59092">
        <ele>176.5</ele>
        <time>2015-07-18T05:35:00Z</time>
      </trkpt>
      <trkpt lat="43.45574" lon="1.59092">
        <ele>176.5</ele>
        <time>2015-07-18T05:35:05Z</time>
      </trkpt>
      <trkpt lat="43.45574" lon="1.59092">
        <ele>176.5</ele>
        <time>2015-07-18T05:35:10Z</time>
      </trkpt>
      <trkpt lat="43.45574" lon="1.59092">
        <ele>176.5</ele>
        <time>2015-07-18T05:35:17Z</time>
      </trkpt>
      <trkpt lat="43.45574" lon="1.59092">
        <ele>176.5</ele>
        <time>2015-07-18T05:35:22Z</time>
      </trkpt>
      <trkpt lat="43.45574" lon="1.59092">
        <ele>176.5</ele>
        <time>2015-07-18T05:35:28Z</time>
      </trkpt>
      <trkpt lat="43.45574" lon="1.59092">
        <ele>176.5</ele>
        <time>2015-07-18T05:35:33Z</time>
      </trkpt>
      <trkpt lat="43.45574" lon="1.59092">
        <ele>176.5</ele>
        <time>2015-07-18T05:35:39Z</time>
      </trkpt>
      <trkpt lat="43.45574" lon="1.59092">
        <ele>176.5</ele>
        <time>2015-07-18T05:35:45Z</time>
      </trkpt>
      <trkpt lat="43.45569" lon="1.59096">
        <ele>174.8</ele>
        <time>2015-07-18T05:35:50Z</time>
      </trkpt>
      <trkpt lat="43.45569" lon="1.59097">
        <ele>174.7</ele>
        <time>2015-07-18T05:35:55Z</time>
      </trkpt>
      <trkpt lat="43.45569" lon="1.59097">
        <ele>174.7</ele>
        <time>2015-07-18T05:36:01Z</time>
      </trkpt>
      <trkpt lat="43.45569" lon="1.59097">
        <ele>174.7</ele>
        <time>2015-07-18T05:36:06Z</time>
      </trkpt>
      <trkpt lat="43.45569" lon="1.59097">
        <ele>174.7</ele>
        <time>2015-07-18T05:36:11Z</time>
      </trkpt>
      <trkpt lat="43.45569" lon="1.59097">
        <ele>174.7</ele>
        <time>2015-07-18T05:36:17Z</time>
      </trkpt>
      <trkpt lat="43.45569" lon="1.59097">
        <ele>174.7</ele>
        <time>2015-07-18T05:36:22Z</time>
      </trkpt>
      <trkpt lat="43.45569" lon="1.59097">
        <ele>174.7</ele>
        <time>2015-07-18T05:36:28Z</time>
      </trkpt>
      <trkpt lat="43.45569" lon="1.59097">
        <ele>174.7</ele>
        <time>2015-07-18T05:36:33Z</time>
      </trkpt>
      <trkpt lat="43.45572" lon="1.59101">
        <ele>171.6</ele>
        <time>2015-07-18T05:36:41Z</time>
      </trkpt>
      <trkpt lat="43.45573" lon="1.59102">
        <ele>171.4</ele>
        <time>2015-07-18T05:36:47Z</time>
      </trkpt>
      <trkpt lat="43.45582" lon="1.5915">
        <ele>171.3</ele>
        <time>2015-07-18T05:37:01Z</time>
      </trkpt>
      <trkpt lat="43.45589" lon="1.59171">
        <ele>173.5</ele>
        <time>2015-07-18T05:37:08Z</time>
      </trkpt>
      <trkpt lat="43.45596" lon="1.59196">
        <ele>175.8</ele>
        <time>2015-07-18T05:37:13Z</time>
      </trkpt>
      <trkpt lat="43.45604" lon="1.59223">
        <ele>176.8</ele>
        <time>2015-07-18T05:37:19Z</time>
      </trkpt>
      <trkpt lat="43.4561" lon="1.5925">
        <ele>178.3</ele>
        <time>2015-07-18T05:37:24Z</time>
      </trkpt>
      <trkpt lat="43.45617" lon="1.59278">
        <ele>177.8</ele>
        <time>2015-07-18T05:37:30Z</time>
      </trkpt>
      <trkpt lat="43.45629" lon="1.5932">
        <ele>176.7</ele>
        <time>2015-07-18T05:37:36Z</time>
      </trkpt>
      <trkpt lat="43.45637" lon="1.59362">
        <ele>175.9</ele>
        <time>2015-07-18T05:37:41Z</time>
      </trkpt>
      <trkpt lat="43.45641" lon="1.59405">
        <ele>174.4</ele>
        <time>2015-07-18T05:37:48Z</time>
      </trkpt>
      <trkpt lat="43.45632" lon="1.59469">
        <ele>170.7</ele>
        <time>2015-07-18T05:37:54Z</time>
      </trkpt>
      <trkpt lat="43.4562" lon="1.59516">
        <ele>167.5</ele>
        <time>2015-07-18T05:37:59Z</time>
      </trkpt>
      <trkpt lat="43.45632" lon="1.59565">
        <ele>166.2</ele>
        <time>2015-07-18T05:38:05Z</time>
      </trkpt>
      <trkpt lat="43.45644" lon="1.59617">
        <ele>165.3</ele>
        <time>2015-07-18T05:38:10Z</time>
      </trkpt>
      <trkpt lat="43.45644" lon="1.59662">
        <ele>164.4</ele>
        <time>2015-07-18T05:38:15Z</time>
      </trkpt>
      <trkpt lat="43.45643" lon="1.59688">
        <ele>164.2</ele>
        <time>2015-07-18T05:38:20Z</time>
      </trkpt>
      <trkpt lat="43.45643" lon="1.59756">
        <ele>163</ele>
        <time>2015-07-18T05:38:26Z</time>
      </trkpt>
      <trkpt lat="43.45643" lon="1.59807">
        <ele>162.3</ele>
        <time>2015-07-18T05:38:32Z</time>
      </trkpt>
      <trkpt lat="43.45641" lon="1.5988">
        <ele>162.4</ele>
        <time>2015-07-18T05:38:40Z</time>
      </trkpt>
      <trkpt lat="43.4564" lon="1.59918">
        <ele>162.8</ele>
        <time>2015-07-18T05:38:46Z</time>
      </trkpt>
      <trkpt lat="43.4564" lon="1.5995">
        <ele>162.9</ele>
        <time>2015-07-18T05:38:52Z</time>
      </trkpt>
      <trkpt lat="43.45639" lon="1.60012">
        <ele>162.2</ele>
        <time>2015-07-18T05:38:57Z</time>
      </trkpt>
      <trkpt lat="43.45638" lon="1.60052">
        <ele>161.8</ele>
        <time>2015-07-18T05:39:03Z</time>
      </trkpt>
      <trkpt lat="43.45638" lon="1.60101">
        <ele>162.4</ele>
        <time>2015-07-18T05:39:09Z</time>
      </trkpt>
      <trkpt lat="43.45637" lon="1.60141">
        <ele>162.6</ele>
        <time>2015-07-18T05:39:15Z</time>
      </trkpt>
      <trkpt lat="43.45635" lon="1.60206">
        <ele>162.2</ele>
        <time>2015-07-18T05:39:22Z</time>
      </trkpt>
      <trkpt lat="43.45634" lon="1.60256">
        <ele>162.4</ele>
        <time>2015-07-18T05:39:28Z</time>
      </trkpt>
      <trkpt lat="43.45633" lon="1.60289">
        <ele>162.3</ele>
        <time>2015-07-18T05:39:35Z</time>
      </trkpt>
      <trkpt lat="43.45632" lon="1.60319">
        <ele>162.4</ele>
        <time>2015-07-18T05:39:40Z</time>
      </trkpt>
      <trkpt lat="43.45633" lon="1.60372">
        <ele>163.9</ele>
        <time>2015-07-18T05:39:45Z</time>
      </trkpt>
      <trkpt lat="43.45646" lon="1.60388">
        <ele>164.2</ele>
        <time>2015-07-18T05:39:51Z</time>
      </trkpt>
      <trkpt lat="43.45651" lon="1.60412">
        <ele>164.2</ele>
        <time>2015-07-18T05:39:56Z</time>
      </trkpt>
      <trkpt lat="43.45638" lon="1.60428">
        <ele>163.7</ele>
        <time>2015-07-18T05:40:02Z</time>
      </trkpt>
      <trkpt lat="43.45622" lon="1.60448">
        <ele>163.9</ele>
        <time>2015-07-18T05:40:10Z</time>
      </trkpt>
      <trkpt lat="43.45596" lon="1.60487">
        <ele>163.6</ele>
        <time>2015-07-18T05:40:15Z</time>
      </trkpt>
      <trkpt lat="43.45582" lon="1.60516">
        <ele>162.8</ele>
        <time>2015-07-18T05:40:21Z</time>
      </trkpt>
      <trkpt lat="43.45566" lon="1.60544">
        <ele>162.8</ele>
        <time>2015-07-18T05:40:26Z</time>
      </trkpt>
      <trkpt lat="43.45552" lon="1.60561">
        <ele>162.9</ele>
        <time>2015-07-18T05:40:32Z</time>
      </trkpt>
      <trkpt lat="43.45539" lon="1.60576">
        <ele>163.8</ele>
        <time>2015-07-18T05:40:37Z</time>
      </trkpt>
      <trkpt lat="43.45524" lon="1.60597">
        <ele>164</ele>
        <time>2015-07-18T05:40:43Z</time>
      </trkpt>
      <trkpt lat="43.4551" lon="1.60618">
        <ele>164.1</ele>
        <time>2015-07-18T05:40:48Z</time>
      </trkpt>
      <trkpt lat="43.45491" lon="1.60644">
        <ele>164.6</ele>
        <time>2015-07-18T05:40:54Z</time>
      </trkpt>
      <trkpt lat="43.45477" lon="1.6067">
        <ele>165.9</ele>
        <time>2015-07-18T05:40:59Z</time>
      </trkpt>
      <trkpt lat="43.45467" lon="1.60688">
        <ele>165.8</ele>
        <time>2015-07-18T05:41:05Z</time>
      </trkpt>
      <trkpt lat="43.45448" lon="1.60716">
        <ele>165.5</ele>
        <time>2015-07-18T05:41:10Z</time>
      </trkpt>
      <trkpt lat="43.45412" lon="1.60763">
        <ele>165.4</ele>
        <time>2015-07-18T05:41:23Z</time>
      </trkpt>
      <trkpt lat="43.45408" lon="1.60789">
        <ele>164.5</ele>
        <time>2015-07-18T05:41:29Z</time>
      </trkpt>
      <trkpt lat="43.45423" lon="1.60798">
        <ele>163.5</ele>
        <time>2015-07-18T05:41:36Z</time>
      </trkpt>
      <trkpt lat="43.45449" lon="1.60806">
        <ele>162.8</ele>
        <time>2015-07-18T05:41:42Z</time>
      </trkpt>
      <trkpt lat="43.45475" lon="1.60816">
        <ele>162.7</ele>
        <time>2015-07-18T05:41:47Z</time>
      </trkpt>
      <trkpt lat="43.45489" lon="1.60823">
        <ele>163.2</ele>
        <time>2015-07-18T05:41:53Z</time>
      </trkpt>
      <trkpt lat="43.45489" lon="1.60846">
        <ele>164.8</ele>
        <time>2015-07-18T05:41:58Z</time>
      </trkpt>
      <trkpt lat="43.45492" lon="1.60913">
        <ele>169.7</ele>
        <time>2015-07-18T05:42:12Z</time>
      </trkpt>
      <trkpt lat="43.45486" lon="1.60946">
        <ele>169.7</ele>
        <time>2015-07-18T05:42:17Z</time>
      </trkpt>
      <trkpt lat="43.4548" lon="1.60974">
        <ele>169.1</ele>
        <time>2015-07-18T05:42:22Z</time>
      </trkpt>
      <trkpt lat="43.45474" lon="1.61">
        <ele>168.9</ele>
        <time>2015-07-18T05:42:28Z</time>
      </trkpt>
      <trkpt lat="43.45466" lon="1.61039">
        <ele>167.3</ele>
        <time>2015-07-18T05:42:34Z</time>
      </trkpt>
      <trkpt lat="43.45461" lon="1.61074">
        <ele>165.8</ele>
        <time>2015-07-18T05:42:39Z</time>
      </trkpt>
      <trkpt lat="43.45455" lon="1.61109">
        <ele>165.9</ele>
        <time>2015-07-18T05:42:44Z</time>
      </trkpt>
      <trkpt lat="43.45453" lon="1.61144">
        <ele>165.5</ele>
        <time>2015-07-18T05:42:49Z</time>
      </trkpt>
      <trkpt lat="43.45453" lon="1.61183">
        <ele>164.3</ele>
        <time>2015-07-18T05:42:54Z</time>
      </trkpt>
      <trkpt lat="43.45454" lon="1.6121">
        <ele>164.3</ele>
        <time>2015-07-18T05:43:00Z</time>
      </trkpt>
      <trkpt lat="43.45456" lon="1.61249">
        <ele>165</ele>
        <time>2015-07-18T05:43:08Z</time>
      </trkpt>
      <trkpt lat="43.45457" lon="1.6127">
        <ele>166.5</ele>
        <time>2015-07-18T05:43:14Z</time>
      </trkpt>
      <trkpt lat="43.45453" lon="1.61282">
        <ele>167.9</ele>
        <time>2015-07-18T05:43:20Z</time>
      </trkpt>
      <trkpt lat="43.45443" lon="1.61308">
        <ele>169.8</ele>
        <time>2015-07-18T05:43:25Z</time>
      </trkpt>
      <trkpt lat="43.45426" lon="1.61321">
        <ele>172.1</ele>
        <time>2015-07-18T05:43:31Z</time>
      </trkpt>
      <trkpt lat="43.45416" lon="1.61327">
        <ele>173.8</ele>
        <time>2015-07-18T05:43:36Z</time>
      </trkpt>
      <trkpt lat="43.45408" lon="1.6134">
        <ele>175.7</ele>
        <time>2015-07-18T05:43:43Z</time>
      </trkpt>
      <trkpt lat="43.45403" lon="1.61358">
        <ele>177.3</ele>
        <time>2015-07-18T05:43:49Z</time>
      </trkpt>
      <trkpt lat="43.45401" lon="1.61374">
        <ele>178.3</ele>
        <time>2015-07-18T05:43:55Z</time>
      </trkpt>
      <trkpt lat="43.45395" lon="1.61408">
        <ele>179.6</ele>
        <time>2015-07-18T05:44:01Z</time>
      </trkpt>
      <trkpt lat="43.45393" lon="1.61435">
        <ele>181.1</ele>
        <time>2015-07-18T05:44:07Z</time>
      </trkpt>
      <trkpt lat="43.45392" lon="1.61462">
        <ele>183.2</ele>
        <time>2015-07-18T05:44:12Z</time>
      </trkpt>
      <trkpt lat="43.45391" lon="1.61485">
        <ele>185.4</ele>
        <time>2015-07-18T05:44:18Z</time>
      </trkpt>
      <trkpt lat="43.45393" lon="1.6149">
        <ele>187</ele>
        <time>2015-07-18T05:44:23Z</time>
      </trkpt>
      <trkpt lat="43.45394" lon="1.61474">
        <ele>188.1</ele>
        <time>2015-07-18T05:44:35Z</time>
      </trkpt>
      <trkpt lat="43.45422" lon="1.6149">
        <ele>196.2</ele>
        <time>2015-07-18T05:44:43Z</time>
      </trkpt>
      <trkpt lat="43.45449" lon="1.61491">
        <ele>201.5</ele>
        <time>2015-07-18T05:44:50Z</time>
      </trkpt>
      <trkpt lat="43.45465" lon="1.61496">
        <ele>201.8</ele>
        <time>2015-07-18T05:44:57Z</time>
      </trkpt>
      <trkpt lat="43.45471" lon="1.61497">
        <ele>198.9</ele>
        <time>2015-07-18T05:45:02Z</time>
      </trkpt>
      <trkpt lat="43.45471" lon="1.61497">
        <ele>198.9</ele>
        <time>2015-07-18T05:45:08Z</time>
      </trkpt>
      <trkpt lat="43.4548" lon="1.61501">
        <ele>186.5</ele>
        <time>2015-07-18T05:45:16Z</time>
      </trkpt>
      <trkpt lat="43.45483" lon="1.61499">
        <ele>183.4</ele>
        <time>2015-07-18T05:45:22Z</time>
      </trkpt>
      <trkpt lat="43.45486" lon="1.61499">
        <ele>183</ele>
        <time>2015-07-18T05:45:27Z</time>
      </trkpt>
      <trkpt lat="43.45491" lon="1.615">
        <ele>181.7</ele>
        <time>2015-07-18T05:45:32Z</time>
      </trkpt>
      <trkpt lat="43.45493" lon="1.61506">
        <ele>181</ele>
        <time>2015-07-18T05:45:39Z</time>
      </trkpt>
      <trkpt lat="43.45493" lon="1.61507">
        <ele>180.9</ele>
        <time>2015-07-18T05:45:44Z</time>
      </trkpt>
      <trkpt lat="43.45493" lon="1.61507">
        <ele>180.9</ele>
        <time>2015-07-18T05:45:50Z</time>
      </trkpt>
      <trkpt lat="43.45493" lon="1.61507">
        <ele>180.9</ele>
        <time>2015-07-18T05:45:56Z</time>
      </trkpt>
      <trkpt lat="43.455" lon="1.61507">
        <ele>179.8</ele>
        <time>2015-07-18T05:46:01Z</time>
      </trkpt>
      <trkpt lat="43.455" lon="1.61507">
        <ele>179.7</ele>
        <time>2015-07-18T05:46:07Z</time>
      </trkpt>
      <trkpt lat="43.455" lon="1.61507">
        <ele>179.7</ele>
        <time>2015-07-18T05:46:13Z</time>
      </trkpt>
      <trkpt lat="43.455" lon="1.61507">
        <ele>179.7</ele>
        <time>2015-07-18T05:46:19Z</time>
      </trkpt>
      <trkpt lat="43.455" lon="1.61507">
        <ele>179.7</ele>
        <time>2015-07-18T05:46:24Z</time>
      </trkpt>
      <trkpt lat="43.455" lon="1.61507">
        <ele>179.7</ele>
        <time>2015-07-18T05:46:29Z</time>
      </trkpt>
      <trkpt lat="43.455" lon="1.61507">
        <ele>179.7</ele>
        <time>2015-07-18T05:46:35Z</time>
      </trkpt>
      <trkpt lat="43.455" lon="1.61507">
        <ele>179.7</ele>
        <time>2015-07-18T05:46:40Z</time>
      </trkpt>
      <trkpt lat="43.455" lon="1.61507">
        <ele>179.7</ele>
        <time>2015-07-18T05:46:46Z</time>
      </trkpt>
      <trkpt lat="43.455" lon="1.61507">
        <ele>179.7</ele>
        <time>2015-07-18T05:46:51Z</time>
      </trkpt>
      <trkpt lat="43.455" lon="1.61507">
        <ele>179.7</ele>
        <time>2015-07-18T05:46:57Z</time>
      </trkpt>
      <trkpt lat="43.455" lon="1.61507">
        <ele>179.7</ele>
        <time>2015-07-18T05:47:02Z</time>
      </trkpt>
      <trkpt lat="43.455" lon="1.61507">
        <ele>179.7</ele>
        <time>2015-07-18T05:47:10Z</time>
      </trkpt>
      <trkpt lat="43.455" lon="1.61507">
        <ele>179.7</ele>
        <time>2015-07-18T05:47:15Z</time>
      </trkpt>
      <trkpt lat="43.455" lon="1.61507">
        <ele>179.7</ele>
        <time>2015-07-18T05:47:21Z</time>
      </trkpt>
      <trkpt lat="43.455" lon="1.61507">
        <ele>179.7</ele>
        <time>2015-07-18T05:47:27Z</time>
      </trkpt>
      <trkpt lat="43.455" lon="1.61507">
        <ele>179.7</ele>
        <time>2015-07-18T05:47:33Z</time>
      </trkpt>
      <trkpt lat="43.455" lon="1.61507">
        <ele>179.7</ele>
        <time>2015-07-18T05:47:39Z</time>
      </trkpt>
      <trkpt lat="43.455" lon="1.61507">
        <ele>179.7</ele>
        <time>2015-07-18T05:47:46Z</time>
      </trkpt>
      <trkpt lat="43.455" lon="1.61507">
        <ele>179.7</ele>
        <time>2015-07-18T05:47:52Z</time>
      </trkpt>
      <trkpt lat="43.455" lon="1.61507">
        <ele>179.7</ele>
        <time>2015-07-18T05:47:58Z</time>
      </trkpt>
      <trkpt lat="43.455" lon="1.61507">
        <ele>179.7</ele>
        <time>2015-07-18T05:48:03Z</time>
      </trkpt>
      <trkpt lat="43.455" lon="1.61507">
        <ele>179.7</ele>
        <time>2015-07-18T05:48:09Z</time>
      </trkpt>
      <trkpt lat="43.45503" lon="1.61506">
        <ele>173.5</ele>
        <time>2015-07-18T05:48:18Z</time>
      </trkpt>
      <trkpt lat="43.45527" lon="1.61518">
        <ele>175.8</ele>
        <time>2015-07-18T05:48:26Z</time>
      </trkpt>
      <trkpt lat="43.45551" lon="1.61532">
        <ele>177.6</ele>
        <time>2015-07-18T05:48:31Z</time>
      </trkpt>
      <trkpt lat="43.45567" lon="1.61546">
        <ele>179</ele>
        <time>2015-07-18T05:48:37Z</time>
      </trkpt>
      <trkpt lat="43.45581" lon="1.61561">
        <ele>179.4</ele>
        <time>2015-07-18T05:48:42Z</time>
      </trkpt>
      <trkpt lat="43.45595" lon="1.61579">
        <ele>179.9</ele>
        <time>2015-07-18T05:48:47Z</time>
      </trkpt>
      <trkpt lat="43.45609" lon="1.61595">
        <ele>179.4</ele>
        <time>2015-07-18T05:48:52Z</time>
      </trkpt>
      <trkpt lat="43.45621" lon="1.61614">
        <ele>181</ele>
        <time>2015-07-18T05:49:00Z</time>
      </trkpt>
      <trkpt lat="43.45633" lon="1.61631">
        <ele>181.1</ele>
        <time>2015-07-18T05:49:07Z</time>
      </trkpt>
      <trkpt lat="43.45667" lon="1.61679">
        <ele>182.7</ele>
        <time>2015-07-18T05:49:24Z</time>
      </trkpt>
      <trkpt lat="43.45675" lon="1.61697">
        <ele>183.9</ele>
        <time>2015-07-18T05:49:30Z</time>
      </trkpt>
      <trkpt lat="43.45685" lon="1.61713">
        <ele>185</ele>
        <time>2015-07-18T05:49:35Z</time>
      </trkpt>
      <trkpt lat="43.4569" lon="1.61722">
        <ele>185.4</ele>
        <time>2015-07-18T05:49:41Z</time>
      </trkpt>
      <trkpt lat="43.45705" lon="1.6174">
        <ele>184.8</ele>
        <time>2015-07-18T05:50:01Z</time>
      </trkpt>
      <trkpt lat="43.45736" lon="1.61788">
        <ele>185.6</ele>
        <time>2015-07-18T05:50:06Z</time>
      </trkpt>
      <trkpt lat="43.45745" lon="1.61799">
        <ele>186.7</ele>
        <time>2015-07-18T05:50:13Z</time>
      </trkpt>
      <trkpt lat="43.45756" lon="1.61817">
        <ele>187.5</ele>
        <time>2015-07-18T05:50:18Z</time>
      </trkpt>
      <trkpt lat="43.45765" lon="1.61832">
        <ele>188.2</ele>
        <time>2015-07-18T05:50:24Z</time>
      </trkpt>
      <trkpt lat="43.45771" lon="1.61843">
        <ele>188.1</ele>
        <time>2015-07-18T05:50:30Z</time>
      </trkpt>
      <trkpt lat="43.45776" lon="1.61852">
        <ele>188.2</ele>
        <time>2015-07-18T05:50:44Z</time>
      </trkpt>
      <trkpt lat="43.45793" lon="1.6189">
        <ele>191</ele>
        <time>2015-07-18T05:50:50Z</time>
      </trkpt>
      <trkpt lat="43.45797" lon="1.61901">
        <ele>192.1</ele>
        <time>2015-07-18T05:50:58Z</time>
      </trkpt>
      <trkpt lat="43.45804" lon="1.6192">
        <ele>193.7</ele>
        <time>2015-07-18T05:51:04Z</time>
      </trkpt>
      <trkpt lat="43.45808" lon="1.61929">
        <ele>194.9</ele>
        <time>2015-07-18T05:51:10Z</time>
      </trkpt>
      <trkpt lat="43.45814" lon="1.61941">
        <ele>195.9</ele>
        <time>2015-07-18T05:51:15Z</time>
      </trkpt>
      <trkpt lat="43.45817" lon="1.61948">
        <ele>196.8</ele>
        <time>2015-07-18T05:51:20Z</time>
      </trkpt>
      <trkpt lat="43.45818" lon="1.61956">
        <ele>198</ele>
        <time>2015-07-18T05:51:27Z</time>
      </trkpt>
      <trkpt lat="43.45824" lon="1.61969">
        <ele>201</ele>
        <time>2015-07-18T05:51:32Z</time>
      </trkpt>
      <trkpt lat="43.45828" lon="1.61978">
        <ele>204.1</ele>
        <time>2015-07-18T05:51:39Z</time>
      </trkpt>
      <trkpt lat="43.45832" lon="1.61991">
        <ele>207.3</ele>
        <time>2015-07-18T05:51:44Z</time>
      </trkpt>
      <trkpt lat="43.45837" lon="1.62004">
        <ele>210</ele>
        <time>2015-07-18T05:51:51Z</time>
      </trkpt>
      <trkpt lat="43.45842" lon="1.62016">
        <ele>212.4</ele>
        <time>2015-07-18T05:51:56Z</time>
      </trkpt>
      <trkpt lat="43.45845" lon="1.62023">
        <ele>214.1</ele>
        <time>2015-07-18T05:52:02Z</time>
      </trkpt>
      <trkpt lat="43.45849" lon="1.62033">
        <ele>215.7</ele>
        <time>2015-07-18T05:52:07Z</time>
      </trkpt>
      <trkpt lat="43.45854" lon="1.62043">
        <ele>215.7</ele>
        <time>2015-07-18T05:52:13Z</time>
      </trkpt>
      <trkpt lat="43.45859" lon="1.62054">
        <ele>215.6</ele>
        <time>2015-07-18T05:52:20Z</time>
      </trkpt>
      <trkpt lat="43.45867" lon="1.62066">
        <ele>214.4</ele>
        <time>2015-07-18T05:52:26Z</time>
      </trkpt>
      <trkpt lat="43.45881" lon="1.62076">
        <ele>212.7</ele>
        <time>2015-07-18T05:52:32Z</time>
      </trkpt>
      <trkpt lat="43.45899" lon="1.62082">
        <ele>211.9</ele>
        <time>2015-07-18T05:52:41Z</time>
      </trkpt>
      <trkpt lat="43.45922" lon="1.6209">
        <ele>211.5</ele>
        <time>2015-07-18T05:52:46Z</time>
      </trkpt>
      <trkpt lat="43.45912" lon="1.62153">
        <ele>214.5</ele>
        <time>2015-07-18T05:53:00Z</time>
      </trkpt>
      <trkpt lat="43.4591" lon="1.62179">
        <ele>216.2</ele>
        <time>2015-07-18T05:53:06Z</time>
      </trkpt>
      <trkpt lat="43.45915" lon="1.62205">
        <ele>215.9</ele>
        <time>2015-07-18T05:53:12Z</time>
      </trkpt>
      <trkpt lat="43.45924" lon="1.62224">
        <ele>214.3</ele>
        <time>2015-07-18T05:53:17Z</time>
      </trkpt>
      <trkpt lat="43.45936" lon="1.62246">
        <ele>214.2</ele>
        <time>2015-07-18T05:53:23Z</time>
      </trkpt>
      <trkpt lat="43.45947" lon="1.62261">
        <ele>214.6</ele>
        <time>2015-07-18T05:53:29Z</time>
      </trkpt>
      <trkpt lat="43.45959" lon="1.62277">
        <ele>214.8</ele>
        <time>2015-07-18T05:53:34Z</time>
      </trkpt>
      <trkpt lat="43.45966" lon="1.62293">
        <ele>214.9</ele>
        <time>2015-07-18T05:53:39Z</time>
      </trkpt>
      <trkpt lat="43.45972" lon="1.62307">
        <ele>214.8</ele>
        <time>2015-07-18T05:53:45Z</time>
      </trkpt>
      <trkpt lat="43.45975" lon="1.62317">
        <ele>214.4</ele>
        <time>2015-07-18T05:53:50Z</time>
      </trkpt>
      <trkpt lat="43.45982" lon="1.62331">
        <ele>214.2</ele>
        <time>2015-07-18T05:53:55Z</time>
      </trkpt>
      <trkpt lat="43.45992" lon="1.62354">
        <ele>213.9</ele>
        <time>2015-07-18T05:54:00Z</time>
      </trkpt>
      <trkpt lat="43.46003" lon="1.62375">
        <ele>214.9</ele>
        <time>2015-07-18T05:54:06Z</time>
      </trkpt>
      <trkpt lat="43.46011" lon="1.62392">
        <ele>214</ele>
        <time>2015-07-18T05:54:11Z</time>
      </trkpt>
      <trkpt lat="43.46018" lon="1.62409">
        <ele>213</ele>
        <time>2015-07-18T05:54:18Z</time>
      </trkpt>
      <trkpt lat="43.46034" lon="1.62446">
        <ele>214.2</ele>
        <time>2015-07-18T05:54:35Z</time>
      </trkpt>
      <trkpt lat="43.4604" lon="1.62463">
        <ele>214.6</ele>
        <time>2015-07-18T05:54:42Z</time>
      </trkpt>
      <trkpt lat="43.4606" lon="1.62518">
        <ele>212.8</ele>
        <time>2015-07-18T05:54:54Z</time>
      </trkpt>
      <trkpt lat="43.4607" lon="1.62568">
        <ele>207.1</ele>
        <time>2015-07-18T05:55:00Z</time>
      </trkpt>
      <trkpt lat="43.46076" lon="1.62599">
        <ele>204.7</ele>
        <time>2015-07-18T05:55:06Z</time>
      </trkpt>
      <trkpt lat="43.46079" lon="1.62636">
        <ele>201.6</ele>
        <time>2015-07-18T05:55:11Z</time>
      </trkpt>
      <trkpt lat="43.46083" lon="1.62675">
        <ele>196.3</ele>
        <time>2015-07-18T05:55:18Z</time>
      </trkpt>
      <trkpt lat="43.46091" lon="1.62695">
        <ele>192.6</ele>
        <time>2015-07-18T05:55:36Z</time>
      </trkpt>
      <trkpt lat="43.46157" lon="1.62831">
        <ele>178.5</ele>
        <time>2015-07-18T05:55:42Z</time>
      </trkpt>
      <trkpt lat="43.4616" lon="1.62872">
        <ele>177.2</ele>
        <time>2015-07-18T05:55:48Z</time>
      </trkpt>
      <trkpt lat="43.46162" lon="1.62905">
        <ele>176.6</ele>
        <time>2015-07-18T05:55:54Z</time>
      </trkpt>
      <trkpt lat="43.46166" lon="1.6295">
        <ele>175.5</ele>
        <time>2015-07-18T05:56:00Z</time>
      </trkpt>
      <trkpt lat="43.4617" lon="1.62995">
        <ele>174.4</ele>
        <time>2015-07-18T05:56:07Z</time>
      </trkpt>
      <trkpt lat="43.46172" lon="1.63032">
        <ele>173.5</ele>
        <time>2015-07-18T05:56:12Z</time>
      </trkpt>
      <trkpt lat="43.46175" lon="1.63071">
        <ele>172.3</ele>
        <time>2015-07-18T05:56:18Z</time>
      </trkpt>
      <trkpt lat="43.46147" lon="1.6313">
        <ele>171.1</ele>
        <time>2015-07-18T05:56:41Z</time>
      </trkpt>
      <trkpt lat="43.46138" lon="1.63126">
        <ele>171.9</ele>
        <time>2015-07-18T05:56:46Z</time>
      </trkpt>
      <trkpt lat="43.46136" lon="1.63127">
        <ele>172</ele>
        <time>2015-07-18T05:56:52Z</time>
      </trkpt>
      <trkpt lat="43.46162" lon="1.63128">
        <ele>174.1</ele>
        <time>2015-07-18T05:56:58Z</time>
      </trkpt>
      <trkpt lat="43.46175" lon="1.63121">
        <ele>174.3</ele>
        <time>2015-07-18T05:57:04Z</time>
      </trkpt>
      <trkpt lat="43.46183" lon="1.6314">
        <ele>175.7</ele>
        <time>2015-07-18T05:57:09Z</time>
      </trkpt>
      <trkpt lat="43.46186" lon="1.6317">
        <ele>174.4</ele>
        <time>2015-07-18T05:57:14Z</time>
      </trkpt>
      <trkpt lat="43.4619" lon="1.63205">
        <ele>173.9</ele>
        <time>2015-07-18T05:57:21Z</time>
      </trkpt>
      <trkpt lat="43.46196" lon="1.63245">
        <ele>173.8</ele>
        <time>2015-07-18T05:57:27Z</time>
      </trkpt>
      <trkpt lat="43.46198" lon="1.63273">
        <ele>173.5</ele>
        <time>2015-07-18T05:57:32Z</time>
      </trkpt>
      <trkpt lat="43.46203" lon="1.63301">
        <ele>173.5</ele>
        <time>2015-07-18T05:57:39Z</time>
      </trkpt>
      <trkpt lat="43.46211" lon="1.63345">
        <ele>173.1</ele>
        <time>2015-07-18T05:57:45Z</time>
      </trkpt>
      <trkpt lat="43.46218" lon="1.63377">
        <ele>173.1</ele>
        <time>2015-07-18T05:57:51Z</time>
      </trkpt>
      <trkpt lat="43.46224" lon="1.63406">
        <ele>172.9</ele>
        <time>2015-07-18T05:57:56Z</time>
      </trkpt>
      <trkpt lat="43.46235" lon="1.63462">
        <ele>173.2</ele>
        <time>2015-07-18T05:58:07Z</time>
      </trkpt>
      <trkpt lat="43.46244" lon="1.63496">
        <ele>173.9</ele>
        <time>2015-07-18T05:58:12Z</time>
      </trkpt>
      <trkpt lat="43.46252" lon="1.63518">
        <ele>173.3</ele>
        <time>2015-07-18T05:58:18Z</time>
      </trkpt>
      <trkpt lat="43.46266" lon="1.63547">
        <ele>173</ele>
        <time>2015-07-18T05:58:23Z</time>
      </trkpt>
      <trkpt lat="43.46278" lon="1.6357">
        <ele>173.1</ele>
        <time>2015-07-18T05:58:28Z</time>
      </trkpt>
      <trkpt lat="43.4629" lon="1.63593">
        <ele>173.3</ele>
        <time>2015-07-18T05:58:35Z</time>
      </trkpt>
      <trkpt lat="43.46303" lon="1.63619">
        <ele>174</ele>
        <time>2015-07-18T05:58:40Z</time>
      </trkpt>
      <trkpt lat="43.46313" lon="1.63639">
        <ele>174.6</ele>
        <time>2015-07-18T05:58:45Z</time>
      </trkpt>
      <trkpt lat="43.46323" lon="1.63662">
        <ele>176.3</ele>
        <time>2015-07-18T05:58:50Z</time>
      </trkpt>
      <trkpt lat="43.46327" lon="1.6368">
        <ele>176.1</ele>
        <time>2015-07-18T05:58:56Z</time>
      </trkpt>
      <trkpt lat="43.4633" lon="1.63702">
        <ele>176.1</ele>
        <time>2015-07-18T05:59:01Z</time>
      </trkpt>
      <trkpt lat="43.46333" lon="1.6373">
        <ele>175.5</ele>
        <time>2015-07-18T05:59:07Z</time>
      </trkpt>
      <trkpt lat="43.46339" lon="1.6376">
        <ele>175.2</ele>
        <time>2015-07-18T05:59:12Z</time>
      </trkpt>
      <trkpt lat="43.46352" lon="1.63789">
        <ele>176</ele>
        <time>2015-07-18T05:59:19Z</time>
      </trkpt>
      <trkpt lat="43.46363" lon="1.63811">
        <ele>176.1</ele>
        <time>2015-07-18T05:59:24Z</time>
      </trkpt>
      <trkpt lat="43.46372" lon="1.63835">
        <ele>176.5</ele>
        <time>2015-07-18T05:59:30Z</time>
      </trkpt>
      <trkpt lat="43.46388" lon="1.63869">
        <ele>176.6</ele>
        <time>2015-07-18T05:59:36Z</time>
      </trkpt>
      <trkpt lat="43.46401" lon="1.63891">
        <ele>176.7</ele>
        <time>2015-07-18T05:59:42Z</time>
      </trkpt>
      <trkpt lat="43.46415" lon="1.63918">
        <ele>176.5</ele>
        <time>2015-07-18T05:59:48Z</time>
      </trkpt>
      <trkpt lat="43.46447" lon="1.6399">
        <ele>176.2</ele>
        <time>2015-07-18T06:00:00Z</time>
      </trkpt>
      <trkpt lat="43.46457" lon="1.64022">
        <ele>176.5</ele>
        <time>2015-07-18T06:00:07Z</time>
      </trkpt>
      <trkpt lat="43.46464" lon="1.64064">
        <ele>176.5</ele>
        <time>2015-07-18T06:00:12Z</time>
      </trkpt>
      <trkpt lat="43.46468" lon="1.64099">
        <ele>176.5</ele>
        <time>2015-07-18T06:00:18Z</time>
      </trkpt>
      <trkpt lat="43.46469" lon="1.64125">
        <ele>176.9</ele>
        <time>2015-07-18T06:00:24Z</time>
      </trkpt>
      <trkpt lat="43.46471" lon="1.64152">
        <ele>176.6</ele>
        <time>2015-07-18T06:00:32Z</time>
      </trkpt>
      <trkpt lat="43.46474" lon="1.64197">
        <ele>175.9</ele>
        <time>2015-07-18T06:00:37Z</time>
      </trkpt>
      <trkpt lat="43.46475" lon="1.64223">
        <ele>175.6</ele>
        <time>2015-07-18T06:00:43Z</time>
      </trkpt>
      <trkpt lat="43.46477" lon="1.64246">
        <ele>175.6</ele>
        <time>2015-07-18T06:00:48Z</time>
      </trkpt>
      <trkpt lat="43.46476" lon="1.64268">
        <ele>176.1</ele>
        <time>2015-07-18T06:00:53Z</time>
      </trkpt>
      <trkpt lat="43.46477" lon="1.6428">
        <ele>176.1</ele>
        <time>2015-07-18T06:01:00Z</time>
      </trkpt>
      <trkpt lat="43.46477" lon="1.64281">
        <ele>175.6</ele>
        <time>2015-07-18T06:01:05Z</time>
      </trkpt>
      <trkpt lat="43.46477" lon="1.64281">
        <ele>175.6</ele>
        <time>2015-07-18T06:01:11Z</time>
      </trkpt>
      <trkpt lat="43.46477" lon="1.64281">
        <ele>175.6</ele>
        <time>2015-07-18T06:01:16Z</time>
      </trkpt>
      <trkpt lat="43.46477" lon="1.64281">
        <ele>175.6</ele>
        <time>2015-07-18T06:01:22Z</time>
      </trkpt>
      <trkpt lat="43.46477" lon="1.64281">
        <ele>175.6</ele>
        <time>2015-07-18T06:01:28Z</time>
      </trkpt>
      <trkpt lat="43.46477" lon="1.64281">
        <ele>175.6</ele>
        <time>2015-07-18T06:01:33Z</time>
      </trkpt>
      <trkpt lat="43.46477" lon="1.64281">
        <ele>175.6</ele>
        <time>2015-07-18T06:01:38Z</time>
      </trkpt>
      <trkpt lat="43.46477" lon="1.64281">
        <ele>175.6</ele>
        <time>2015-07-18T06:01:44Z</time>
      </trkpt>
      <trkpt lat="43.46477" lon="1.64281">
        <ele>175.6</ele>
        <time>2015-07-18T06:01:49Z</time>
      </trkpt>
      <trkpt lat="43.46477" lon="1.64281">
        <ele>175.6</ele>
        <time>2015-07-18T06:01:55Z</time>
      </trkpt>
      <trkpt lat="43.46477" lon="1.64281">
        <ele>175.6</ele>
        <time>2015-07-18T06:02:00Z</time>
      </trkpt>
      <trkpt lat="43.46477" lon="1.64281">
        <ele>175.6</ele>
        <time>2015-07-18T06:02:05Z</time>
      </trkpt>
      <trkpt lat="43.46477" lon="1.64281">
        <ele>175.6</ele>
        <time>2015-07-18T06:02:10Z</time>
      </trkpt>
      <trkpt lat="43.46477" lon="1.64281">
        <ele>175.6</ele>
        <time>2015-07-18T06:02:16Z</time>
      </trkpt>
      <trkpt lat="43.46477" lon="1.64281">
        <ele>175.6</ele>
        <time>2015-07-18T06:02:22Z</time>
      </trkpt>
      <trkpt lat="43.46477" lon="1.64281">
        <ele>175.6</ele>
        <time>2015-07-18T06:02:27Z</time>
      </trkpt>
      <trkpt lat="43.46477" lon="1.64281">
        <ele>175.6</ele>
        <time>2015-07-18T06:02:32Z</time>
      </trkpt>
      <trkpt lat="43.46477" lon="1.64281">
        <ele>175.6</ele>
        <time>2015-07-18T06:02:37Z</time>
      </trkpt>
      <trkpt lat="43.46477" lon="1.64281">
        <ele>175.6</ele>
        <time>2015-07-18T06:02:43Z</time>
      </trkpt>
      <trkpt lat="43.46477" lon="1.64281">
        <ele>175.6</ele>
        <time>2015-07-18T06:02:48Z</time>
      </trkpt>
      <trkpt lat="43.46477" lon="1.64281">
        <ele>175.6</ele>
        <time>2015-07-18T06:02:53Z</time>
      </trkpt>
      <trkpt lat="43.46477" lon="1.64281">
        <ele>175.6</ele>
        <time>2015-07-18T06:02:59Z</time>
      </trkpt>
      <trkpt lat="43.46479" lon="1.6429">
        <ele>178.9</ele>
        <time>2015-07-18T06:03:04Z</time>
      </trkpt>
      <trkpt lat="43.4648" lon="1.64298">
        <ele>179.2</ele>
        <time>2015-07-18T06:03:10Z</time>
      </trkpt>
      <trkpt lat="43.46484" lon="1.64329">
        <ele>180</ele>
        <time>2015-07-18T06:03:17Z</time>
      </trkpt>
      <trkpt lat="43.46488" lon="1.64362">
        <ele>179.4</ele>
        <time>2015-07-18T06:03:22Z</time>
      </trkpt>
      <trkpt lat="43.46491" lon="1.64401">
        <ele>179.2</ele>
        <time>2015-07-18T06:03:28Z</time>
      </trkpt>
      <trkpt lat="43.46494" lon="1.64431">
        <ele>179</ele>
        <time>2015-07-18T06:03:33Z</time>
      </trkpt>
      <trkpt lat="43.46498" lon="1.64463">
        <ele>178.6</ele>
        <time>2015-07-18T06:03:38Z</time>
      </trkpt>
      <trkpt lat="43.46502" lon="1.64501">
        <ele>178.2</ele>
        <time>2015-07-18T06:03:44Z</time>
      </trkpt>
      <trkpt lat="43.46509" lon="1.64532">
        <ele>177.9</ele>
        <time>2015-07-18T06:03:49Z</time>
      </trkpt>
      <trkpt lat="43.46518" lon="1.64563">
        <ele>177.9</ele>
        <time>2015-07-18T06:03:54Z</time>
      </trkpt>
      <trkpt lat="43.46527" lon="1.64592">
        <ele>178</ele>
        <time>2015-07-18T06:03:59Z</time>
      </trkpt>
      <trkpt lat="43.46536" lon="1.6462">
        <ele>178.2</ele>
        <time>2015-07-18T06:04:05Z</time>
      </trkpt>
      <trkpt lat="43.46545" lon="1.64648">
        <ele>178.3</ele>
        <time>2015-07-18T06:04:10Z</time>
      </trkpt>
      <trkpt lat="43.46554" lon="1.6468">
        <ele>178.3</ele>
        <time>2015-07-18T06:04:15Z</time>
      </trkpt>
      <trkpt lat="43.4656" lon="1.64707">
        <ele>178</ele>
        <time>2015-07-18T06:04:21Z</time>
      </trkpt>
      <trkpt lat="43.46567" lon="1.6474">
        <ele>177.9</ele>
        <time>2015-07-18T06:04:27Z</time>
      </trkpt>
      <trkpt lat="43.46573" lon="1.64776">
        <ele>177.6</ele>
        <time>2015-07-18T06:04:34Z</time>
      </trkpt>
      <trkpt lat="43.46577" lon="1.64796">
        <ele>177.6</ele>
        <time>2015-07-18T06:04:40Z</time>
      </trkpt>
      <trkpt lat="43.46586" lon="1.64832">
        <ele>178</ele>
        <time>2015-07-18T06:04:45Z</time>
      </trkpt>
      <trkpt lat="43.46595" lon="1.64847">
        <ele>178.5</ele>
        <time>2015-07-18T06:04:50Z</time>
      </trkpt>
      <trkpt lat="43.46607" lon="1.64867">
        <ele>178.3</ele>
        <time>2015-07-18T06:04:56Z</time>
      </trkpt>
      <trkpt lat="43.4662" lon="1.64888">
        <ele>178.4</ele>
        <time>2015-07-18T06:05:01Z</time>
      </trkpt>
      <trkpt lat="43.46631" lon="1.64908">
        <ele>178.5</ele>
        <time>2015-07-18T06:05:07Z</time>
      </trkpt>
      <trkpt lat="43.46643" lon="1.64933">
        <ele>179.2</ele>
        <time>2015-07-18T06:05:13Z</time>
      </trkpt>
      <trkpt lat="43.46656" lon="1.64952">
        <ele>179.2</ele>
        <time>2015-07-18T06:05:18Z</time>
      </trkpt>
      <trkpt lat="43.46673" lon="1.64974">
        <ele>179.8</ele>
        <time>2015-07-18T06:05:23Z</time>
      </trkpt>
      <trkpt lat="43.46675" lon="1.64978">
        <ele>179.9</ele>
        <time>2015-07-18T06:05:34Z</time>
      </trkpt>
      <trkpt lat="43.46696" lon="1.6505">
        <ele>181</ele>
        <time>2015-07-18T06:05:41Z</time>
      </trkpt>
      <trkpt lat="43.46704" lon="1.65082">
        <ele>181.2</ele>
        <time>2015-07-18T06:05:46Z</time>
      </trkpt>
      <trkpt lat="43.46711" lon="1.65108">
        <ele>180.8</ele>
        <time>2015-07-18T06:05:51Z</time>
      </trkpt>
      <trkpt lat="43.46717" lon="1.65135">
        <ele>181.1</ele>
        <time>2015-07-18T06:05:58Z</time>
      </trkpt>
      <trkpt lat="43.46722" lon="1.65156">
        <ele>181.1</ele>
        <time>2015-07-18T06:06:03Z</time>
      </trkpt>
      <trkpt lat="43.4673" lon="1.65193">
        <ele>180.6</ele>
        <time>2015-07-18T06:06:08Z</time>
      </trkpt>
      <trkpt lat="43.46736" lon="1.6523">
        <ele>181.1</ele>
        <time>2015-07-18T06:06:15Z</time>
      </trkpt>
      <trkpt lat="43.46739" lon="1.65263">
        <ele>180.6</ele>
        <time>2015-07-18T06:06:21Z</time>
      </trkpt>
      <trkpt lat="43.46741" lon="1.6529">
        <ele>180.6</ele>
        <time>2015-07-18T06:06:27Z</time>
      </trkpt>
      <trkpt lat="43.46741" lon="1.65327">
        <ele>181.3</ele>
        <time>2015-07-18T06:06:33Z</time>
      </trkpt>
      <trkpt lat="43.46748" lon="1.65368">
        <ele>181.8</ele>
        <time>2015-07-18T06:06:41Z</time>
      </trkpt>
      <trkpt lat="43.46755" lon="1.65392">
        <ele>183.5</ele>
        <time>2015-07-18T06:06:47Z</time>
      </trkpt>
      <trkpt lat="43.46761" lon="1.65417">
        <ele>183.4</ele>
        <time>2015-07-18T06:06:53Z</time>
      </trkpt>
      <trkpt lat="43.46764" lon="1.65431">
        <ele>183.9</ele>
        <time>2015-07-18T06:06:58Z</time>
      </trkpt>
      <trkpt lat="43.46747" lon="1.6544">
        <ele>183.3</ele>
        <time>2015-07-18T06:07:04Z</time>
      </trkpt>
      <trkpt lat="43.46742" lon="1.65534">
        <ele>182.4</ele>
        <time>2015-07-18T06:07:18Z</time>
      </trkpt>
      <trkpt lat="43.46743" lon="1.65574">
        <ele>183.9</ele>
        <time>2015-07-18T06:07:24Z</time>
      </trkpt>
      <trkpt lat="43.46743" lon="1.65588">
        <ele>183.6</ele>
        <time>2015-07-18T06:07:33Z</time>
      </trkpt>
      <trkpt lat="43.46744" lon="1.65672">
        <ele>183.4</ele>
        <time>2015-07-18T06:07:40Z</time>
      </trkpt>
      <trkpt lat="43.46744" lon="1.65719">
        <ele>183.6</ele>
        <time>2015-07-18T06:07:45Z</time>
      </trkpt>
      <trkpt lat="43.46738" lon="1.65757">
        <ele>183.9</ele>
        <time>2015-07-18T06:07:51Z</time>
      </trkpt>
      <trkpt lat="43.46735" lon="1.6579">
        <ele>183.8</ele>
        <time>2015-07-18T06:07:56Z</time>
      </trkpt>
      <trkpt lat="43.46746" lon="1.65819">
        <ele>183.7</ele>
        <time>2015-07-18T06:08:02Z</time>
      </trkpt>
      <trkpt lat="43.46764" lon="1.65851">
        <ele>184.2</ele>
        <time>2015-07-18T06:08:08Z</time>
      </trkpt>
      <trkpt lat="43.46786" lon="1.65887">
        <ele>184.4</ele>
        <time>2015-07-18T06:08:16Z</time>
      </trkpt>
      <trkpt lat="43.46806" lon="1.65927">
        <ele>184.4</ele>
        <time>2015-07-18T06:08:22Z</time>
      </trkpt>
      <trkpt lat="43.4682" lon="1.65955">
        <ele>184.3</ele>
        <time>2015-07-18T06:08:27Z</time>
      </trkpt>
      <trkpt lat="43.46833" lon="1.65985">
        <ele>184.3</ele>
        <time>2015-07-18T06:08:33Z</time>
      </trkpt>
      <trkpt lat="43.46847" lon="1.66023">
        <ele>184</ele>
        <time>2015-07-18T06:08:38Z</time>
      </trkpt>
      <trkpt lat="43.46857" lon="1.66062">
        <ele>184.2</ele>
        <time>2015-07-18T06:08:44Z</time>
      </trkpt>
      <trkpt lat="43.46862" lon="1.66096">
        <ele>184.2</ele>
        <time>2015-07-18T06:08:49Z</time>
      </trkpt>
      <trkpt lat="43.46862" lon="1.66137">
        <ele>184.4</ele>
        <time>2015-07-18T06:08:54Z</time>
      </trkpt>
      <trkpt lat="43.4686" lon="1.66172">
        <ele>184.4</ele>
        <time>2015-07-18T06:09:00Z</time>
      </trkpt>
      <trkpt lat="43.46859" lon="1.66213">
        <ele>184.9</ele>
        <time>2015-07-18T06:09:06Z</time>
      </trkpt>
      <trkpt lat="43.46863" lon="1.66254">
        <ele>184.9</ele>
        <time>2015-07-18T06:09:13Z</time>
      </trkpt>
      <trkpt lat="43.46871" lon="1.66297">
        <ele>185.7</ele>
        <time>2015-07-18T06:09:18Z</time>
      </trkpt>
      <trkpt lat="43.46876" lon="1.66329">
        <ele>186.3</ele>
        <time>2015-07-18T06:09:24Z</time>
      </trkpt>
      <trkpt lat="43.46883" lon="1.66359">
        <ele>186.3</ele>
        <time>2015-07-18T06:09:30Z</time>
      </trkpt>
      <trkpt lat="43.46895" lon="1.6639">
        <ele>188.2</ele>
        <time>2015-07-18T06:09:36Z</time>
      </trkpt>
      <trkpt lat="43.46912" lon="1.66418">
        <ele>189.7</ele>
        <time>2015-07-18T06:09:41Z</time>
      </trkpt>
      <trkpt lat="43.46926" lon="1.66442">
        <ele>190.9</ele>
        <time>2015-07-18T06:09:46Z</time>
      </trkpt>
      <trkpt lat="43.46943" lon="1.6647">
        <ele>191.4</ele>
        <time>2015-07-18T06:09:51Z</time>
      </trkpt>
      <trkpt lat="43.46957" lon="1.66494">
        <ele>192.3</ele>
        <time>2015-07-18T06:09:56Z</time>
      </trkpt>
      <trkpt lat="43.46969" lon="1.66514">
        <ele>192.5</ele>
        <time>2015-07-18T06:10:03Z</time>
      </trkpt>
      <trkpt lat="43.46991" lon="1.66555">
        <ele>192.3</ele>
        <time>2015-07-18T06:10:09Z</time>
      </trkpt>
      <trkpt lat="43.47005" lon="1.66579">
        <ele>192.5</ele>
        <time>2015-07-18T06:10:14Z</time>
      </trkpt>
      <trkpt lat="43.47033" lon="1.66628">
        <ele>192.2</ele>
        <time>2015-07-18T06:10:34Z</time>
      </trkpt>
      <trkpt lat="43.47073" lon="1.66693">
        <ele>190.9</ele>
        <time>2015-07-18T06:10:40Z</time>
      </trkpt>
      <trkpt lat="43.47092" lon="1.66731">
        <ele>190.2</ele>
        <time>2015-07-18T06:10:46Z</time>
      </trkpt>
      <trkpt lat="43.471" lon="1.66762">
        <ele>190.3</ele>
        <time>2015-07-18T06:10:51Z</time>
      </trkpt>
      <trkpt lat="43.47107" lon="1.66799">
        <ele>191.1</ele>
        <time>2015-07-18T06:10:56Z</time>
      </trkpt>
      <trkpt lat="43.47111" lon="1.6683">
        <ele>192.6</ele>
        <time>2015-07-18T06:11:02Z</time>
      </trkpt>
      <trkpt lat="43.47116" lon="1.66868">
        <ele>192.7</ele>
        <time>2015-07-18T06:11:08Z</time>
      </trkpt>
      <trkpt lat="43.47119" lon="1.66887">
        <ele>192.7</ele>
        <time>2015-07-18T06:11:13Z</time>
      </trkpt>
      <trkpt lat="43.47125" lon="1.66936">
        <ele>194.1</ele>
        <time>2015-07-18T06:11:19Z</time>
      </trkpt>
      <trkpt lat="43.4713" lon="1.66973">
        <ele>193.8</ele>
        <time>2015-07-18T06:11:24Z</time>
      </trkpt>
      <trkpt lat="43.47135" lon="1.6701">
        <ele>195</ele>
        <time>2015-07-18T06:11:32Z</time>
      </trkpt>
      <trkpt lat="43.47141" lon="1.67052">
        <ele>195.1</ele>
        <time>2015-07-18T06:11:38Z</time>
      </trkpt>
      <trkpt lat="43.47146" lon="1.67083">
        <ele>194.8</ele>
        <time>2015-07-18T06:11:43Z</time>
      </trkpt>
      <trkpt lat="43.4715" lon="1.67113">
        <ele>195</ele>
        <time>2015-07-18T06:11:48Z</time>
      </trkpt>
      <trkpt lat="43.47154" lon="1.67136">
        <ele>196.6</ele>
        <time>2015-07-18T06:11:53Z</time>
      </trkpt>
      <trkpt lat="43.47151" lon="1.67161">
        <ele>197.2</ele>
        <time>2015-07-18T06:11:59Z</time>
      </trkpt>
      <trkpt lat="43.47148" lon="1.67198">
        <ele>196.8</ele>
        <time>2015-07-18T06:12:06Z</time>
      </trkpt>
      <trkpt lat="43.47145" lon="1.67244">
        <ele>197.1</ele>
        <time>2015-07-18T06:12:11Z</time>
      </trkpt>
      <trkpt lat="43.47146" lon="1.67269">
        <ele>197.4</ele>
        <time>2015-07-18T06:12:18Z</time>
      </trkpt>
      <trkpt lat="43.47151" lon="1.67315">
        <ele>197</ele>
        <time>2015-07-18T06:12:23Z</time>
      </trkpt>
      <trkpt lat="43.47157" lon="1.67355">
        <ele>197.1</ele>
        <time>2015-07-18T06:12:29Z</time>
      </trkpt>
      <trkpt lat="43.47163" lon="1.67395">
        <ele>197.5</ele>
        <time>2015-07-18T06:12:34Z</time>
      </trkpt>
      <trkpt lat="43.47168" lon="1.67429">
        <ele>197.4</ele>
        <time>2015-07-18T06:12:40Z</time>
      </trkpt>
      <trkpt lat="43.47177" lon="1.67483">
        <ele>196.3</ele>
        <time>2015-07-18T06:12:53Z</time>
      </trkpt>
      <trkpt lat="43.47186" lon="1.67557">
        <ele>198.1</ele>
        <time>2015-07-18T06:12:59Z</time>
      </trkpt>
      <trkpt lat="43.4719" lon="1.67592">
        <ele>197.7</ele>
        <time>2015-07-18T06:13:05Z</time>
      </trkpt>
      <trkpt lat="43.47196" lon="1.67631">
        <ele>199.3</ele>
        <time>2015-07-18T06:13:10Z</time>
      </trkpt>
      <trkpt lat="43.47201" lon="1.67663">
        <ele>199</ele>
        <time>2015-07-18T06:13:16Z</time>
      </trkpt>
      <trkpt lat="43.47207" lon="1.67711">
        <ele>198.8</ele>
        <time>2015-07-18T06:13:22Z</time>
      </trkpt>
      <trkpt lat="43.47212" lon="1.67753">
        <ele>199.6</ele>
        <time>2015-07-18T06:13:28Z</time>
      </trkpt>
      <trkpt lat="43.47217" lon="1.67793">
        <ele>201.3</ele>
        <time>2015-07-18T06:13:33Z</time>
      </trkpt>
      <trkpt lat="43.47225" lon="1.67833">
        <ele>201.7</ele>
        <time>2015-07-18T06:13:40Z</time>
      </trkpt>
      <trkpt lat="43.47242" lon="1.67876">
        <ele>200.6</ele>
        <time>2015-07-18T06:13:45Z</time>
      </trkpt>
      <trkpt lat="43.47255" lon="1.67902">
        <ele>200.5</ele>
        <time>2015-07-18T06:13:51Z</time>
      </trkpt>
      <trkpt lat="43.4727" lon="1.67934">
        <ele>202.4</ele>
        <time>2015-07-18T06:13:56Z</time>
      </trkpt>
      <trkpt lat="43.47288" lon="1.67998">
        <ele>202.1</ele>
        <time>2015-07-18T06:14:07Z</time>
      </trkpt>
      <trkpt lat="43.47286" lon="1.68038">
        <ele>202.3</ele>
        <time>2015-07-18T06:14:13Z</time>
      </trkpt>
      <trkpt lat="43.47284" lon="1.6807">
        <ele>202</ele>
        <time>2015-07-18T06:14:18Z</time>
      </trkpt>
      <trkpt lat="43.47284" lon="1.68108">
        <ele>201.6</ele>
        <time>2015-07-18T06:14:24Z</time>
      </trkpt>
      <trkpt lat="43.47286" lon="1.68145">
        <ele>201.1</ele>
        <time>2015-07-18T06:14:29Z</time>
      </trkpt>
      <trkpt lat="43.47294" lon="1.68177">
        <ele>200.2</ele>
        <time>2015-07-18T06:14:36Z</time>
      </trkpt>
      <trkpt lat="43.47307" lon="1.68214">
        <ele>199.6</ele>
        <time>2015-07-18T06:14:41Z</time>
      </trkpt>
      <trkpt lat="43.47315" lon="1.68246">
        <ele>199.2</ele>
        <time>2015-07-18T06:14:46Z</time>
      </trkpt>
      <trkpt lat="43.47323" lon="1.6828">
        <ele>199.3</ele>
        <time>2015-07-18T06:14:51Z</time>
      </trkpt>
      <trkpt lat="43.47331" lon="1.68302">
        <ele>199.4</ele>
        <time>2015-07-18T06:14:57Z</time>
      </trkpt>
      <trkpt lat="43.47343" lon="1.68328">
        <ele>199.4</ele>
        <time>2015-07-18T06:15:02Z</time>
      </trkpt>
      <trkpt lat="43.47353" lon="1.68353">
        <ele>199.1</ele>
        <time>2015-07-18T06:15:08Z</time>
      </trkpt>
      <trkpt lat="43.47367" lon="1.68385">
        <ele>198.9</ele>
        <time>2015-07-18T06:15:14Z</time>
      </trkpt>
      <trkpt lat="43.4738" lon="1.68418">
        <ele>198.7</ele>
        <time>2015-07-18T06:15:20Z</time>
      </trkpt>
      <trkpt lat="43.47388" lon="1.68441">
        <ele>198.4</ele>
        <time>2015-07-18T06:15:25Z</time>
      </trkpt>
      <trkpt lat="43.47404" lon="1.68475">
        <ele>198.2</ele>
        <time>2015-07-18T06:15:31Z</time>
      </trkpt>
      <trkpt lat="43.47416" lon="1.68502">
        <ele>198.1</ele>
        <time>2015-07-18T06:15:37Z</time>
      </trkpt>
      <trkpt lat="43.47423" lon="1.68524">
        <ele>198</ele>
        <time>2015-07-18T06:15:45Z</time>
      </trkpt>
      <trkpt lat="43.47424" lon="1.68567">
        <ele>198.7</ele>
        <time>2015-07-18T06:15:57Z</time>
      </trkpt>
      <trkpt lat="43.47415" lon="1.68634">
        <ele>199.5</ele>
        <time>2015-07-18T06:16:02Z</time>
      </trkpt>
      <trkpt lat="43.47411" lon="1.68661">
        <ele>200</ele>
        <time>2015-07-18T06:16:08Z</time>
      </trkpt>
      <trkpt lat="43.47407" lon="1.68692">
        <ele>200.2</ele>
        <time>2015-07-18T06:16:13Z</time>
      </trkpt>
      <trkpt lat="43.47404" lon="1.68717">
        <ele>200.7</ele>
        <time>2015-07-18T06:16:19Z</time>
      </trkpt>
      <trkpt lat="43.47402" lon="1.68734">
        <ele>201</ele>
        <time>2015-07-18T06:16:24Z</time>
      </trkpt>
      <trkpt lat="43.47398" lon="1.68758">
        <ele>201.5</ele>
        <time>2015-07-18T06:16:30Z</time>
      </trkpt>
      <trkpt lat="43.47393" lon="1.68786">
        <ele>202.3</ele>
        <time>2015-07-18T06:16:35Z</time>
      </trkpt>
      <trkpt lat="43.47388" lon="1.68819">
        <ele>203.9</ele>
        <time>2015-07-18T06:16:41Z</time>
      </trkpt>
      <trkpt lat="43.4738" lon="1.68852">
        <ele>207.4</ele>
        <time>2015-07-18T06:16:47Z</time>
      </trkpt>
      <trkpt lat="43.47374" lon="1.68884">
        <ele>209.5</ele>
        <time>2015-07-18T06:16:52Z</time>
      </trkpt>
      <trkpt lat="43.47369" lon="1.68914">
        <ele>210.1</ele>
        <time>2015-07-18T06:16:58Z</time>
      </trkpt>
      <trkpt lat="43.47362" lon="1.68961">
        <ele>210.8</ele>
        <time>2015-07-18T06:17:03Z</time>
      </trkpt>
      <trkpt lat="43.47354" lon="1.69001">
        <ele>208.8</ele>
        <time>2015-07-18T06:17:10Z</time>
      </trkpt>
      <trkpt lat="43.47341" lon="1.69033">
        <ele>208.4</ele>
        <time>2015-07-18T06:17:16Z</time>
      </trkpt>
      <trkpt lat="43.47334" lon="1.69055">
        <ele>207.1</ele>
        <time>2015-07-18T06:17:21Z</time>
      </trkpt>
      <trkpt lat="43.47322" lon="1.69095">
        <ele>206.5</ele>
        <time>2015-07-18T06:17:27Z</time>
      </trkpt>
      <trkpt lat="43.47313" lon="1.69131">
        <ele>206.3</ele>
        <time>2015-07-18T06:17:33Z</time>
      </trkpt>
      <trkpt lat="43.47308" lon="1.69161">
        <ele>206.5</ele>
        <time>2015-07-18T06:17:38Z</time>
      </trkpt>
      <trkpt lat="43.47304" lon="1.69193">
        <ele>206.5</ele>
        <time>2015-07-18T06:17:44Z</time>
      </trkpt>
      <trkpt lat="43.47299" lon="1.6923">
        <ele>207.2</ele>
        <time>2015-07-18T06:17:50Z</time>
      </trkpt>
      <trkpt lat="43.47294" lon="1.69267">
        <ele>207.4</ele>
        <time>2015-07-18T06:17:55Z</time>
      </trkpt>
      <trkpt lat="43.47292" lon="1.69295">
        <ele>207.3</ele>
        <time>2015-07-18T06:18:00Z</time>
      </trkpt>
      <trkpt lat="43.47294" lon="1.69328">
        <ele>207.2</ele>
        <time>2015-07-18T06:18:05Z</time>
      </trkpt>
      <trkpt lat="43.47299" lon="1.69356">
        <ele>206.9</ele>
        <time>2015-07-18T06:18:11Z</time>
      </trkpt>
      <trkpt lat="43.47309" lon="1.69443">
        <ele>206.5</ele>
        <time>2015-07-18T06:18:27Z</time>
      </trkpt>
      <trkpt lat="43.47303" lon="1.69484">
        <ele>207.3</ele>
        <time>2015-07-18T06:18:32Z</time>
      </trkpt>
      <trkpt lat="43.473" lon="1.69508">
        <ele>207.2</ele>
        <time>2015-07-18T06:18:37Z</time>
      </trkpt>
      <trkpt lat="43.47298" lon="1.6952">
        <ele>207.2</ele>
        <time>2015-07-18T06:18:43Z</time>
      </trkpt>
      <trkpt lat="43.47298" lon="1.6952">
        <ele>207.4</ele>
        <time>2015-07-18T06:18:50Z</time>
      </trkpt>
      <trkpt lat="43.47298" lon="1.6952">
        <ele>207.4</ele>
        <time>2015-07-18T06:18:56Z</time>
      </trkpt>
      <trkpt lat="43.47298" lon="1.6952">
        <ele>207.4</ele>
        <time>2015-07-18T06:19:03Z</time>
      </trkpt>
      <trkpt lat="43.47298" lon="1.6952">
        <ele>207.4</ele>
        <time>2015-07-18T06:19:09Z</time>
      </trkpt>
      <trkpt lat="43.47298" lon="1.6952">
        <ele>207.4</ele>
        <time>2015-07-18T06:19:22Z</time>
      </trkpt>
      <trkpt lat="43.47298" lon="1.6952">
        <ele>207.4</ele>
        <time>2015-07-18T06:19:28Z</time>
      </trkpt>
      <trkpt lat="43.47298" lon="1.6952">
        <ele>207.4</ele>
        <time>2015-07-18T06:19:33Z</time>
      </trkpt>
      <trkpt lat="43.47298" lon="1.6952">
        <ele>207.4</ele>
        <time>2015-07-18T06:19:38Z</time>
      </trkpt>
      <trkpt lat="43.47298" lon="1.6952">
        <ele>207.4</ele>
        <time>2015-07-18T06:19:44Z</time>
      </trkpt>
      <trkpt lat="43.47299" lon="1.69519">
        <ele>205.7</ele>
        <time>2015-07-18T06:19:52Z</time>
      </trkpt>
      <trkpt lat="43.47299" lon="1.69519">
        <ele>205.7</ele>
        <time>2015-07-18T06:19:57Z</time>
      </trkpt>
      <trkpt lat="43.47299" lon="1.69519">
        <ele>205.7</ele>
        <time>2015-07-18T06:20:04Z</time>
      </trkpt>
      <trkpt lat="43.47299" lon="1.69519">
        <ele>205.7</ele>
        <time>2015-07-18T06:20:09Z</time>
      </trkpt>
      <trkpt lat="43.47299" lon="1.69519">
        <ele>205.7</ele>
        <time>2015-07-18T06:20:14Z</time>
      </trkpt>
      <trkpt lat="43.47299" lon="1.69519">
        <ele>205.7</ele>
        <time>2015-07-18T06:20:20Z</time>
      </trkpt>
      <trkpt lat="43.47299" lon="1.69519">
        <ele>205.7</ele>
        <time>2015-07-18T06:20:26Z</time>
      </trkpt>
      <trkpt lat="43.47299" lon="1.69519">
        <ele>205.7</ele>
        <time>2015-07-18T06:20:32Z</time>
      </trkpt>
      <trkpt lat="43.47298" lon="1.69521">
        <ele>205.9</ele>
        <time>2015-07-18T06:20:38Z</time>
      </trkpt>
      <trkpt lat="43.47298" lon="1.6952">
        <ele>205.9</ele>
        <time>2015-07-18T06:20:44Z</time>
      </trkpt>
      <trkpt lat="43.47298" lon="1.6952">
        <ele>205.9</ele>
        <time>2015-07-18T06:20:49Z</time>
      </trkpt>
      <trkpt lat="43.47298" lon="1.6952">
        <ele>205.9</ele>
        <time>2015-07-18T06:20:54Z</time>
      </trkpt>
      <trkpt lat="43.47298" lon="1.6952">
        <ele>205.9</ele>
        <time>2015-07-18T06:21:00Z</time>
      </trkpt>
      <trkpt lat="43.47298" lon="1.6952">
        <ele>205.9</ele>
        <time>2015-07-18T06:21:05Z</time>
      </trkpt>
      <trkpt lat="43.47298" lon="1.6952">
        <ele>205.9</ele>
        <time>2015-07-18T06:21:10Z</time>
      </trkpt>
      <trkpt lat="43.47298" lon="1.6952">
        <ele>205.9</ele>
        <time>2015-07-18T06:21:16Z</time>
      </trkpt>
      <trkpt lat="43.47298" lon="1.6952">
        <ele>205.9</ele>
        <time>2015-07-18T06:21:21Z</time>
      </trkpt>
      <trkpt lat="43.47298" lon="1.6952">
        <ele>205.9</ele>
        <time>2015-07-18T06:21:27Z</time>
      </trkpt>
      <trkpt lat="43.47298" lon="1.6952">
        <ele>205.9</ele>
        <time>2015-07-18T06:21:33Z</time>
      </trkpt>
      <trkpt lat="43.47298" lon="1.6952">
        <ele>205.9</ele>
        <time>2015-07-18T06:21:38Z</time>
      </trkpt>
      <trkpt lat="43.47298" lon="1.6952">
        <ele>205.9</ele>
        <time>2015-07-18T06:21:44Z</time>
      </trkpt>
      <trkpt lat="43.47298" lon="1.6952">
        <ele>205.9</ele>
        <time>2015-07-18T06:21:49Z</time>
      </trkpt>
      <trkpt lat="43.47298" lon="1.6952">
        <ele>205.9</ele>
        <time>2015-07-18T06:21:55Z</time>
      </trkpt>
      <trkpt lat="43.47298" lon="1.6952">
        <ele>205.9</ele>
        <time>2015-07-18T06:22:00Z</time>
      </trkpt>
      <trkpt lat="43.47298" lon="1.6952">
        <ele>205.9</ele>
        <time>2015-07-18T06:22:05Z</time>
      </trkpt>
      <trkpt lat="43.47298" lon="1.6952">
        <ele>205.9</ele>
        <time>2015-07-18T06:22:11Z</time>
      </trkpt>
      <trkpt lat="43.47298" lon="1.6952">
        <ele>205.9</ele>
        <time>2015-07-18T06:22:17Z</time>
      </trkpt>
      <trkpt lat="43.47298" lon="1.6952">
        <ele>205.9</ele>
        <time>2015-07-18T06:22:23Z</time>
      </trkpt>
      <trkpt lat="43.47298" lon="1.6952">
        <ele>205.9</ele>
        <time>2015-07-18T06:22:28Z</time>
      </trkpt>
      <trkpt lat="43.47298" lon="1.6952">
        <ele>205.9</ele>
        <time>2015-07-18T06:22:33Z</time>
      </trkpt>
      <trkpt lat="43.47298" lon="1.6952">
        <ele>205.9</ele>
        <time>2015-07-18T06:22:38Z</time>
      </trkpt>
      <trkpt lat="43.47298" lon="1.6952">
        <ele>205.9</ele>
        <time>2015-07-18T06:22:45Z</time>
      </trkpt>
      <trkpt lat="43.47298" lon="1.6952">
        <ele>205.9</ele>
        <time>2015-07-18T06:22:51Z</time>
      </trkpt>
      <trkpt lat="43.47298" lon="1.6952">
        <ele>205.9</ele>
        <time>2015-07-18T06:22:56Z</time>
      </trkpt>
      <trkpt lat="43.47298" lon="1.6952">
        <ele>205.9</ele>
        <time>2015-07-18T06:23:01Z</time>
      </trkpt>
      <trkpt lat="43.47298" lon="1.6952">
        <ele>205.9</ele>
        <time>2015-07-18T06:23:06Z</time>
      </trkpt>
      <trkpt lat="43.47298" lon="1.6952">
        <ele>205.9</ele>
        <time>2015-07-18T06:23:12Z</time>
      </trkpt>
      <trkpt lat="43.47298" lon="1.6952">
        <ele>205.9</ele>
        <time>2015-07-18T06:23:17Z</time>
      </trkpt>
      <trkpt lat="43.47298" lon="1.6952">
        <ele>205.9</ele>
        <time>2015-07-18T06:23:23Z</time>
      </trkpt>
      <trkpt lat="43.47298" lon="1.6952">
        <ele>205.9</ele>
        <time>2015-07-18T06:23:29Z</time>
      </trkpt>
      <trkpt lat="43.47298" lon="1.6952">
        <ele>205.9</ele>
        <time>2015-07-18T06:23:34Z</time>
      </trkpt>
      <trkpt lat="43.47298" lon="1.6952">
        <ele>205.9</ele>
        <time>2015-07-18T06:23:40Z</time>
      </trkpt>
      <trkpt lat="43.47298" lon="1.6952">
        <ele>205.9</ele>
        <time>2015-07-18T06:23:46Z</time>
      </trkpt>
      <trkpt lat="43.47298" lon="1.6952">
        <ele>205.9</ele>
        <time>2015-07-18T06:23:52Z</time>
      </trkpt>
      <trkpt lat="43.47298" lon="1.6952">
        <ele>205.9</ele>
        <time>2015-07-18T06:23:57Z</time>
      </trkpt>
      <trkpt lat="43.47298" lon="1.6952">
        <ele>205.9</ele>
        <time>2015-07-18T06:24:03Z</time>
      </trkpt>
      <trkpt lat="43.47298" lon="1.6952">
        <ele>205.9</ele>
        <time>2015-07-18T06:24:09Z</time>
      </trkpt>
      <trkpt lat="43.47298" lon="1.69533">
        <ele>204.8</ele>
        <time>2015-07-18T06:24:14Z</time>
      </trkpt>
      <trkpt lat="43.47295" lon="1.69553">
        <ele>204.5</ele>
        <time>2015-07-18T06:24:20Z</time>
      </trkpt>
      <trkpt lat="43.47292" lon="1.69575">
        <ele>204.6</ele>
        <time>2015-07-18T06:24:25Z</time>
      </trkpt>
      <trkpt lat="43.47289" lon="1.69609">
        <ele>204.4</ele>
        <time>2015-07-18T06:24:31Z</time>
      </trkpt>
      <trkpt lat="43.47286" lon="1.69645">
        <ele>204.2</ele>
        <time>2015-07-18T06:24:37Z</time>
      </trkpt>
      <trkpt lat="43.47286" lon="1.69674">
        <ele>203.9</ele>
        <time>2015-07-18T06:24:42Z</time>
      </trkpt>
      <trkpt lat="43.47286" lon="1.69703">
        <ele>205.7</ele>
        <time>2015-07-18T06:24:47Z</time>
      </trkpt>
      <trkpt lat="43.47286" lon="1.69738">
        <ele>206.1</ele>
        <time>2015-07-18T06:24:53Z</time>
      </trkpt>
      <trkpt lat="43.47286" lon="1.69753">
        <ele>206.4</ele>
        <time>2015-07-18T06:25:00Z</time>
      </trkpt>
      <trkpt lat="43.47291" lon="1.69811">
        <ele>208.9</ele>
        <time>2015-07-18T06:25:06Z</time>
      </trkpt>
      <trkpt lat="43.47294" lon="1.69838">
        <ele>209.9</ele>
        <time>2015-07-18T06:25:11Z</time>
      </trkpt>
      <trkpt lat="43.47297" lon="1.6986">
        <ele>210.8</ele>
        <time>2015-07-18T06:25:19Z</time>
      </trkpt>
      <trkpt lat="43.47302" lon="1.69914">
        <ele>213.9</ele>
        <time>2015-07-18T06:25:24Z</time>
      </trkpt>
      <trkpt lat="43.47305" lon="1.69933">
        <ele>215.6</ele>
        <time>2015-07-18T06:25:32Z</time>
      </trkpt>
      <trkpt lat="43.47307" lon="1.69967">
        <ele>218.9</ele>
        <time>2015-07-18T06:25:39Z</time>
      </trkpt>
      <trkpt lat="43.47308" lon="1.69998">
        <ele>221.5</ele>
        <time>2015-07-18T06:25:44Z</time>
      </trkpt>
      <trkpt lat="43.47311" lon="1.70027">
        <ele>223</ele>
        <time>2015-07-18T06:25:49Z</time>
      </trkpt>
      <trkpt lat="43.47312" lon="1.70059">
        <ele>224.6</ele>
        <time>2015-07-18T06:25:55Z</time>
      </trkpt>
      <trkpt lat="43.47312" lon="1.70084">
        <ele>226.4</ele>
        <time>2015-07-18T06:26:00Z</time>
      </trkpt>
      <trkpt lat="43.47314" lon="1.70122">
        <ele>228.3</ele>
        <time>2015-07-18T06:26:05Z</time>
      </trkpt>
      <trkpt lat="43.47318" lon="1.70157">
        <ele>229.4</ele>
        <time>2015-07-18T06:26:11Z</time>
      </trkpt>
      <trkpt lat="43.47324" lon="1.70195">
        <ele>230.4</ele>
        <time>2015-07-18T06:26:17Z</time>
      </trkpt>
      <trkpt lat="43.47323" lon="1.70231">
        <ele>231.7</ele>
        <time>2015-07-18T06:26:22Z</time>
      </trkpt>
      <trkpt lat="43.47323" lon="1.70263">
        <ele>233.2</ele>
        <time>2015-07-18T06:26:28Z</time>
      </trkpt>
      <trkpt lat="43.47322" lon="1.70296">
        <ele>233.9</ele>
        <time>2015-07-18T06:26:34Z</time>
      </trkpt>
      <trkpt lat="43.47317" lon="1.70338">
        <ele>234.8</ele>
        <time>2015-07-18T06:26:39Z</time>
      </trkpt>
      <trkpt lat="43.47311" lon="1.70366">
        <ele>233.9</ele>
        <time>2015-07-18T06:26:46Z</time>
      </trkpt>
      <trkpt lat="43.47302" lon="1.70403">
        <ele>232.3</ele>
        <time>2015-07-18T06:26:52Z</time>
      </trkpt>
      <trkpt lat="43.47292" lon="1.70432">
        <ele>230.1</ele>
        <time>2015-07-18T06:26:59Z</time>
      </trkpt>
      <trkpt lat="43.47286" lon="1.70456">
        <ele>227.7</ele>
        <time>2015-07-18T06:27:04Z</time>
      </trkpt>
      <trkpt lat="43.47283" lon="1.70482">
        <ele>225.6</ele>
        <time>2015-07-18T06:27:10Z</time>
      </trkpt>
      <trkpt lat="43.47279" lon="1.70515">
        <ele>224.2</ele>
        <time>2015-07-18T06:27:18Z</time>
      </trkpt>
      <trkpt lat="43.47278" lon="1.70545">
        <ele>223.5</ele>
        <time>2015-07-18T06:27:24Z</time>
      </trkpt>
      <trkpt lat="43.47275" lon="1.70571">
        <ele>223.9</ele>
        <time>2015-07-18T06:27:29Z</time>
      </trkpt>
      <trkpt lat="43.47275" lon="1.7059">
        <ele>224.9</ele>
        <time>2015-07-18T06:27:35Z</time>
      </trkpt>
      <trkpt lat="43.47273" lon="1.70612">
        <ele>225.8</ele>
        <time>2015-07-18T06:27:40Z</time>
      </trkpt>
      <trkpt lat="43.47272" lon="1.7064">
        <ele>225.8</ele>
        <time>2015-07-18T06:27:45Z</time>
      </trkpt>
      <trkpt lat="43.47271" lon="1.70663">
        <ele>225.6</ele>
        <time>2015-07-18T06:27:50Z</time>
      </trkpt>
      <trkpt lat="43.47269" lon="1.70688">
        <ele>225.7</ele>
        <time>2015-07-18T06:27:56Z</time>
      </trkpt>
      <trkpt lat="43.47269" lon="1.70702">
        <ele>226.3</ele>
        <time>2015-07-18T06:28:02Z</time>
      </trkpt>
      <trkpt lat="43.47266" lon="1.70721">
        <ele>226.7</ele>
        <time>2015-07-18T06:28:07Z</time>
      </trkpt>
      <trkpt lat="43.47265" lon="1.70737">
        <ele>226.6</ele>
        <time>2015-07-18T06:28:13Z</time>
      </trkpt>
      <trkpt lat="43.47264" lon="1.70766">
        <ele>225.7</ele>
        <time>2015-07-18T06:28:19Z</time>
      </trkpt>
      <trkpt lat="43.47262" lon="1.708">
        <ele>225.4</ele>
        <time>2015-07-18T06:28:24Z</time>
      </trkpt>
      <trkpt lat="43.47261" lon="1.70823">
        <ele>225.3</ele>
        <time>2015-07-18T06:28:29Z</time>
      </trkpt>
      <trkpt lat="43.47259" lon="1.70845">
        <ele>224.9</ele>
        <time>2015-07-18T06:28:35Z</time>
      </trkpt>
      <trkpt lat="43.47255" lon="1.70892">
        <ele>224.3</ele>
        <time>2015-07-18T06:28:45Z</time>
      </trkpt>
      <trkpt lat="43.47251" lon="1.70915">
        <ele>224.3</ele>
        <time>2015-07-18T06:28:50Z</time>
      </trkpt>
      <trkpt lat="43.47247" lon="1.70944">
        <ele>224.1</ele>
        <time>2015-07-18T06:28:55Z</time>
      </trkpt>
      <trkpt lat="43.47242" lon="1.70966">
        <ele>223.9</ele>
        <time>2015-07-18T06:29:03Z</time>
      </trkpt>
      <trkpt lat="43.47236" lon="1.70987">
        <ele>223.5</ele>
        <time>2015-07-18T06:29:09Z</time>
      </trkpt>
      <trkpt lat="43.47221" lon="1.71013">
        <ele>223.2</ele>
        <time>2015-07-18T06:29:14Z</time>
      </trkpt>
      <trkpt lat="43.47213" lon="1.71033">
        <ele>223.7</ele>
        <time>2015-07-18T06:29:20Z</time>
      </trkpt>
      <trkpt lat="43.47206" lon="1.71052">
        <ele>224.6</ele>
        <time>2015-07-18T06:29:25Z</time>
      </trkpt>
      <trkpt lat="43.47197" lon="1.71071">
        <ele>225.6</ele>
        <time>2015-07-18T06:29:31Z</time>
      </trkpt>
      <trkpt lat="43.47191" lon="1.71084">
        <ele>226.3</ele>
        <time>2015-07-18T06:29:37Z</time>
      </trkpt>
      <trkpt lat="43.47182" lon="1.71106">
        <ele>227.8</ele>
        <time>2015-07-18T06:29:43Z</time>
      </trkpt>
      <trkpt lat="43.47174" lon="1.71126">
        <ele>228.8</ele>
        <time>2015-07-18T06:29:49Z</time>
      </trkpt>
      <trkpt lat="43.47168" lon="1.71146">
        <ele>229.8</ele>
        <time>2015-07-18T06:29:55Z</time>
      </trkpt>
      <trkpt lat="43.47161" lon="1.71167">
        <ele>230.8</ele>
        <time>2015-07-18T06:30:00Z</time>
      </trkpt>
      <trkpt lat="43.47156" lon="1.71185">
        <ele>231.4</ele>
        <time>2015-07-18T06:30:06Z</time>
      </trkpt>
      <trkpt lat="43.47152" lon="1.71204">
        <ele>232.4</ele>
        <time>2015-07-18T06:30:18Z</time>
      </trkpt>
      <trkpt lat="43.4714" lon="1.71255">
        <ele>234.6</ele>
        <time>2015-07-18T06:30:24Z</time>
      </trkpt>
      <trkpt lat="43.47134" lon="1.71278">
        <ele>235.4</ele>
        <time>2015-07-18T06:30:30Z</time>
      </trkpt>
      <trkpt lat="43.4713" lon="1.71302">
        <ele>235.6</ele>
        <time>2015-07-18T06:30:35Z</time>
      </trkpt>
      <trkpt lat="43.47128" lon="1.7132">
        <ele>235.8</ele>
        <time>2015-07-18T06:30:41Z</time>
      </trkpt>
      <trkpt lat="43.47126" lon="1.71336">
        <ele>236.3</ele>
        <time>2015-07-18T06:30:46Z</time>
      </trkpt>
      <trkpt lat="43.47124" lon="1.71361">
        <ele>236.7</ele>
        <time>2015-07-18T06:30:52Z</time>
      </trkpt>
      <trkpt lat="43.47121" lon="1.71386">
        <ele>237</ele>
        <time>2015-07-18T06:30:57Z</time>
      </trkpt>
      <trkpt lat="43.47117" lon="1.71405">
        <ele>237.8</ele>
        <time>2015-07-18T06:31:03Z</time>
      </trkpt>
      <trkpt lat="43.47112" lon="1.71432">
        <ele>238.8</ele>
        <time>2015-07-18T06:31:10Z</time>
      </trkpt>
      <trkpt lat="43.47109" lon="1.7145">
        <ele>239.7</ele>
        <time>2015-07-18T06:31:16Z</time>
      </trkpt>
      <trkpt lat="43.47106" lon="1.71472">
        <ele>240</ele>
        <time>2015-07-18T06:31:22Z</time>
      </trkpt>
      <trkpt lat="43.47097" lon="1.71504">
        <ele>240.6</ele>
        <time>2015-07-18T06:31:31Z</time>
      </trkpt>
      <trkpt lat="43.4709" lon="1.71525">
        <ele>241</ele>
        <time>2015-07-18T06:31:37Z</time>
      </trkpt>
      <trkpt lat="43.47085" lon="1.71543">
        <ele>241.4</ele>
        <time>2015-07-18T06:31:43Z</time>
      </trkpt>
      <trkpt lat="43.47079" lon="1.71563">
        <ele>242.6</ele>
        <time>2015-07-18T06:31:49Z</time>
      </trkpt>
      <trkpt lat="43.47073" lon="1.71582">
        <ele>243.2</ele>
        <time>2015-07-18T06:31:55Z</time>
      </trkpt>
      <trkpt lat="43.47068" lon="1.71598">
        <ele>243.6</ele>
        <time>2015-07-18T06:32:00Z</time>
      </trkpt>
      <trkpt lat="43.47061" lon="1.71618">
        <ele>244.4</ele>
        <time>2015-07-18T06:32:06Z</time>
      </trkpt>
      <trkpt lat="43.47056" lon="1.71634">
        <ele>244.7</ele>
        <time>2015-07-18T06:32:11Z</time>
      </trkpt>
      <trkpt lat="43.47051" lon="1.7165">
        <ele>244.8</ele>
        <time>2015-07-18T06:32:16Z</time>
      </trkpt>
      <trkpt lat="43.47043" lon="1.7167">
        <ele>245.7</ele>
        <time>2015-07-18T06:32:23Z</time>
      </trkpt>
      <trkpt lat="43.47036" lon="1.71688">
        <ele>246.8</ele>
        <time>2015-07-18T06:32:28Z</time>
      </trkpt>
      <trkpt lat="43.47032" lon="1.71696">
        <ele>247.3</ele>
        <time>2015-07-18T06:32:34Z</time>
      </trkpt>
      <trkpt lat="43.4702" lon="1.7172">
        <ele>248.5</ele>
        <time>2015-07-18T06:32:39Z</time>
      </trkpt>
      <trkpt lat="43.47015" lon="1.71728">
        <ele>248.4</ele>
        <time>2015-07-18T06:32:45Z</time>
      </trkpt>
      <trkpt lat="43.47003" lon="1.71751">
        <ele>249</ele>
        <time>2015-07-18T06:32:51Z</time>
      </trkpt>
      <trkpt lat="43.46994" lon="1.71768">
        <ele>249.5</ele>
        <time>2015-07-18T06:32:57Z</time>
      </trkpt>
      <trkpt lat="43.46985" lon="1.71784">
        <ele>250</ele>
        <time>2015-07-18T06:33:03Z</time>
      </trkpt>
      <trkpt lat="43.46979" lon="1.71795">
        <ele>250.4</ele>
        <time>2015-07-18T06:33:09Z</time>
      </trkpt>
      <trkpt lat="43.46967" lon="1.71816">
        <ele>251.2</ele>
        <time>2015-07-18T06:33:14Z</time>
      </trkpt>
      <trkpt lat="43.46957" lon="1.7183">
        <ele>251.4</ele>
        <time>2015-07-18T06:33:21Z</time>
      </trkpt>
      <trkpt lat="43.46948" lon="1.71841">
        <ele>251.5</ele>
        <time>2015-07-18T06:33:26Z</time>
      </trkpt>
      <trkpt lat="43.46933" lon="1.7186">
        <ele>251.8</ele>
        <time>2015-07-18T06:33:34Z</time>
      </trkpt>
      <trkpt lat="43.46922" lon="1.71874">
        <ele>252.1</ele>
        <time>2015-07-18T06:33:40Z</time>
      </trkpt>
      <trkpt lat="43.46914" lon="1.71886">
        <ele>252.5</ele>
        <time>2015-07-18T06:33:45Z</time>
      </trkpt>
      <trkpt lat="43.46903" lon="1.71901">
        <ele>253.2</ele>
        <time>2015-07-18T06:33:51Z</time>
      </trkpt>
      <trkpt lat="43.46894" lon="1.71915">
        <ele>255.2</ele>
        <time>2015-07-18T06:33:56Z</time>
      </trkpt>
      <trkpt lat="43.46886" lon="1.71927">
        <ele>256.4</ele>
        <time>2015-07-18T06:34:02Z</time>
      </trkpt>
      <trkpt lat="43.46876" lon="1.71941">
        <ele>257.3</ele>
        <time>2015-07-18T06:34:08Z</time>
      </trkpt>
      <trkpt lat="43.46866" lon="1.71955">
        <ele>257.7</ele>
        <time>2015-07-18T06:34:13Z</time>
      </trkpt>
      <trkpt lat="43.46859" lon="1.71973">
        <ele>256.8</ele>
        <time>2015-07-18T06:34:19Z</time>
      </trkpt>
      <trkpt lat="43.46861" lon="1.7199">
        <ele>256.6</ele>
        <time>2015-07-18T06:34:31Z</time>
      </trkpt>
      <trkpt lat="43.46873" lon="1.72045">
        <ele>256.6</ele>
        <time>2015-07-18T06:34:36Z</time>
      </trkpt>
      <trkpt lat="43.46879" lon="1.72068">
        <ele>256.9</ele>
        <time>2015-07-18T06:34:42Z</time>
      </trkpt>
      <trkpt lat="43.46884" lon="1.72086">
        <ele>257.3</ele>
        <time>2015-07-18T06:34:48Z</time>
      </trkpt>
      <trkpt lat="43.46888" lon="1.72111">
        <ele>257.6</ele>
        <time>2015-07-18T06:34:55Z</time>
      </trkpt>
      <trkpt lat="43.46893" lon="1.72138">
        <ele>258.3</ele>
        <time>2015-07-18T06:35:01Z</time>
      </trkpt>
      <trkpt lat="43.46897" lon="1.72159">
        <ele>259.1</ele>
        <time>2015-07-18T06:35:06Z</time>
      </trkpt>
      <trkpt lat="43.46901" lon="1.72177">
        <ele>259.9</ele>
        <time>2015-07-18T06:35:12Z</time>
      </trkpt>
      <trkpt lat="43.46905" lon="1.72196">
        <ele>261.1</ele>
        <time>2015-07-18T06:35:17Z</time>
      </trkpt>
      <trkpt lat="43.46911" lon="1.72228">
        <ele>262.4</ele>
        <time>2015-07-18T06:35:27Z</time>
      </trkpt>
      <trkpt lat="43.46916" lon="1.72254">
        <ele>263.5</ele>
        <time>2015-07-18T06:35:33Z</time>
      </trkpt>
      <trkpt lat="43.4692" lon="1.72272">
        <ele>264</ele>
        <time>2015-07-18T06:35:38Z</time>
      </trkpt>
      <trkpt lat="43.46923" lon="1.72288">
        <ele>264.2</ele>
        <time>2015-07-18T06:35:43Z</time>
      </trkpt>
      <trkpt lat="43.46917" lon="1.72306">
        <ele>264.2</ele>
        <time>2015-07-18T06:35:49Z</time>
      </trkpt>
      <trkpt lat="43.46906" lon="1.72323">
        <ele>264.5</ele>
        <time>2015-07-18T06:35:54Z</time>
      </trkpt>
      <trkpt lat="43.46889" lon="1.72345">
        <ele>265.6</ele>
        <time>2015-07-18T06:35:59Z</time>
      </trkpt>
      <trkpt lat="43.46874" lon="1.7237">
        <ele>266.8</ele>
        <time>2015-07-18T06:36:05Z</time>
      </trkpt>
      <trkpt lat="43.46857" lon="1.72395">
        <ele>268.2</ele>
        <time>2015-07-18T06:36:11Z</time>
      </trkpt>
      <trkpt lat="43.46837" lon="1.72424">
        <ele>270</ele>
        <time>2015-07-18T06:36:17Z</time>
      </trkpt>
      <trkpt lat="43.46819" lon="1.72445">
        <ele>271.1</ele>
        <time>2015-07-18T06:36:23Z</time>
      </trkpt>
      <trkpt lat="43.46793" lon="1.72469">
        <ele>272</ele>
        <time>2015-07-18T06:36:29Z</time>
      </trkpt>
      <trkpt lat="43.46759" lon="1.72493">
        <ele>272.8</ele>
        <time>2015-07-18T06:36:37Z</time>
      </trkpt>
      <trkpt lat="43.46722" lon="1.72512">
        <ele>271.9</ele>
        <time>2015-07-18T06:36:43Z</time>
      </trkpt>
      <trkpt lat="43.46677" lon="1.7253">
        <ele>269.1</ele>
        <time>2015-07-18T06:36:48Z</time>
      </trkpt>
      <trkpt lat="43.46642" lon="1.72557">
        <ele>267.2</ele>
        <time>2015-07-18T06:36:54Z</time>
      </trkpt>
      <trkpt lat="43.46607" lon="1.72642">
        <ele>263.5</ele>
        <time>2015-07-18T06:37:02Z</time>
      </trkpt>
      <trkpt lat="43.46573" lon="1.72693">
        <ele>261.1</ele>
        <time>2015-07-18T06:37:08Z</time>
      </trkpt>
      <trkpt lat="43.4655" lon="1.72721">
        <ele>259.9</ele>
        <time>2015-07-18T06:37:15Z</time>
      </trkpt>
      <trkpt lat="43.46501" lon="1.72775">
        <ele>256.8</ele>
        <time>2015-07-18T06:37:20Z</time>
      </trkpt>
      <trkpt lat="43.4645" lon="1.72791">
        <ele>254.3</ele>
        <time>2015-07-18T06:37:26Z</time>
      </trkpt>
      <trkpt lat="43.46402" lon="1.72806">
        <ele>252.2</ele>
        <time>2015-07-18T06:37:32Z</time>
      </trkpt>
      <trkpt lat="43.46366" lon="1.72815">
        <ele>250.8</ele>
        <time>2015-07-18T06:37:38Z</time>
      </trkpt>
      <trkpt lat="43.46268" lon="1.72818">
        <ele>247</ele>
        <time>2015-07-18T06:37:50Z</time>
      </trkpt>
      <trkpt lat="43.46201" lon="1.72856">
        <ele>239.7</ele>
        <time>2015-07-18T06:37:56Z</time>
      </trkpt>
      <trkpt lat="43.46137" lon="1.72907">
        <ele>232.9</ele>
        <time>2015-07-18T06:38:02Z</time>
      </trkpt>
      <trkpt lat="43.46096" lon="1.7293">
        <ele>227.7</ele>
        <time>2015-07-18T06:38:07Z</time>
      </trkpt>
      <trkpt lat="43.46027" lon="1.72977">
        <ele>219.4</ele>
        <time>2015-07-18T06:38:12Z</time>
      </trkpt>
      <trkpt lat="43.45959" lon="1.73048">
        <ele>210.7</ele>
        <time>2015-07-18T06:38:21Z</time>
      </trkpt>
      <trkpt lat="43.4591" lon="1.73109">
        <ele>205.7</ele>
        <time>2015-07-18T06:38:27Z</time>
      </trkpt>
      <trkpt lat="43.45888" lon="1.73144">
        <ele>202.7</ele>
        <time>2015-07-18T06:38:33Z</time>
      </trkpt>
      <trkpt lat="43.45828" lon="1.73254">
        <ele>195.9</ele>
        <time>2015-07-18T06:38:39Z</time>
      </trkpt>
      <trkpt lat="43.45804" lon="1.7341">
        <ele>194.7</ele>
        <time>2015-07-18T06:38:53Z</time>
      </trkpt>
      <trkpt lat="43.45795" lon="1.73441">
        <ele>195.5</ele>
        <time>2015-07-18T06:38:59Z</time>
      </trkpt>
      <trkpt lat="43.4577" lon="1.73516">
        <ele>197.1</ele>
        <time>2015-07-18T06:39:10Z</time>
      </trkpt>
      <trkpt lat="43.45754" lon="1.73557">
        <ele>197.8</ele>
        <time>2015-07-18T06:39:16Z</time>
      </trkpt>
      <trkpt lat="43.45742" lon="1.73597">
        <ele>198.2</ele>
        <time>2015-07-18T06:39:21Z</time>
      </trkpt>
      <trkpt lat="43.45729" lon="1.73634">
        <ele>199.1</ele>
        <time>2015-07-18T06:39:28Z</time>
      </trkpt>
      <trkpt lat="43.45717" lon="1.73672">
        <ele>200.7</ele>
        <time>2015-07-18T06:39:34Z</time>
      </trkpt>
      <trkpt lat="43.45708" lon="1.7371">
        <ele>200.6</ele>
        <time>2015-07-18T06:39:40Z</time>
      </trkpt>
      <trkpt lat="43.45699" lon="1.73746">
        <ele>201.7</ele>
        <time>2015-07-18T06:39:45Z</time>
      </trkpt>
      <trkpt lat="43.45693" lon="1.73787">
        <ele>202.2</ele>
        <time>2015-07-18T06:39:51Z</time>
      </trkpt>
      <trkpt lat="43.45683" lon="1.73821">
        <ele>202.5</ele>
        <time>2015-07-18T06:39:56Z</time>
      </trkpt>
      <trkpt lat="43.45674" lon="1.73851">
        <ele>203.9</ele>
        <time>2015-07-18T06:40:02Z</time>
      </trkpt>
      <trkpt lat="43.4566" lon="1.73877">
        <ele>206.5</ele>
        <time>2015-07-18T06:40:07Z</time>
      </trkpt>
      <trkpt lat="43.45652" lon="1.739">
        <ele>206.4</ele>
        <time>2015-07-18T06:40:13Z</time>
      </trkpt>
      <trkpt lat="43.45655" lon="1.73927">
        <ele>206.3</ele>
        <time>2015-07-18T06:40:19Z</time>
      </trkpt>
      <trkpt lat="43.4566" lon="1.73948">
        <ele>206.2</ele>
        <time>2015-07-18T06:40:24Z</time>
      </trkpt>
      <trkpt lat="43.45664" lon="1.73969">
        <ele>206.6</ele>
        <time>2015-07-18T06:40:31Z</time>
      </trkpt>
      <trkpt lat="43.45667" lon="1.73984">
        <ele>208.4</ele>
        <time>2015-07-18T06:40:36Z</time>
      </trkpt>
      <trkpt lat="43.45669" lon="1.74007">
        <ele>212.6</ele>
        <time>2015-07-18T06:40:42Z</time>
      </trkpt>
      <trkpt lat="43.4567" lon="1.7403">
        <ele>215</ele>
        <time>2015-07-18T06:40:48Z</time>
      </trkpt>
      <trkpt lat="43.45667" lon="1.74057">
        <ele>216.6</ele>
        <time>2015-07-18T06:40:55Z</time>
      </trkpt>
      <trkpt lat="43.45665" lon="1.74093">
        <ele>217.9</ele>
        <time>2015-07-18T06:41:01Z</time>
      </trkpt>
      <trkpt lat="43.45665" lon="1.74123">
        <ele>218.7</ele>
        <time>2015-07-18T06:41:06Z</time>
      </trkpt>
      <trkpt lat="43.45676" lon="1.74141">
        <ele>218.7</ele>
        <time>2015-07-18T06:41:11Z</time>
      </trkpt>
      <trkpt lat="43.45685" lon="1.74156">
        <ele>220.8</ele>
        <time>2015-07-18T06:41:17Z</time>
      </trkpt>
      <trkpt lat="43.45696" lon="1.74177">
        <ele>222.2</ele>
        <time>2015-07-18T06:41:25Z</time>
      </trkpt>
      <trkpt lat="43.45711" lon="1.74203">
        <ele>225</ele>
        <time>2015-07-18T06:41:30Z</time>
      </trkpt>
      <trkpt lat="43.45721" lon="1.74221">
        <ele>226</ele>
        <time>2015-07-18T06:41:36Z</time>
      </trkpt>
      <trkpt lat="43.45725" lon="1.7423">
        <ele>227.3</ele>
        <time>2015-07-18T06:41:41Z</time>
      </trkpt>
      <trkpt lat="43.45725" lon="1.74257">
        <ele>228.7</ele>
        <time>2015-07-18T06:41:46Z</time>
      </trkpt>
      <trkpt lat="43.45716" lon="1.74285">
        <ele>227.2</ele>
        <time>2015-07-18T06:41:52Z</time>
      </trkpt>
      <trkpt lat="43.45699" lon="1.74326">
        <ele>226.4</ele>
        <time>2015-07-18T06:41:57Z</time>
      </trkpt>
      <trkpt lat="43.45677" lon="1.74379">
        <ele>226.4</ele>
        <time>2015-07-18T06:42:05Z</time>
      </trkpt>
      <trkpt lat="43.45656" lon="1.74431">
        <ele>222.1</ele>
        <time>2015-07-18T06:42:11Z</time>
      </trkpt>
      <trkpt lat="43.45641" lon="1.74479">
        <ele>219.6</ele>
        <time>2015-07-18T06:42:17Z</time>
      </trkpt>
      <trkpt lat="43.45625" lon="1.74525">
        <ele>214.8</ele>
        <time>2015-07-18T06:42:22Z</time>
      </trkpt>
      <trkpt lat="43.45611" lon="1.74571">
        <ele>210.6</ele>
        <time>2015-07-18T06:42:27Z</time>
      </trkpt>
      <trkpt lat="43.45592" lon="1.74631">
        <ele>205.7</ele>
        <time>2015-07-18T06:42:33Z</time>
      </trkpt>
      <trkpt lat="43.45578" lon="1.74674">
        <ele>203.1</ele>
        <time>2015-07-18T06:42:39Z</time>
      </trkpt>
      <trkpt lat="43.45554" lon="1.74752">
        <ele>197.6</ele>
        <time>2015-07-18T06:42:44Z</time>
      </trkpt>
      <trkpt lat="43.45533" lon="1.7482">
        <ele>194</ele>
        <time>2015-07-18T06:42:49Z</time>
      </trkpt>
      <trkpt lat="43.45518" lon="1.74875">
        <ele>194.3</ele>
        <time>2015-07-18T06:42:55Z</time>
      </trkpt>
      <trkpt lat="43.455" lon="1.74933">
        <ele>194.2</ele>
        <time>2015-07-18T06:43:01Z</time>
      </trkpt>
      <trkpt lat="43.45485" lon="1.74985">
        <ele>194</ele>
        <time>2015-07-18T06:43:07Z</time>
      </trkpt>
      <trkpt lat="43.45454" lon="1.75094">
        <ele>194.1</ele>
        <time>2015-07-18T06:43:20Z</time>
      </trkpt>
      <trkpt lat="43.45442" lon="1.75141">
        <ele>194.6</ele>
        <time>2015-07-18T06:43:26Z</time>
      </trkpt>
      <trkpt lat="43.4543" lon="1.75188">
        <ele>195</ele>
        <time>2015-07-18T06:43:32Z</time>
      </trkpt>
      <trkpt lat="43.45422" lon="1.75228">
        <ele>195.3</ele>
        <time>2015-07-18T06:43:38Z</time>
      </trkpt>
      <trkpt lat="43.4541" lon="1.75275">
        <ele>195.6</ele>
        <time>2015-07-18T06:43:43Z</time>
      </trkpt>
      <trkpt lat="43.45398" lon="1.75322">
        <ele>195.8</ele>
        <time>2015-07-18T06:43:48Z</time>
      </trkpt>
      <trkpt lat="43.45385" lon="1.75376">
        <ele>196.5</ele>
        <time>2015-07-18T06:43:56Z</time>
      </trkpt>
      <trkpt lat="43.45371" lon="1.75417">
        <ele>197.1</ele>
        <time>2015-07-18T06:44:02Z</time>
      </trkpt>
      <trkpt lat="43.45361" lon="1.75453">
        <ele>197.7</ele>
        <time>2015-07-18T06:44:08Z</time>
      </trkpt>
      <trkpt lat="43.45349" lon="1.75497">
        <ele>198.6</ele>
        <time>2015-07-18T06:44:13Z</time>
      </trkpt>
      <trkpt lat="43.45337" lon="1.75539">
        <ele>199.6</ele>
        <time>2015-07-18T06:44:19Z</time>
      </trkpt>
      <trkpt lat="43.45328" lon="1.7558">
        <ele>201.3</ele>
        <time>2015-07-18T06:44:24Z</time>
      </trkpt>
      <trkpt lat="43.45318" lon="1.75613">
        <ele>203.2</ele>
        <time>2015-07-18T06:44:30Z</time>
      </trkpt>
      <trkpt lat="43.45309" lon="1.7565">
        <ele>204.3</ele>
        <time>2015-07-18T06:44:35Z</time>
      </trkpt>
      <trkpt lat="43.45295" lon="1.75688">
        <ele>204.8</ele>
        <time>2015-07-18T06:44:40Z</time>
      </trkpt>
      <trkpt lat="43.45276" lon="1.75747">
        <ele>204.1</ele>
        <time>2015-07-18T06:44:45Z</time>
      </trkpt>
      <trkpt lat="43.45268" lon="1.75794">
        <ele>200.8</ele>
        <time>2015-07-18T06:44:50Z</time>
      </trkpt>
      <trkpt lat="43.45263" lon="1.75838">
        <ele>199</ele>
        <time>2015-07-18T06:44:59Z</time>
      </trkpt>
      <trkpt lat="43.4527" lon="1.75897">
        <ele>197.2</ele>
        <time>2015-07-18T06:45:05Z</time>
      </trkpt>
      <trkpt lat="43.45264" lon="1.75967">
        <ele>196</ele>
        <time>2015-07-18T06:45:10Z</time>
      </trkpt>
      <trkpt lat="43.45254" lon="1.76008">
        <ele>195.7</ele>
        <time>2015-07-18T06:45:16Z</time>
      </trkpt>
      <trkpt lat="43.45242" lon="1.76056">
        <ele>195.3</ele>
        <time>2015-07-18T06:45:21Z</time>
      </trkpt>
      <trkpt lat="43.45222" lon="1.76136">
        <ele>195.6</ele>
        <time>2015-07-18T06:45:34Z</time>
      </trkpt>
      <trkpt lat="43.4521" lon="1.76157">
        <ele>196.6</ele>
        <time>2015-07-18T06:45:39Z</time>
      </trkpt>
      <trkpt lat="43.45192" lon="1.76163">
        <ele>196.9</ele>
        <time>2015-07-18T06:45:45Z</time>
      </trkpt>
      <trkpt lat="43.45171" lon="1.76193">
        <ele>196.4</ele>
        <time>2015-07-18T06:45:51Z</time>
      </trkpt>
      <trkpt lat="43.4516" lon="1.7623">
        <ele>196.6</ele>
        <time>2015-07-18T06:45:57Z</time>
      </trkpt>
      <trkpt lat="43.4515" lon="1.76275">
        <ele>196.2</ele>
        <time>2015-07-18T06:46:02Z</time>
      </trkpt>
      <trkpt lat="43.45139" lon="1.7632">
        <ele>195.9</ele>
        <time>2015-07-18T06:46:07Z</time>
      </trkpt>
      <trkpt lat="43.45132" lon="1.76356">
        <ele>196.1</ele>
        <time>2015-07-18T06:46:13Z</time>
      </trkpt>
      <trkpt lat="43.45123" lon="1.76411">
        <ele>196.5</ele>
        <time>2015-07-18T06:46:21Z</time>
      </trkpt>
      <trkpt lat="43.45127" lon="1.76448">
        <ele>196.9</ele>
        <time>2015-07-18T06:46:26Z</time>
      </trkpt>
      <trkpt lat="43.45132" lon="1.76456">
        <ele>197.7</ele>
        <time>2015-07-18T06:46:36Z</time>
      </trkpt>
      <trkpt lat="43.45172" lon="1.76492">
        <ele>200.8</ele>
        <time>2015-07-18T06:46:43Z</time>
      </trkpt>
      <trkpt lat="43.45191" lon="1.76507">
        <ele>204.3</ele>
        <time>2015-07-18T06:46:48Z</time>
      </trkpt>
      <trkpt lat="43.452" lon="1.76516">
        <ele>206.9</ele>
        <time>2015-07-18T06:46:54Z</time>
      </trkpt>
      <trkpt lat="43.45207" lon="1.76529">
        <ele>209.5</ele>
        <time>2015-07-18T06:47:00Z</time>
      </trkpt>
      <trkpt lat="43.45208" lon="1.76544">
        <ele>211.8</ele>
        <time>2015-07-18T06:47:07Z</time>
      </trkpt>
      <trkpt lat="43.45209" lon="1.76556">
        <ele>215.2</ele>
        <time>2015-07-18T06:47:13Z</time>
      </trkpt>
      <trkpt lat="43.45209" lon="1.76565">
        <ele>218.1</ele>
        <time>2015-07-18T06:47:21Z</time>
      </trkpt>
      <trkpt lat="43.45211" lon="1.76568">
        <ele>222.1</ele>
        <time>2015-07-18T06:47:27Z</time>
      </trkpt>
      <trkpt lat="43.45209" lon="1.76574">
        <ele>222.3</ele>
        <time>2015-07-18T06:47:35Z</time>
      </trkpt>
      <trkpt lat="43.4521" lon="1.76604">
        <ele>224.5</ele>
        <time>2015-07-18T06:47:45Z</time>
      </trkpt>
      <trkpt lat="43.4521" lon="1.76615">
        <ele>225.8</ele>
        <time>2015-07-18T06:47:51Z</time>
      </trkpt>
      <trkpt lat="43.45213" lon="1.76625">
        <ele>226.6</ele>
        <time>2015-07-18T06:47:56Z</time>
      </trkpt>
      <trkpt lat="43.45216" lon="1.76631">
        <ele>227.8</ele>
        <time>2015-07-18T06:48:03Z</time>
      </trkpt>
      <trkpt lat="43.45222" lon="1.76643">
        <ele>229.2</ele>
        <time>2015-07-18T06:48:09Z</time>
      </trkpt>
      <trkpt lat="43.45226" lon="1.7665">
        <ele>230.6</ele>
        <time>2015-07-18T06:48:16Z</time>
      </trkpt>
      <trkpt lat="43.45233" lon="1.76662">
        <ele>231</ele>
        <time>2015-07-18T06:48:21Z</time>
      </trkpt>
      <trkpt lat="43.4524" lon="1.76674">
        <ele>230.6</ele>
        <time>2015-07-18T06:48:27Z</time>
      </trkpt>
      <trkpt lat="43.45248" lon="1.76687">
        <ele>230.4</ele>
        <time>2015-07-18T06:48:33Z</time>
      </trkpt>
      <trkpt lat="43.45256" lon="1.76702">
        <ele>230.2</ele>
        <time>2015-07-18T06:48:38Z</time>
      </trkpt>
      <trkpt lat="43.4526" lon="1.76709">
        <ele>230.1</ele>
        <time>2015-07-18T06:48:43Z</time>
      </trkpt>
      <trkpt lat="43.45275" lon="1.76744">
        <ele>230.3</ele>
        <time>2015-07-18T06:48:49Z</time>
      </trkpt>
      <trkpt lat="43.45279" lon="1.76763">
        <ele>230.3</ele>
        <time>2015-07-18T06:48:54Z</time>
      </trkpt>
      <trkpt lat="43.45281" lon="1.76783">
        <ele>230.2</ele>
        <time>2015-07-18T06:49:00Z</time>
      </trkpt>
      <trkpt lat="43.45286" lon="1.76801">
        <ele>230.5</ele>
        <time>2015-07-18T06:49:06Z</time>
      </trkpt>
      <trkpt lat="43.45295" lon="1.7685">
        <ele>231.8</ele>
        <time>2015-07-18T06:49:20Z</time>
      </trkpt>
      <trkpt lat="43.45298" lon="1.76872">
        <ele>232.1</ele>
        <time>2015-07-18T06:49:28Z</time>
      </trkpt>
      <trkpt lat="43.45297" lon="1.76891">
        <ele>232.1</ele>
        <time>2015-07-18T06:49:33Z</time>
      </trkpt>
      <trkpt lat="43.45291" lon="1.76918">
        <ele>232.1</ele>
        <time>2015-07-18T06:49:38Z</time>
      </trkpt>
      <trkpt lat="43.45285" lon="1.76941">
        <ele>233</ele>
        <time>2015-07-18T06:49:44Z</time>
      </trkpt>
      <trkpt lat="43.45281" lon="1.76962">
        <ele>234.1</ele>
        <time>2015-07-18T06:49:50Z</time>
      </trkpt>
      <trkpt lat="43.45282" lon="1.76978">
        <ele>235</ele>
        <time>2015-07-18T06:49:55Z</time>
      </trkpt>
      <trkpt lat="43.45283" lon="1.76989">
        <ele>235.6</ele>
        <time>2015-07-18T06:50:05Z</time>
      </trkpt>
      <trkpt lat="43.45283" lon="1.76989">
        <ele>235.6</ele>
        <time>2015-07-18T06:50:10Z</time>
      </trkpt>
      <trkpt lat="43.45283" lon="1.76989">
        <ele>235.6</ele>
        <time>2015-07-18T06:50:16Z</time>
      </trkpt>
      <trkpt lat="43.45283" lon="1.76989">
        <ele>235.6</ele>
        <time>2015-07-18T06:50:23Z</time>
      </trkpt>
      <trkpt lat="43.45283" lon="1.76989">
        <ele>235.6</ele>
        <time>2015-07-18T06:50:30Z</time>
      </trkpt>
      <trkpt lat="43.45283" lon="1.76989">
        <ele>235.6</ele>
        <time>2015-07-18T06:50:35Z</time>
      </trkpt>
      <trkpt lat="43.45283" lon="1.76989">
        <ele>235.6</ele>
        <time>2015-07-18T06:50:42Z</time>
      </trkpt>
      <trkpt lat="43.45283" lon="1.76989">
        <ele>235.6</ele>
        <time>2015-07-18T06:50:47Z</time>
      </trkpt>
      <trkpt lat="43.45283" lon="1.76989">
        <ele>235.6</ele>
        <time>2015-07-18T06:50:54Z</time>
      </trkpt>
      <trkpt lat="43.45283" lon="1.76989">
        <ele>235.6</ele>
        <time>2015-07-18T06:51:00Z</time>
      </trkpt>
      <trkpt lat="43.45283" lon="1.76989">
        <ele>235.6</ele>
        <time>2015-07-18T06:51:06Z</time>
      </trkpt>
      <trkpt lat="43.45283" lon="1.76989">
        <ele>235.6</ele>
        <time>2015-07-18T06:51:12Z</time>
      </trkpt>
      <trkpt lat="43.45283" lon="1.76989">
        <ele>235.6</ele>
        <time>2015-07-18T06:51:18Z</time>
      </trkpt>
      <trkpt lat="43.45283" lon="1.76989">
        <ele>235.6</ele>
        <time>2015-07-18T06:51:26Z</time>
      </trkpt>
      <trkpt lat="43.45283" lon="1.76989">
        <ele>235.6</ele>
        <time>2015-07-18T06:51:32Z</time>
      </trkpt>
      <trkpt lat="43.45283" lon="1.76989">
        <ele>235.6</ele>
        <time>2015-07-18T06:51:37Z</time>
      </trkpt>
      <trkpt lat="43.45283" lon="1.76989">
        <ele>235.6</ele>
        <time>2015-07-18T06:51:43Z</time>
      </trkpt>
      <trkpt lat="43.45283" lon="1.76989">
        <ele>235.6</ele>
        <time>2015-07-18T06:51:48Z</time>
      </trkpt>
      <trkpt lat="43.45279" lon="1.76986">
        <ele>237.9</ele>
        <time>2015-07-18T06:51:53Z</time>
      </trkpt>
      <trkpt lat="43.45279" lon="1.76986">
        <ele>237.8</ele>
        <time>2015-07-18T06:51:59Z</time>
      </trkpt>
      <trkpt lat="43.45279" lon="1.76986">
        <ele>237.8</ele>
        <time>2015-07-18T06:52:04Z</time>
      </trkpt>
      <trkpt lat="43.45279" lon="1.76986">
        <ele>237.8</ele>
        <time>2015-07-18T06:52:10Z</time>
      </trkpt>
      <trkpt lat="43.45276" lon="1.7699">
        <ele>237.5</ele>
        <time>2015-07-18T06:52:16Z</time>
      </trkpt>
      <trkpt lat="43.45272" lon="1.77003">
        <ele>237.7</ele>
        <time>2015-07-18T06:52:23Z</time>
      </trkpt>
      <trkpt lat="43.4525" lon="1.77096">
        <ele>239.9</ele>
        <time>2015-07-18T06:52:47Z</time>
      </trkpt>
      <trkpt lat="43.45243" lon="1.77112">
        <ele>240.5</ele>
        <time>2015-07-18T06:52:53Z</time>
      </trkpt>
      <trkpt lat="43.45231" lon="1.77129">
        <ele>241.2</ele>
        <time>2015-07-18T06:52:58Z</time>
      </trkpt>
      <trkpt lat="43.45219" lon="1.77141">
        <ele>240.2</ele>
        <time>2015-07-18T06:53:03Z</time>
      </trkpt>
      <trkpt lat="43.45185" lon="1.77173">
        <ele>235.9</ele>
        <time>2015-07-18T06:53:08Z</time>
      </trkpt>
      <trkpt lat="43.45147" lon="1.77202">
        <ele>231.2</ele>
        <time>2015-07-18T06:53:14Z</time>
      </trkpt>
      <trkpt lat="43.45103" lon="1.77243">
        <ele>227.7</ele>
        <time>2015-07-18T06:53:21Z</time>
      </trkpt>
      <trkpt lat="43.45059" lon="1.77286">
        <ele>224.7</ele>
        <time>2015-07-18T06:53:26Z</time>
      </trkpt>
      <trkpt lat="43.4502" lon="1.77324">
        <ele>222.1</ele>
        <time>2015-07-18T06:53:31Z</time>
      </trkpt>
      <trkpt lat="43.44976" lon="1.77371">
        <ele>220.4</ele>
        <time>2015-07-18T06:53:36Z</time>
      </trkpt>
      <trkpt lat="43.44942" lon="1.77411">
        <ele>217.9</ele>
        <time>2015-07-18T06:53:42Z</time>
      </trkpt>
      <trkpt lat="43.44908" lon="1.77468">
        <ele>213.6</ele>
        <time>2015-07-18T06:53:48Z</time>
      </trkpt>
      <trkpt lat="43.4488" lon="1.77527">
        <ele>208.1</ele>
        <time>2015-07-18T06:53:53Z</time>
      </trkpt>
      <trkpt lat="43.44858" lon="1.77609">
        <ele>201.2</ele>
        <time>2015-07-18T06:54:00Z</time>
      </trkpt>
      <trkpt lat="43.44841" lon="1.7769">
        <ele>200.1</ele>
        <time>2015-07-18T06:54:05Z</time>
      </trkpt>
      <trkpt lat="43.4483" lon="1.77735">
        <ele>200.3</ele>
        <time>2015-07-18T06:54:11Z</time>
      </trkpt>
      <trkpt lat="43.44819" lon="1.77785">
        <ele>199.8</ele>
        <time>2015-07-18T06:54:17Z</time>
      </trkpt>
      <trkpt lat="43.44806" lon="1.77855">
        <ele>199.5</ele>
        <time>2015-07-18T06:54:22Z</time>
      </trkpt>
      <trkpt lat="43.44796" lon="1.77912">
        <ele>200.3</ele>
        <time>2015-07-18T06:54:29Z</time>
      </trkpt>
      <trkpt lat="43.44789" lon="1.7797">
        <ele>200.7</ele>
        <time>2015-07-18T06:54:34Z</time>
      </trkpt>
      <trkpt lat="43.44789" lon="1.78016">
        <ele>201.1</ele>
        <time>2015-07-18T06:54:40Z</time>
      </trkpt>
      <trkpt lat="43.44795" lon="1.78063">
        <ele>201.5</ele>
        <time>2015-07-18T06:54:45Z</time>
      </trkpt>
      <trkpt lat="43.44802" lon="1.78104">
        <ele>201.6</ele>
        <time>2015-07-18T06:54:50Z</time>
      </trkpt>
      <trkpt lat="43.44814" lon="1.78141">
        <ele>202</ele>
        <time>2015-07-18T06:54:56Z</time>
      </trkpt>
      <trkpt lat="43.44826" lon="1.78172">
        <ele>201.9</ele>
        <time>2015-07-18T06:55:02Z</time>
      </trkpt>
      <trkpt lat="43.4484" lon="1.78211">
        <ele>201.7</ele>
        <time>2015-07-18T06:55:08Z</time>
      </trkpt>
      <trkpt lat="43.44847" lon="1.7825">
        <ele>202.3</ele>
        <time>2015-07-18T06:55:14Z</time>
      </trkpt>
      <trkpt lat="43.44844" lon="1.78306">
        <ele>203.4</ele>
        <time>2015-07-18T06:55:24Z</time>
      </trkpt>
      <trkpt lat="43.44838" lon="1.7833">
        <ele>203.2</ele>
        <time>2015-07-18T06:55:29Z</time>
      </trkpt>
      <trkpt lat="43.44831" lon="1.78352">
        <ele>202.9</ele>
        <time>2015-07-18T06:55:35Z</time>
      </trkpt>
      <trkpt lat="43.44827" lon="1.78362">
        <ele>202.8</ele>
        <time>2015-07-18T06:55:40Z</time>
      </trkpt>
      <trkpt lat="43.44829" lon="1.78354">
        <ele>203.2</ele>
        <time>2015-07-18T06:55:45Z</time>
      </trkpt>
      <trkpt lat="43.44836" lon="1.78355">
        <ele>204.2</ele>
        <time>2015-07-18T06:55:50Z</time>
      </trkpt>
      <trkpt lat="43.44836" lon="1.7837">
        <ele>204.4</ele>
        <time>2015-07-18T06:55:56Z</time>
      </trkpt>
      <trkpt lat="43.44838" lon="1.78388">
        <ele>204.8</ele>
        <time>2015-07-18T06:56:02Z</time>
      </trkpt>
      <trkpt lat="43.44839" lon="1.78396">
        <ele>205</ele>
        <time>2015-07-18T06:56:07Z</time>
      </trkpt>
      <trkpt lat="43.44841" lon="1.78414">
        <ele>205.3</ele>
        <time>2015-07-18T06:56:15Z</time>
      </trkpt>
      <trkpt lat="43.44847" lon="1.78437">
        <ele>207.5</ele>
        <time>2015-07-18T06:56:21Z</time>
      </trkpt>
      <trkpt lat="43.4485" lon="1.78454">
        <ele>208.9</ele>
        <time>2015-07-18T06:56:27Z</time>
      </trkpt>
      <trkpt lat="43.44851" lon="1.78464">
        <ele>209.3</ele>
        <time>2015-07-18T06:56:33Z</time>
      </trkpt>
      <trkpt lat="43.44854" lon="1.78481">
        <ele>210.2</ele>
        <time>2015-07-18T06:56:39Z</time>
      </trkpt>
      <trkpt lat="43.44857" lon="1.78497">
        <ele>211.3</ele>
        <time>2015-07-18T06:56:45Z</time>
      </trkpt>
      <trkpt lat="43.4486" lon="1.78511">
        <ele>212.2</ele>
        <time>2015-07-18T06:56:50Z</time>
      </trkpt>
      <trkpt lat="43.44862" lon="1.78523">
        <ele>213</ele>
        <time>2015-07-18T06:56:56Z</time>
      </trkpt>
      <trkpt lat="43.44865" lon="1.78536">
        <ele>214.2</ele>
        <time>2015-07-18T06:57:02Z</time>
      </trkpt>
      <trkpt lat="43.44866" lon="1.78545">
        <ele>214.5</ele>
        <time>2015-07-18T06:57:07Z</time>
      </trkpt>
      <trkpt lat="43.44869" lon="1.78551">
        <ele>215</ele>
        <time>2015-07-18T06:57:16Z</time>
      </trkpt>
      <trkpt lat="43.44878" lon="1.78585">
        <ele>219.1</ele>
        <time>2015-07-18T06:57:37Z</time>
      </trkpt>
      <trkpt lat="43.44881" lon="1.78596">
        <ele>220.9</ele>
        <time>2015-07-18T06:57:43Z</time>
      </trkpt>
      <trkpt lat="43.44881" lon="1.78602">
        <ele>221.7</ele>
        <time>2015-07-18T06:57:48Z</time>
      </trkpt>
      <trkpt lat="43.44883" lon="1.78613">
        <ele>223.7</ele>
        <time>2015-07-18T06:57:53Z</time>
      </trkpt>
      <trkpt lat="43.44886" lon="1.78622">
        <ele>225</ele>
        <time>2015-07-18T06:57:59Z</time>
      </trkpt>
      <trkpt lat="43.44887" lon="1.78631">
        <ele>226.3</ele>
        <time>2015-07-18T06:58:06Z</time>
      </trkpt>
      <trkpt lat="43.44889" lon="1.78639">
        <ele>227.3</ele>
        <time>2015-07-18T06:58:12Z</time>
      </trkpt>
      <trkpt lat="43.4489" lon="1.78646">
        <ele>228.4</ele>
        <time>2015-07-18T06:58:18Z</time>
      </trkpt>
      <trkpt lat="43.44891" lon="1.78651">
        <ele>229.6</ele>
        <time>2015-07-18T06:58:23Z</time>
      </trkpt>
      <trkpt lat="43.44894" lon="1.78658">
        <ele>230.7</ele>
        <time>2015-07-18T06:58:29Z</time>
      </trkpt>
      <trkpt lat="43.44895" lon="1.78663">
        <ele>231.7</ele>
        <time>2015-07-18T06:58:35Z</time>
      </trkpt>
      <trkpt lat="43.44899" lon="1.78673">
        <ele>233.6</ele>
        <time>2015-07-18T06:58:44Z</time>
      </trkpt>
      <trkpt lat="43.44901" lon="1.78681">
        <ele>234.7</ele>
        <time>2015-07-18T06:58:50Z</time>
      </trkpt>
      <trkpt lat="43.44902" lon="1.78687">
        <ele>235.7</ele>
        <time>2015-07-18T06:58:55Z</time>
      </trkpt>
      <trkpt lat="43.44905" lon="1.78694">
        <ele>236.6</ele>
        <time>2015-07-18T06:59:00Z</time>
      </trkpt>
      <trkpt lat="43.44907" lon="1.78704">
        <ele>237.9</ele>
        <time>2015-07-18T06:59:05Z</time>
      </trkpt>
      <trkpt lat="43.44911" lon="1.78727">
        <ele>240.7</ele>
        <time>2015-07-18T06:59:20Z</time>
      </trkpt>
      <trkpt lat="43.44914" lon="1.78731">
        <ele>241.9</ele>
        <time>2015-07-18T06:59:26Z</time>
      </trkpt>
      <trkpt lat="43.44918" lon="1.78737">
        <ele>242.8</ele>
        <time>2015-07-18T06:59:31Z</time>
      </trkpt>
      <trkpt lat="43.44921" lon="1.78748">
        <ele>243.6</ele>
        <time>2015-07-18T06:59:36Z</time>
      </trkpt>
      <trkpt lat="43.44922" lon="1.7876">
        <ele>244.5</ele>
        <time>2015-07-18T06:59:42Z</time>
      </trkpt>
      <trkpt lat="43.44923" lon="1.78772">
        <ele>244.5</ele>
        <time>2015-07-18T06:59:48Z</time>
      </trkpt>
      <trkpt lat="43.44921" lon="1.78787">
        <ele>244.6</ele>
        <time>2015-07-18T06:59:54Z</time>
      </trkpt>
      <trkpt lat="43.44916" lon="1.78806">
        <ele>245.1</ele>
        <time>2015-07-18T07:00:00Z</time>
      </trkpt>
      <trkpt lat="43.44908" lon="1.78827">
        <ele>245.7</ele>
        <time>2015-07-18T07:00:07Z</time>
      </trkpt>
      <trkpt lat="43.44901" lon="1.78842">
        <ele>246.2</ele>
        <time>2015-07-18T07:00:13Z</time>
      </trkpt>
      <trkpt lat="43.44896" lon="1.78862">
        <ele>246.7</ele>
        <time>2015-07-18T07:00:18Z</time>
      </trkpt>
      <trkpt lat="43.44892" lon="1.78882">
        <ele>247.4</ele>
        <time>2015-07-18T07:00:23Z</time>
      </trkpt>
      <trkpt lat="43.44889" lon="1.78899">
        <ele>248.9</ele>
        <time>2015-07-18T07:00:29Z</time>
      </trkpt>
      <trkpt lat="43.44885" lon="1.7891">
        <ele>250</ele>
        <time>2015-07-18T07:00:36Z</time>
      </trkpt>
      <trkpt lat="43.44884" lon="1.78925">
        <ele>250.7</ele>
        <time>2015-07-18T07:00:45Z</time>
      </trkpt>
      <trkpt lat="43.44884" lon="1.78925">
        <ele>250.5</ele>
        <time>2015-07-18T07:00:51Z</time>
      </trkpt>
      <trkpt lat="43.44884" lon="1.78925">
        <ele>250.5</ele>
        <time>2015-07-18T07:00:56Z</time>
      </trkpt>
      <trkpt lat="43.44884" lon="1.78925">
        <ele>250.5</ele>
        <time>2015-07-18T07:01:02Z</time>
      </trkpt>
      <trkpt lat="43.44884" lon="1.78925">
        <ele>250.5</ele>
        <time>2015-07-18T07:01:07Z</time>
      </trkpt>
      <trkpt lat="43.44884" lon="1.78925">
        <ele>250.5</ele>
        <time>2015-07-18T07:01:13Z</time>
      </trkpt>
      <trkpt lat="43.44884" lon="1.78925">
        <ele>250.5</ele>
        <time>2015-07-18T07:01:19Z</time>
      </trkpt>
      <trkpt lat="43.44884" lon="1.78925">
        <ele>250.5</ele>
        <time>2015-07-18T07:01:25Z</time>
      </trkpt>
      <trkpt lat="43.44884" lon="1.78925">
        <ele>250.5</ele>
        <time>2015-07-18T07:01:30Z</time>
      </trkpt>
      <trkpt lat="43.44884" lon="1.78925">
        <ele>250.5</ele>
        <time>2015-07-18T07:01:35Z</time>
      </trkpt>
      <trkpt lat="43.44884" lon="1.78925">
        <ele>250.5</ele>
        <time>2015-07-18T07:01:41Z</time>
      </trkpt>
      <trkpt lat="43.44875" lon="1.78929">
        <ele>249.2</ele>
        <time>2015-07-18T07:01:47Z</time>
      </trkpt>
      <trkpt lat="43.44876" lon="1.78929">
        <ele>249.3</ele>
        <time>2015-07-18T07:01:52Z</time>
      </trkpt>
      <trkpt lat="43.44876" lon="1.78929">
        <ele>249.3</ele>
        <time>2015-07-18T07:01:57Z</time>
      </trkpt>
      <trkpt lat="43.44876" lon="1.78929">
        <ele>249.3</ele>
        <time>2015-07-18T07:02:03Z</time>
      </trkpt>
      <trkpt lat="43.44876" lon="1.78929">
        <ele>249.3</ele>
        <time>2015-07-18T07:02:09Z</time>
      </trkpt>
      <trkpt lat="43.44876" lon="1.78929">
        <ele>249.3</ele>
        <time>2015-07-18T07:02:14Z</time>
      </trkpt>
      <trkpt lat="43.44876" lon="1.78929">
        <ele>249.3</ele>
        <time>2015-07-18T07:02:20Z</time>
      </trkpt>
      <trkpt lat="43.44876" lon="1.78929">
        <ele>249.3</ele>
        <time>2015-07-18T07:02:26Z</time>
      </trkpt>
      <trkpt lat="43.44876" lon="1.78929">
        <ele>249.3</ele>
        <time>2015-07-18T07:02:31Z</time>
      </trkpt>
      <trkpt lat="43.44876" lon="1.78929">
        <ele>249.3</ele>
        <time>2015-07-18T07:02:37Z</time>
      </trkpt>
      <trkpt lat="43.44876" lon="1.78929">
        <ele>249.3</ele>
        <time>2015-07-18T07:02:43Z</time>
      </trkpt>
      <trkpt lat="43.44876" lon="1.78929">
        <ele>249.3</ele>
        <time>2015-07-18T07:02:48Z</time>
      </trkpt>
      <trkpt lat="43.44876" lon="1.78929">
        <ele>249.3</ele>
        <time>2015-07-18T07:02:53Z</time>
      </trkpt>
      <trkpt lat="43.44876" lon="1.78929">
        <ele>249.3</ele>
        <time>2015-07-18T07:02:59Z</time>
      </trkpt>
      <trkpt lat="43.44876" lon="1.78929">
        <ele>249.3</ele>
        <time>2015-07-18T07:03:05Z</time>
      </trkpt>
      <trkpt lat="43.44876" lon="1.78929">
        <ele>249.3</ele>
        <time>2015-07-18T07:03:10Z</time>
      </trkpt>
      <trkpt lat="43.44876" lon="1.78929">
        <ele>249.3</ele>
        <time>2015-07-18T07:03:16Z</time>
      </trkpt>
      <trkpt lat="43.44876" lon="1.78929">
        <ele>249.3</ele>
        <time>2015-07-18T07:03:21Z</time>
      </trkpt>
      <trkpt lat="43.44876" lon="1.78929">
        <ele>249.3</ele>
        <time>2015-07-18T07:03:26Z</time>
      </trkpt>
      <trkpt lat="43.44876" lon="1.78929">
        <ele>249.3</ele>
        <time>2015-07-18T07:03:32Z</time>
      </trkpt>
      <trkpt lat="43.44876" lon="1.78929">
        <ele>249.3</ele>
        <time>2015-07-18T07:03:37Z</time>
      </trkpt>
      <trkpt lat="43.44876" lon="1.78929">
        <ele>249.3</ele>
        <time>2015-07-18T07:03:43Z</time>
      </trkpt>
      <trkpt lat="43.44876" lon="1.78929">
        <ele>249.3</ele>
        <time>2015-07-18T07:03:48Z</time>
      </trkpt>
      <trkpt lat="43.44876" lon="1.78929">
        <ele>249.3</ele>
        <time>2015-07-18T07:03:54Z</time>
      </trkpt>
      <trkpt lat="43.44876" lon="1.78929">
        <ele>249.3</ele>
        <time>2015-07-18T07:04:00Z</time>
      </trkpt>
      <trkpt lat="43.44876" lon="1.78929">
        <ele>249.3</ele>
        <time>2015-07-18T07:04:05Z</time>
      </trkpt>
      <trkpt lat="43.44876" lon="1.78929">
        <ele>249.3</ele>
        <time>2015-07-18T07:04:11Z</time>
      </trkpt>
      <trkpt lat="43.44876" lon="1.78929">
        <ele>249.3</ele>
        <time>2015-07-18T07:04:17Z</time>
      </trkpt>
      <trkpt lat="43.44876" lon="1.78929">
        <ele>249.3</ele>
        <time>2015-07-18T07:04:22Z</time>
      </trkpt>
      <trkpt lat="43.44876" lon="1.78929">
        <ele>249.3</ele>
        <time>2015-07-18T07:04:28Z</time>
      </trkpt>
      <trkpt lat="43.44876" lon="1.78929">
        <ele>249.3</ele>
        <time>2015-07-18T07:04:34Z</time>
      </trkpt>
      <trkpt lat="43.44876" lon="1.78929">
        <ele>249.3</ele>
        <time>2015-07-18T07:04:40Z</time>
      </trkpt>
      <trkpt lat="43.44876" lon="1.78929">
        <ele>249.3</ele>
        <time>2015-07-18T07:04:46Z</time>
      </trkpt>
      <trkpt lat="43.44876" lon="1.78929">
        <ele>249.3</ele>
        <time>2015-07-18T07:04:52Z</time>
      </trkpt>
      <trkpt lat="43.44876" lon="1.78929">
        <ele>249.3</ele>
        <time>2015-07-18T07:04:57Z</time>
      </trkpt>
      <trkpt lat="43.44876" lon="1.78929">
        <ele>249.3</ele>
        <time>2015-07-18T07:05:03Z</time>
      </trkpt>
      <trkpt lat="43.44876" lon="1.78929">
        <ele>249.3</ele>
        <time>2015-07-18T07:05:08Z</time>
      </trkpt>
      <trkpt lat="43.44906" lon="1.78961">
        <ele>149.1</ele>
        <time>2015-07-18T07:05:19Z</time>
      </trkpt>
      <trkpt lat="43.44881" lon="1.78932">
        <ele>229.1</ele>
        <time>2015-07-18T07:05:25Z</time>
      </trkpt>
      <trkpt lat="43.44873" lon="1.78911">
        <ele>254.8</ele>
        <time>2015-07-18T07:05:30Z</time>
      </trkpt>
      <trkpt lat="43.44873" lon="1.78911">
        <ele>254.8</ele>
        <time>2015-07-18T07:05:36Z</time>
      </trkpt>
      <trkpt lat="43.44881" lon="1.78928">
        <ele>248.8</ele>
        <time>2015-07-18T07:05:41Z</time>
      </trkpt>
      <trkpt lat="43.44881" lon="1.78928">
        <ele>248.8</ele>
        <time>2015-07-18T07:05:46Z</time>
      </trkpt>
      <trkpt lat="43.44881" lon="1.78928">
        <ele>248.8</ele>
        <time>2015-07-18T07:05:52Z</time>
      </trkpt>
      <trkpt lat="43.44881" lon="1.78928">
        <ele>248.8</ele>
        <time>2015-07-18T07:05:57Z</time>
      </trkpt>
      <trkpt lat="43.44881" lon="1.78928">
        <ele>248.8</ele>
        <time>2015-07-18T07:06:02Z</time>
      </trkpt>
      <trkpt lat="43.44881" lon="1.78928">
        <ele>248.8</ele>
        <time>2015-07-18T07:06:08Z</time>
      </trkpt>
      <trkpt lat="43.44881" lon="1.78928">
        <ele>248.8</ele>
        <time>2015-07-18T07:06:13Z</time>
      </trkpt>
      <trkpt lat="43.44881" lon="1.78928">
        <ele>248.8</ele>
        <time>2015-07-18T07:06:19Z</time>
      </trkpt>
      <trkpt lat="43.44881" lon="1.78928">
        <ele>248.8</ele>
        <time>2015-07-18T07:06:25Z</time>
      </trkpt>
      <trkpt lat="43.44881" lon="1.78928">
        <ele>248.8</ele>
        <time>2015-07-18T07:06:31Z</time>
      </trkpt>
      <trkpt lat="43.44881" lon="1.78928">
        <ele>248.8</ele>
        <time>2015-07-18T07:06:37Z</time>
      </trkpt>
      <trkpt lat="43.44881" lon="1.78928">
        <ele>248.8</ele>
        <time>2015-07-18T07:06:43Z</time>
      </trkpt>
      <trkpt lat="43.44881" lon="1.78928">
        <ele>248.8</ele>
        <time>2015-07-18T07:06:49Z</time>
      </trkpt>
      <trkpt lat="43.44881" lon="1.78928">
        <ele>248.8</ele>
        <time>2015-07-18T07:06:54Z</time>
      </trkpt>
      <trkpt lat="43.44881" lon="1.78928">
        <ele>248.8</ele>
        <time>2015-07-18T07:07:00Z</time>
      </trkpt>
      <trkpt lat="43.44881" lon="1.78928">
        <ele>248.8</ele>
        <time>2015-07-18T07:07:06Z</time>
      </trkpt>
      <trkpt lat="43.44881" lon="1.78928">
        <ele>248.8</ele>
        <time>2015-07-18T07:07:11Z</time>
      </trkpt>
      <trkpt lat="43.44881" lon="1.78928">
        <ele>248.8</ele>
        <time>2015-07-18T07:07:16Z</time>
      </trkpt>
      <trkpt lat="43.44881" lon="1.78928">
        <ele>248.8</ele>
        <time>2015-07-18T07:07:21Z</time>
      </trkpt>
      <trkpt lat="43.44881" lon="1.78928">
        <ele>248.8</ele>
        <time>2015-07-18T07:07:27Z</time>
      </trkpt>
      <trkpt lat="43.44881" lon="1.78928">
        <ele>248.8</ele>
        <time>2015-07-18T07:07:32Z</time>
      </trkpt>
      <trkpt lat="43.44881" lon="1.78928">
        <ele>248.8</ele>
        <time>2015-07-18T07:07:38Z</time>
      </trkpt>
      <trkpt lat="43.44881" lon="1.78928">
        <ele>248.8</ele>
        <time>2015-07-18T07:07:44Z</time>
      </trkpt>
      <trkpt lat="43.44881" lon="1.78928">
        <ele>248.8</ele>
        <time>2015-07-18T07:07:49Z</time>
      </trkpt>
      <trkpt lat="43.44881" lon="1.78928">
        <ele>248.8</ele>
        <time>2015-07-18T07:07:55Z</time>
      </trkpt>
      <trkpt lat="43.44881" lon="1.78928">
        <ele>248.8</ele>
        <time>2015-07-18T07:08:00Z</time>
      </trkpt>
      <trkpt lat="43.44881" lon="1.78928">
        <ele>248.8</ele>
        <time>2015-07-18T07:08:06Z</time>
      </trkpt>
      <trkpt lat="43.44881" lon="1.78928">
        <ele>248.8</ele>
        <time>2015-07-18T07:08:12Z</time>
      </trkpt>
      <trkpt lat="43.44881" lon="1.78928">
        <ele>248.8</ele>
        <time>2015-07-18T07:08:17Z</time>
      </trkpt>
      <trkpt lat="43.44881" lon="1.78928">
        <ele>248.8</ele>
        <time>2015-07-18T07:08:22Z</time>
      </trkpt>
      <trkpt lat="43.44881" lon="1.78928">
        <ele>248.8</ele>
        <time>2015-07-18T07:08:28Z</time>
      </trkpt>
      <trkpt lat="43.44881" lon="1.78928">
        <ele>248.8</ele>
        <time>2015-07-18T07:08:33Z</time>
      </trkpt>
      <trkpt lat="43.44881" lon="1.78928">
        <ele>248.8</ele>
        <time>2015-07-18T07:08:39Z</time>
      </trkpt>
      <trkpt lat="43.44881" lon="1.78928">
        <ele>248.8</ele>
        <time>2015-07-18T07:08:45Z</time>
      </trkpt>
      <trkpt lat="43.44881" lon="1.78928">
        <ele>248.8</ele>
        <time>2015-07-18T07:08:51Z</time>
      </trkpt>
      <trkpt lat="43.44881" lon="1.78928">
        <ele>248.8</ele>
        <time>2015-07-18T07:08:57Z</time>
      </trkpt>
      <trkpt lat="43.44881" lon="1.78928">
        <ele>248.8</ele>
        <time>2015-07-18T07:09:03Z</time>
      </trkpt>
      <trkpt lat="43.44881" lon="1.78928">
        <ele>248.8</ele>
        <time>2015-07-18T07:09:08Z</time>
      </trkpt>
      <trkpt lat="43.44881" lon="1.78928">
        <ele>248.8</ele>
        <time>2015-07-18T07:09:13Z</time>
      </trkpt>
      <trkpt lat="43.44881" lon="1.78928">
        <ele>248.8</ele>
        <time>2015-07-18T07:09:19Z</time>
      </trkpt>
      <trkpt lat="43.44881" lon="1.78928">
        <ele>248.8</ele>
        <time>2015-07-18T07:09:25Z</time>
      </trkpt>
      <trkpt lat="43.44881" lon="1.78928">
        <ele>248.8</ele>
        <time>2015-07-18T07:09:31Z</time>
      </trkpt>
      <trkpt lat="43.44881" lon="1.78928">
        <ele>248.8</ele>
        <time>2015-07-18T07:09:36Z</time>
      </trkpt>
      <trkpt lat="43.44881" lon="1.78928">
        <ele>248.8</ele>
        <time>2015-07-18T07:09:42Z</time>
      </trkpt>
      <trkpt lat="43.44881" lon="1.78928">
        <ele>248.8</ele>
        <time>2015-07-18T07:09:48Z</time>
      </trkpt>
      <trkpt lat="43.44881" lon="1.78928">
        <ele>248.8</ele>
        <time>2015-07-18T07:09:54Z</time>
      </trkpt>
      <trkpt lat="43.44881" lon="1.78928">
        <ele>248.8</ele>
        <time>2015-07-18T07:09:59Z</time>
      </trkpt>
      <trkpt lat="43.44881" lon="1.78928">
        <ele>248.8</ele>
        <time>2015-07-18T07:10:05Z</time>
      </trkpt>
      <trkpt lat="43.44881" lon="1.78928">
        <ele>248.8</ele>
        <time>2015-07-18T07:10:10Z</time>
      </trkpt>
      <trkpt lat="43.44881" lon="1.78928">
        <ele>248.8</ele>
        <time>2015-07-18T07:10:16Z</time>
      </trkpt>
      <trkpt lat="43.44881" lon="1.78928">
        <ele>248.8</ele>
        <time>2015-07-18T07:10:21Z</time>
      </trkpt>
      <trkpt lat="43.44881" lon="1.78928">
        <ele>248.8</ele>
        <time>2015-07-18T07:10:26Z</time>
      </trkpt>
      <trkpt lat="43.44881" lon="1.78928">
        <ele>248.8</ele>
        <time>2015-07-18T07:10:32Z</time>
      </trkpt>
      <trkpt lat="43.44881" lon="1.78928">
        <ele>248.8</ele>
        <time>2015-07-18T07:10:37Z</time>
      </trkpt>
      <trkpt lat="43.44881" lon="1.78928">
        <ele>248.8</ele>
        <time>2015-07-18T07:10:43Z</time>
      </trkpt>
      <trkpt lat="43.44881" lon="1.78928">
        <ele>248.8</ele>
        <time>2015-07-18T07:10:48Z</time>
      </trkpt>
      <trkpt lat="43.44881" lon="1.78928">
        <ele>248.8</ele>
        <time>2015-07-18T07:10:53Z</time>
      </trkpt>
      <trkpt lat="43.44881" lon="1.78928">
        <ele>248.8</ele>
        <time>2015-07-18T07:10:58Z</time>
      </trkpt>
      <trkpt lat="43.44881" lon="1.78928">
        <ele>248.8</ele>
        <time>2015-07-18T07:11:04Z</time>
      </trkpt>
      <trkpt lat="43.44881" lon="1.78928">
        <ele>248.8</ele>
        <time>2015-07-18T07:11:09Z</time>
      </trkpt>
      <trkpt lat="43.44887" lon="1.78932">
        <ele>245.4</ele>
        <time>2015-07-18T07:11:16Z</time>
      </trkpt>
      <trkpt lat="43.44887" lon="1.78931">
        <ele>246.5</ele>
        <time>2015-07-18T07:11:23Z</time>
      </trkpt>
      <trkpt lat="43.44887" lon="1.78931">
        <ele>246.5</ele>
        <time>2015-07-18T07:11:28Z</time>
      </trkpt>
      <trkpt lat="43.44883" lon="1.78932">
        <ele>246.3</ele>
        <time>2015-07-18T07:11:34Z</time>
      </trkpt>
      <trkpt lat="43.44883" lon="1.78932">
        <ele>246.2</ele>
        <time>2015-07-18T07:11:39Z</time>
      </trkpt>
      <trkpt lat="43.44883" lon="1.78932">
        <ele>246.2</ele>
        <time>2015-07-18T07:11:46Z</time>
      </trkpt>
      <trkpt lat="43.44883" lon="1.78932">
        <ele>246.2</ele>
        <time>2015-07-18T07:11:53Z</time>
      </trkpt>
      <trkpt lat="43.44883" lon="1.78932">
        <ele>246.2</ele>
        <time>2015-07-18T07:12:00Z</time>
      </trkpt>
      <trkpt lat="43.44883" lon="1.78932">
        <ele>246.2</ele>
        <time>2015-07-18T07:12:06Z</time>
      </trkpt>
      <trkpt lat="43.44883" lon="1.78932">
        <ele>246.2</ele>
        <time>2015-07-18T07:12:12Z</time>
      </trkpt>
      <trkpt lat="43.44883" lon="1.78932">
        <ele>246.2</ele>
        <time>2015-07-18T07:12:22Z</time>
      </trkpt>
      <trkpt lat="43.44883" lon="1.78932">
        <ele>246.2</ele>
        <time>2015-07-18T07:12:28Z</time>
      </trkpt>
      <trkpt lat="43.44883" lon="1.78932">
        <ele>246.2</ele>
        <time>2015-07-18T07:12:33Z</time>
      </trkpt>
      <trkpt lat="43.44883" lon="1.78932">
        <ele>246.2</ele>
        <time>2015-07-18T07:12:40Z</time>
      </trkpt>
      <trkpt lat="43.44883" lon="1.78932">
        <ele>246.2</ele>
        <time>2015-07-18T07:12:45Z</time>
      </trkpt>
      <trkpt lat="43.44883" lon="1.78932">
        <ele>246.2</ele>
        <time>2015-07-18T07:12:51Z</time>
      </trkpt>
      <trkpt lat="43.44883" lon="1.78932">
        <ele>246.2</ele>
        <time>2015-07-18T07:12:56Z</time>
      </trkpt>
      <trkpt lat="43.44883" lon="1.78932">
        <ele>246.2</ele>
        <time>2015-07-18T07:13:07Z</time>
      </trkpt>
      <trkpt lat="43.4488" lon="1.78943">
        <ele>245</ele>
        <time>2015-07-18T07:13:13Z</time>
      </trkpt>
      <trkpt lat="43.44874" lon="1.78961">
        <ele>244.4</ele>
        <time>2015-07-18T07:13:20Z</time>
      </trkpt>
      <trkpt lat="43.44866" lon="1.7899">
        <ele>242.4</ele>
        <time>2015-07-18T07:13:26Z</time>
      </trkpt>
      <trkpt lat="43.44859" lon="1.79013">
        <ele>240.7</ele>
        <time>2015-07-18T07:13:31Z</time>
      </trkpt>
      <trkpt lat="43.44861" lon="1.79033">
        <ele>240.1</ele>
        <time>2015-07-18T07:13:36Z</time>
      </trkpt>
      <trkpt lat="43.44857" lon="1.79053">
        <ele>238.8</ele>
        <time>2015-07-18T07:13:42Z</time>
      </trkpt>
      <trkpt lat="43.44843" lon="1.79073">
        <ele>236.1</ele>
        <time>2015-07-18T07:13:47Z</time>
      </trkpt>
      <trkpt lat="43.44828" lon="1.79092">
        <ele>233.9</ele>
        <time>2015-07-18T07:13:53Z</time>
      </trkpt>
      <trkpt lat="43.44811" lon="1.79119">
        <ele>231</ele>
        <time>2015-07-18T07:13:58Z</time>
      </trkpt>
      <trkpt lat="43.44794" lon="1.79144">
        <ele>227.5</ele>
        <time>2015-07-18T07:14:03Z</time>
      </trkpt>
      <trkpt lat="43.44772" lon="1.79177">
        <ele>222.6</ele>
        <time>2015-07-18T07:14:08Z</time>
      </trkpt>
      <trkpt lat="43.44752" lon="1.79207">
        <ele>217.9</ele>
        <time>2015-07-18T07:14:14Z</time>
      </trkpt>
      <trkpt lat="43.44734" lon="1.79235">
        <ele>213.3</ele>
        <time>2015-07-18T07:14:20Z</time>
      </trkpt>
      <trkpt lat="43.44713" lon="1.79276">
        <ele>209.2</ele>
        <time>2015-07-18T07:14:25Z</time>
      </trkpt>
      <trkpt lat="43.44708" lon="1.79315">
        <ele>209.4</ele>
        <time>2015-07-18T07:14:31Z</time>
      </trkpt>
      <trkpt lat="43.44701" lon="1.79347">
        <ele>209.9</ele>
        <time>2015-07-18T07:14:36Z</time>
      </trkpt>
      <trkpt lat="43.44695" lon="1.79386">
        <ele>209.8</ele>
        <time>2015-07-18T07:14:42Z</time>
      </trkpt>
      <trkpt lat="43.44689" lon="1.79418">
        <ele>209.6</ele>
        <time>2015-07-18T07:14:48Z</time>
      </trkpt>
      <trkpt lat="43.44683" lon="1.79452">
        <ele>209.5</ele>
        <time>2015-07-18T07:14:53Z</time>
      </trkpt>
      <trkpt lat="43.44674" lon="1.79498">
        <ele>209.8</ele>
        <time>2015-07-18T07:15:00Z</time>
      </trkpt>
      <trkpt lat="43.44667" lon="1.79537">
        <ele>210</ele>
        <time>2015-07-18T07:15:06Z</time>
      </trkpt>
      <trkpt lat="43.44659" lon="1.79583">
        <ele>210.3</ele>
        <time>2015-07-18T07:15:11Z</time>
      </trkpt>
      <trkpt lat="43.44654" lon="1.79615">
        <ele>210.7</ele>
        <time>2015-07-18T07:15:19Z</time>
      </trkpt>
      <trkpt lat="43.44645" lon="1.79663">
        <ele>211.8</ele>
        <time>2015-07-18T07:15:25Z</time>
      </trkpt>
      <trkpt lat="43.44639" lon="1.79694">
        <ele>212.3</ele>
        <time>2015-07-18T07:15:31Z</time>
      </trkpt>
      <trkpt lat="43.44634" lon="1.79738">
        <ele>212.7</ele>
        <time>2015-07-18T07:15:37Z</time>
      </trkpt>
      <trkpt lat="43.44634" lon="1.79771">
        <ele>212.6</ele>
        <time>2015-07-18T07:15:42Z</time>
      </trkpt>
      <trkpt lat="43.44634" lon="1.79809">
        <ele>212.7</ele>
        <time>2015-07-18T07:15:48Z</time>
      </trkpt>
      <trkpt lat="43.44635" lon="1.79839">
        <ele>213.8</ele>
        <time>2015-07-18T07:15:53Z</time>
      </trkpt>
      <trkpt lat="43.44635" lon="1.79872">
        <ele>214.8</ele>
        <time>2015-07-18T07:15:58Z</time>
      </trkpt>
      <trkpt lat="43.44636" lon="1.79897">
        <ele>214.6</ele>
        <time>2015-07-18T07:16:05Z</time>
      </trkpt>
      <trkpt lat="43.44637" lon="1.79936">
        <ele>214.6</ele>
        <time>2015-07-18T07:16:11Z</time>
      </trkpt>
      <trkpt lat="43.44627" lon="1.80012">
        <ele>213.8</ele>
        <time>2015-07-18T07:16:27Z</time>
      </trkpt>
      <trkpt lat="43.44608" lon="1.80096">
        <ele>214.5</ele>
        <time>2015-07-18T07:16:33Z</time>
      </trkpt>
      <trkpt lat="43.44598" lon="1.80136">
        <ele>214.1</ele>
        <time>2015-07-18T07:16:38Z</time>
      </trkpt>
      <trkpt lat="43.44586" lon="1.80185">
        <ele>213.9</ele>
        <time>2015-07-18T07:16:43Z</time>
      </trkpt>
      <trkpt lat="43.44576" lon="1.80228">
        <ele>213.8</ele>
        <time>2015-07-18T07:16:50Z</time>
      </trkpt>
      <trkpt lat="43.44564" lon="1.80278">
        <ele>213.6</ele>
        <time>2015-07-18T07:16:56Z</time>
      </trkpt>
      <trkpt lat="43.44552" lon="1.80328">
        <ele>213.7</ele>
        <time>2015-07-18T07:17:01Z</time>
      </trkpt>
      <trkpt lat="43.4454" lon="1.80376">
        <ele>214</ele>
        <time>2015-07-18T07:17:08Z</time>
      </trkpt>
      <trkpt lat="43.44527" lon="1.8043">
        <ele>213.9</ele>
        <time>2015-07-18T07:17:13Z</time>
      </trkpt>
      <trkpt lat="43.4452" lon="1.80461">
        <ele>214.2</ele>
        <time>2015-07-18T07:17:20Z</time>
      </trkpt>
      <trkpt lat="43.44508" lon="1.80511">
        <ele>214.5</ele>
        <time>2015-07-18T07:17:25Z</time>
      </trkpt>
      <trkpt lat="43.44499" lon="1.80547">
        <ele>214.7</ele>
        <time>2015-07-18T07:17:30Z</time>
      </trkpt>
      <trkpt lat="43.44491" lon="1.8058">
        <ele>214.8</ele>
        <time>2015-07-18T07:17:36Z</time>
      </trkpt>
      <trkpt lat="43.44481" lon="1.8062">
        <ele>214.8</ele>
        <time>2015-07-18T07:17:41Z</time>
      </trkpt>
      <trkpt lat="43.44474" lon="1.80648">
        <ele>214.8</ele>
        <time>2015-07-18T07:17:46Z</time>
      </trkpt>
      <trkpt lat="43.44469" lon="1.80697">
        <ele>215.7</ele>
        <time>2015-07-18T07:17:53Z</time>
      </trkpt>
      <trkpt lat="43.44476" lon="1.80736">
        <ele>216.6</ele>
        <time>2015-07-18T07:17:59Z</time>
      </trkpt>
      <trkpt lat="43.44489" lon="1.80774">
        <ele>217.7</ele>
        <time>2015-07-18T07:18:04Z</time>
      </trkpt>
      <trkpt lat="43.44498" lon="1.80798">
        <ele>218.3</ele>
        <time>2015-07-18T07:18:09Z</time>
      </trkpt>
      <trkpt lat="43.44506" lon="1.80821">
        <ele>218.9</ele>
        <time>2015-07-18T07:18:14Z</time>
      </trkpt>
      <trkpt lat="43.44511" lon="1.80834">
        <ele>219.1</ele>
        <time>2015-07-18T07:18:20Z</time>
      </trkpt>
      <trkpt lat="43.44524" lon="1.80869">
        <ele>220.1</ele>
        <time>2015-07-18T07:18:26Z</time>
      </trkpt>
      <trkpt lat="43.4453" lon="1.80886">
        <ele>220.5</ele>
        <time>2015-07-18T07:18:34Z</time>
      </trkpt>
      <trkpt lat="43.44539" lon="1.80914">
        <ele>221.8</ele>
        <time>2015-07-18T07:18:40Z</time>
      </trkpt>
      <trkpt lat="43.44543" lon="1.80942">
        <ele>221.8</ele>
        <time>2015-07-18T07:18:46Z</time>
      </trkpt>
      <trkpt lat="43.44541" lon="1.80957">
        <ele>221.7</ele>
        <time>2015-07-18T07:18:52Z</time>
      </trkpt>
      <trkpt lat="43.44541" lon="1.80967">
        <ele>221</ele>
        <time>2015-07-18T07:18:59Z</time>
      </trkpt>
      <trkpt lat="43.4454" lon="1.80967">
        <ele>220.6</ele>
        <time>2015-07-18T07:19:04Z</time>
      </trkpt>
      <trkpt lat="43.4454" lon="1.80967">
        <ele>220.6</ele>
        <time>2015-07-18T07:19:10Z</time>
      </trkpt>
      <trkpt lat="43.4454" lon="1.80967">
        <ele>220.6</ele>
        <time>2015-07-18T07:19:16Z</time>
      </trkpt>
      <trkpt lat="43.4454" lon="1.80967">
        <ele>220.6</ele>
        <time>2015-07-18T07:19:22Z</time>
      </trkpt>
      <trkpt lat="43.4454" lon="1.80967">
        <ele>220.6</ele>
        <time>2015-07-18T07:19:27Z</time>
      </trkpt>
      <trkpt lat="43.4454" lon="1.80967">
        <ele>220.6</ele>
        <time>2015-07-18T07:19:33Z</time>
      </trkpt>
      <trkpt lat="43.4454" lon="1.80967">
        <ele>220.6</ele>
        <time>2015-07-18T07:19:38Z</time>
      </trkpt>
      <trkpt lat="43.4454" lon="1.80967">
        <ele>220.6</ele>
        <time>2015-07-18T07:19:43Z</time>
      </trkpt>
      <trkpt lat="43.4454" lon="1.80967">
        <ele>220.6</ele>
        <time>2015-07-18T07:19:49Z</time>
      </trkpt>
      <trkpt lat="43.4454" lon="1.80967">
        <ele>220.6</ele>
        <time>2015-07-18T07:19:54Z</time>
      </trkpt>
      <trkpt lat="43.4454" lon="1.80967">
        <ele>220.6</ele>
        <time>2015-07-18T07:20:00Z</time>
      </trkpt>
      <trkpt lat="43.4454" lon="1.80967">
        <ele>220.6</ele>
        <time>2015-07-18T07:20:06Z</time>
      </trkpt>
      <trkpt lat="43.4454" lon="1.80967">
        <ele>220.6</ele>
        <time>2015-07-18T07:20:11Z</time>
      </trkpt>
      <trkpt lat="43.4454" lon="1.80967">
        <ele>220.6</ele>
        <time>2015-07-18T07:20:17Z</time>
      </trkpt>
      <trkpt lat="43.4454" lon="1.80967">
        <ele>220.6</ele>
        <time>2015-07-18T07:20:23Z</time>
      </trkpt>
      <trkpt lat="43.4454" lon="1.80967">
        <ele>220.6</ele>
        <time>2015-07-18T07:20:28Z</time>
      </trkpt>
      <trkpt lat="43.4454" lon="1.80967">
        <ele>220.6</ele>
        <time>2015-07-18T07:20:34Z</time>
      </trkpt>
      <trkpt lat="43.4454" lon="1.80967">
        <ele>220.6</ele>
        <time>2015-07-18T07:20:40Z</time>
      </trkpt>
      <trkpt lat="43.4454" lon="1.80967">
        <ele>220.6</ele>
        <time>2015-07-18T07:20:48Z</time>
      </trkpt>
      <trkpt lat="43.4454" lon="1.80967">
        <ele>220.6</ele>
        <time>2015-07-18T07:20:53Z</time>
      </trkpt>
      <trkpt lat="43.4454" lon="1.80967">
        <ele>220.6</ele>
        <time>2015-07-18T07:20:59Z</time>
      </trkpt>
      <trkpt lat="43.4454" lon="1.80967">
        <ele>220.6</ele>
        <time>2015-07-18T07:21:04Z</time>
      </trkpt>
      <trkpt lat="43.4454" lon="1.80967">
        <ele>220.6</ele>
        <time>2015-07-18T07:21:10Z</time>
      </trkpt>
      <trkpt lat="43.4454" lon="1.80967">
        <ele>220.6</ele>
        <time>2015-07-18T07:21:15Z</time>
      </trkpt>
      <trkpt lat="43.4454" lon="1.80967">
        <ele>220.6</ele>
        <time>2015-07-18T07:21:21Z</time>
      </trkpt>
      <trkpt lat="43.4454" lon="1.80967">
        <ele>220.6</ele>
        <time>2015-07-18T07:21:26Z</time>
      </trkpt>
      <trkpt lat="43.4454" lon="1.80967">
        <ele>220.6</ele>
        <time>2015-07-18T07:21:31Z</time>
      </trkpt>
      <trkpt lat="43.4454" lon="1.80967">
        <ele>220.6</ele>
        <time>2015-07-18T07:21:37Z</time>
      </trkpt>
      <trkpt lat="43.4454" lon="1.80967">
        <ele>220.6</ele>
        <time>2015-07-18T07:21:42Z</time>
      </trkpt>
      <trkpt lat="43.4454" lon="1.80967">
        <ele>220.6</ele>
        <time>2015-07-18T07:21:48Z</time>
      </trkpt>
      <trkpt lat="43.4454" lon="1.80967">
        <ele>220.6</ele>
        <time>2015-07-18T07:21:53Z</time>
      </trkpt>
      <trkpt lat="43.4454" lon="1.80967">
        <ele>220.6</ele>
        <time>2015-07-18T07:22:03Z</time>
      </trkpt>
      <trkpt lat="43.4454" lon="1.80967">
        <ele>220.6</ele>
        <time>2015-07-18T07:22:08Z</time>
      </trkpt>
      <trkpt lat="43.4454" lon="1.80967">
        <ele>220.6</ele>
        <time>2015-07-18T07:22:14Z</time>
      </trkpt>
      <trkpt lat="43.4454" lon="1.80967">
        <ele>220.6</ele>
        <time>2015-07-18T07:22:19Z</time>
      </trkpt>
      <trkpt lat="43.4454" lon="1.80967">
        <ele>220.6</ele>
        <time>2015-07-18T07:22:25Z</time>
      </trkpt>
      <trkpt lat="43.44531" lon="1.80979">
        <ele>219.4</ele>
        <time>2015-07-18T07:22:30Z</time>
      </trkpt>
      <trkpt lat="43.4453" lon="1.81013">
        <ele>219</ele>
        <time>2015-07-18T07:22:36Z</time>
      </trkpt>
      <trkpt lat="43.44533" lon="1.81055">
        <ele>219</ele>
        <time>2015-07-18T07:22:41Z</time>
      </trkpt>
      <trkpt lat="43.4451" lon="1.81108">
        <ele>217.8</ele>
        <time>2015-07-18T07:22:47Z</time>
      </trkpt>
      <trkpt lat="43.44484" lon="1.81155">
        <ele>217</ele>
        <time>2015-07-18T07:22:53Z</time>
      </trkpt>
      <trkpt lat="43.44466" lon="1.812">
        <ele>217</ele>
        <time>2015-07-18T07:22:58Z</time>
      </trkpt>
      <trkpt lat="43.44455" lon="1.81265">
        <ele>216.4</ele>
        <time>2015-07-18T07:23:04Z</time>
      </trkpt>
      <trkpt lat="43.44457" lon="1.81308">
        <ele>219.8</ele>
        <time>2015-07-18T07:23:09Z</time>
      </trkpt>
      <trkpt lat="43.44459" lon="1.81336">
        <ele>222.1</ele>
        <time>2015-07-18T07:23:14Z</time>
      </trkpt>
      <trkpt lat="43.44462" lon="1.81357">
        <ele>223.4</ele>
        <time>2015-07-18T07:23:19Z</time>
      </trkpt>
      <trkpt lat="43.44466" lon="1.81381">
        <ele>225.2</ele>
        <time>2015-07-18T07:23:25Z</time>
      </trkpt>
      <trkpt lat="43.44469" lon="1.81406">
        <ele>227.1</ele>
        <time>2015-07-18T07:23:32Z</time>
      </trkpt>
      <trkpt lat="43.44468" lon="1.81438">
        <ele>230.1</ele>
        <time>2015-07-18T07:23:41Z</time>
      </trkpt>
      <trkpt lat="43.44465" lon="1.81457">
        <ele>231.2</ele>
        <time>2015-07-18T07:23:47Z</time>
      </trkpt>
      <trkpt lat="43.4446" lon="1.81474">
        <ele>232.2</ele>
        <time>2015-07-18T07:23:53Z</time>
      </trkpt>
      <trkpt lat="43.44455" lon="1.81491">
        <ele>233.3</ele>
        <time>2015-07-18T07:23:58Z</time>
      </trkpt>
      <trkpt lat="43.44451" lon="1.81506">
        <ele>234.4</ele>
        <time>2015-07-18T07:24:06Z</time>
      </trkpt>
      <trkpt lat="43.44442" lon="1.81526">
        <ele>238.9</ele>
        <time>2015-07-18T07:24:13Z</time>
      </trkpt>
      <trkpt lat="43.44441" lon="1.81532">
        <ele>240.2</ele>
        <time>2015-07-18T07:24:25Z</time>
      </trkpt>
      <trkpt lat="43.44424" lon="1.81582">
        <ele>241.7</ele>
        <time>2015-07-18T07:24:31Z</time>
      </trkpt>
      <trkpt lat="43.4442" lon="1.81596">
        <ele>241.5</ele>
        <time>2015-07-18T07:24:36Z</time>
      </trkpt>
      <trkpt lat="43.44416" lon="1.81611">
        <ele>242.2</ele>
        <time>2015-07-18T07:24:42Z</time>
      </trkpt>
      <trkpt lat="43.4441" lon="1.81627">
        <ele>242.1</ele>
        <time>2015-07-18T07:24:47Z</time>
      </trkpt>
      <trkpt lat="43.44405" lon="1.81644">
        <ele>241.9</ele>
        <time>2015-07-18T07:24:53Z</time>
      </trkpt>
      <trkpt lat="43.44399" lon="1.8166">
        <ele>241.9</ele>
        <time>2015-07-18T07:24:58Z</time>
      </trkpt>
      <trkpt lat="43.44394" lon="1.81674">
        <ele>243.2</ele>
        <time>2015-07-18T07:25:03Z</time>
      </trkpt>
      <trkpt lat="43.44389" lon="1.81685">
        <ele>244.1</ele>
        <time>2015-07-18T07:25:09Z</time>
      </trkpt>
      <trkpt lat="43.44382" lon="1.817">
        <ele>245.4</ele>
        <time>2015-07-18T07:25:14Z</time>
      </trkpt>
      <trkpt lat="43.44374" lon="1.81716">
        <ele>245.8</ele>
        <time>2015-07-18T07:25:19Z</time>
      </trkpt>
      <trkpt lat="43.44368" lon="1.81731">
        <ele>245.5</ele>
        <time>2015-07-18T07:25:25Z</time>
      </trkpt>
      <trkpt lat="43.44352" lon="1.81762">
        <ele>246.5</ele>
        <time>2015-07-18T07:25:35Z</time>
      </trkpt>
      <trkpt lat="43.4434" lon="1.81788">
        <ele>246</ele>
        <time>2015-07-18T07:25:41Z</time>
      </trkpt>
      <trkpt lat="43.4433" lon="1.81811">
        <ele>246</ele>
        <time>2015-07-18T07:25:47Z</time>
      </trkpt>
      <trkpt lat="43.44307" lon="1.81864">
        <ele>248.6</ele>
        <time>2015-07-18T07:26:01Z</time>
      </trkpt>
      <trkpt lat="43.44298" lon="1.81884">
        <ele>249.2</ele>
        <time>2015-07-18T07:26:06Z</time>
      </trkpt>
      <trkpt lat="43.44287" lon="1.81906">
        <ele>251.1</ele>
        <time>2015-07-18T07:26:14Z</time>
      </trkpt>
      <trkpt lat="43.44272" lon="1.81935">
        <ele>252.5</ele>
        <time>2015-07-18T07:26:19Z</time>
      </trkpt>
      <trkpt lat="43.4426" lon="1.81959">
        <ele>252.2</ele>
        <time>2015-07-18T07:26:26Z</time>
      </trkpt>
      <trkpt lat="43.44252" lon="1.81978">
        <ele>253.1</ele>
        <time>2015-07-18T07:26:32Z</time>
      </trkpt>
      <trkpt lat="43.44244" lon="1.81998">
        <ele>255</ele>
        <time>2015-07-18T07:26:37Z</time>
      </trkpt>
      <trkpt lat="43.44221" lon="1.82049">
        <ele>258.2</ele>
        <time>2015-07-18T07:26:52Z</time>
      </trkpt>
      <trkpt lat="43.44213" lon="1.82072">
        <ele>261.8</ele>
        <time>2015-07-18T07:26:58Z</time>
      </trkpt>
      <trkpt lat="43.44208" lon="1.82085">
        <ele>263.8</ele>
        <time>2015-07-18T07:27:03Z</time>
      </trkpt>
      <trkpt lat="43.44205" lon="1.82102">
        <ele>264</ele>
        <time>2015-07-18T07:27:08Z</time>
      </trkpt>
      <trkpt lat="43.442" lon="1.82119">
        <ele>263.7</ele>
        <time>2015-07-18T07:27:13Z</time>
      </trkpt>
      <trkpt lat="43.44193" lon="1.82138">
        <ele>264</ele>
        <time>2015-07-18T07:27:19Z</time>
      </trkpt>
      <trkpt lat="43.44187" lon="1.82153">
        <ele>264</ele>
        <time>2015-07-18T07:27:24Z</time>
      </trkpt>
      <trkpt lat="43.44184" lon="1.82169">
        <ele>265.3</ele>
        <time>2015-07-18T07:27:29Z</time>
      </trkpt>
      <trkpt lat="43.44176" lon="1.82189">
        <ele>267.3</ele>
        <time>2015-07-18T07:27:35Z</time>
      </trkpt>
      <trkpt lat="43.44168" lon="1.82202">
        <ele>268.7</ele>
        <time>2015-07-18T07:27:41Z</time>
      </trkpt>
      <trkpt lat="43.44158" lon="1.82208">
        <ele>270.8</ele>
        <time>2015-07-18T07:27:47Z</time>
      </trkpt>
      <trkpt lat="43.4415" lon="1.82199">
        <ele>271.6</ele>
        <time>2015-07-18T07:27:53Z</time>
      </trkpt>
      <trkpt lat="43.44147" lon="1.822">
        <ele>270.6</ele>
        <time>2015-07-18T07:27:58Z</time>
      </trkpt>
      <trkpt lat="43.44147" lon="1.822">
        <ele>270.6</ele>
        <time>2015-07-18T07:28:03Z</time>
      </trkpt>
      <trkpt lat="43.44147" lon="1.822">
        <ele>270.6</ele>
        <time>2015-07-18T07:28:09Z</time>
      </trkpt>
      <trkpt lat="43.44147" lon="1.822">
        <ele>270.6</ele>
        <time>2015-07-18T07:28:15Z</time>
      </trkpt>
      <trkpt lat="43.44147" lon="1.822">
        <ele>270.6</ele>
        <time>2015-07-18T07:28:21Z</time>
      </trkpt>
      <trkpt lat="43.44147" lon="1.822">
        <ele>270.6</ele>
        <time>2015-07-18T07:28:27Z</time>
      </trkpt>
      <trkpt lat="43.44147" lon="1.822">
        <ele>270.6</ele>
        <time>2015-07-18T07:28:32Z</time>
      </trkpt>
      <trkpt lat="43.44147" lon="1.822">
        <ele>270.6</ele>
        <time>2015-07-18T07:28:38Z</time>
      </trkpt>
      <trkpt lat="43.44147" lon="1.822">
        <ele>270.6</ele>
        <time>2015-07-18T07:28:43Z</time>
      </trkpt>
      <trkpt lat="43.44147" lon="1.822">
        <ele>270.6</ele>
        <time>2015-07-18T07:28:51Z</time>
      </trkpt>
      <trkpt lat="43.44147" lon="1.822">
        <ele>270.6</ele>
        <time>2015-07-18T07:28:59Z</time>
      </trkpt>
      <trkpt lat="43.44151" lon="1.82211">
        <ele>266.7</ele>
        <time>2015-07-18T07:29:04Z</time>
      </trkpt>
      <trkpt lat="43.44155" lon="1.82223">
        <ele>266.8</ele>
        <time>2015-07-18T07:29:09Z</time>
      </trkpt>
      <trkpt lat="43.44162" lon="1.82237">
        <ele>267</ele>
        <time>2015-07-18T07:29:15Z</time>
      </trkpt>
      <trkpt lat="43.44173" lon="1.82248">
        <ele>267.1</ele>
        <time>2015-07-18T07:29:21Z</time>
      </trkpt>
      <trkpt lat="43.4419" lon="1.82273">
        <ele>266.5</ele>
        <time>2015-07-18T07:29:27Z</time>
      </trkpt>
      <trkpt lat="43.44182" lon="1.82308">
        <ele>267</ele>
        <time>2015-07-18T07:29:32Z</time>
      </trkpt>
      <trkpt lat="43.44175" lon="1.82328">
        <ele>268.7</ele>
        <time>2015-07-18T07:29:40Z</time>
      </trkpt>
      <trkpt lat="43.44163" lon="1.82373">
        <ele>271.4</ele>
        <time>2015-07-18T07:29:46Z</time>
      </trkpt>
      <trkpt lat="43.44157" lon="1.82405">
        <ele>272.1</ele>
        <time>2015-07-18T07:29:51Z</time>
      </trkpt>
      <trkpt lat="43.44146" lon="1.82442">
        <ele>272.2</ele>
        <time>2015-07-18T07:29:57Z</time>
      </trkpt>
      <trkpt lat="43.44137" lon="1.82475">
        <ele>272.3</ele>
        <time>2015-07-18T07:30:02Z</time>
      </trkpt>
      <trkpt lat="43.44133" lon="1.82508">
        <ele>272.5</ele>
        <time>2015-07-18T07:30:07Z</time>
      </trkpt>
      <trkpt lat="43.44131" lon="1.82537">
        <ele>271.8</ele>
        <time>2015-07-18T07:30:12Z</time>
      </trkpt>
      <trkpt lat="43.44128" lon="1.8257">
        <ele>271.4</ele>
        <time>2015-07-18T07:30:18Z</time>
      </trkpt>
      <trkpt lat="43.44125" lon="1.82601">
        <ele>270.6</ele>
        <time>2015-07-18T07:30:24Z</time>
      </trkpt>
      <trkpt lat="43.44123" lon="1.82625">
        <ele>270.1</ele>
        <time>2015-07-18T07:30:30Z</time>
      </trkpt>
      <trkpt lat="43.4412" lon="1.82649">
        <ele>270.5</ele>
        <time>2015-07-18T07:30:36Z</time>
      </trkpt>
      <trkpt lat="43.44116" lon="1.82682">
        <ele>270.8</ele>
        <time>2015-07-18T07:30:42Z</time>
      </trkpt>
      <trkpt lat="43.44113" lon="1.82713">
        <ele>270.6</ele>
        <time>2015-07-18T07:30:47Z</time>
      </trkpt>
      <trkpt lat="43.44111" lon="1.82734">
        <ele>270.7</ele>
        <time>2015-07-18T07:30:53Z</time>
      </trkpt>
      <trkpt lat="43.44108" lon="1.82757">
        <ele>270.2</ele>
        <time>2015-07-18T07:30:59Z</time>
      </trkpt>
      <trkpt lat="43.44105" lon="1.82777">
        <ele>270.5</ele>
        <time>2015-07-18T07:31:04Z</time>
      </trkpt>
      <trkpt lat="43.44104" lon="1.82795">
        <ele>270.9</ele>
        <time>2015-07-18T07:31:12Z</time>
      </trkpt>
      <trkpt lat="43.44104" lon="1.82827">
        <ele>271.1</ele>
        <time>2015-07-18T07:31:17Z</time>
      </trkpt>
      <trkpt lat="43.44101" lon="1.8286">
        <ele>271.3</ele>
        <time>2015-07-18T07:31:23Z</time>
      </trkpt>
      <trkpt lat="43.44098" lon="1.8289">
        <ele>270.9</ele>
        <time>2015-07-18T07:31:28Z</time>
      </trkpt>
      <trkpt lat="43.44093" lon="1.82931">
        <ele>270.5</ele>
        <time>2015-07-18T07:31:35Z</time>
      </trkpt>
      <trkpt lat="43.44086" lon="1.83006">
        <ele>271.5</ele>
        <time>2015-07-18T07:31:46Z</time>
      </trkpt>
      <trkpt lat="43.44082" lon="1.83043">
        <ele>272.8</ele>
        <time>2015-07-18T07:31:52Z</time>
      </trkpt>
      <trkpt lat="43.44078" lon="1.8308">
        <ele>273</ele>
        <time>2015-07-18T07:31:57Z</time>
      </trkpt>
      <trkpt lat="43.44075" lon="1.83102">
        <ele>273.6</ele>
        <time>2015-07-18T07:32:03Z</time>
      </trkpt>
      <trkpt lat="43.4407" lon="1.83138">
        <ele>274.3</ele>
        <time>2015-07-18T07:32:08Z</time>
      </trkpt>
      <trkpt lat="43.44066" lon="1.83163">
        <ele>274.6</ele>
        <time>2015-07-18T07:32:14Z</time>
      </trkpt>
      <trkpt lat="43.44062" lon="1.83193">
        <ele>275.4</ele>
        <time>2015-07-18T07:32:20Z</time>
      </trkpt>
      <trkpt lat="43.44059" lon="1.83212">
        <ele>276</ele>
        <time>2015-07-18T07:32:26Z</time>
      </trkpt>
      <trkpt lat="43.44053" lon="1.83252">
        <ele>276.8</ele>
        <time>2015-07-18T07:32:32Z</time>
      </trkpt>
      <trkpt lat="43.44048" lon="1.83277">
        <ele>277.2</ele>
        <time>2015-07-18T07:32:38Z</time>
      </trkpt>
      <trkpt lat="43.44041" lon="1.83307">
        <ele>278</ele>
        <time>2015-07-18T07:32:45Z</time>
      </trkpt>
      <trkpt lat="43.44031" lon="1.83344">
        <ele>278.9</ele>
        <time>2015-07-18T07:32:51Z</time>
      </trkpt>
      <trkpt lat="43.44024" lon="1.83368">
        <ele>280.9</ele>
        <time>2015-07-18T07:32:57Z</time>
      </trkpt>
      <trkpt lat="43.44017" lon="1.83393">
        <ele>282.1</ele>
        <time>2015-07-18T07:33:03Z</time>
      </trkpt>
      <trkpt lat="43.44011" lon="1.83419">
        <ele>282.8</ele>
        <time>2015-07-18T07:33:08Z</time>
      </trkpt>
      <trkpt lat="43.44008" lon="1.83432">
        <ele>282.3</ele>
        <time>2015-07-18T07:33:15Z</time>
      </trkpt>
      <trkpt lat="43.44002" lon="1.83468">
        <ele>282.1</ele>
        <time>2015-07-18T07:33:21Z</time>
      </trkpt>
      <trkpt lat="43.43996" lon="1.83501">
        <ele>281.5</ele>
        <time>2015-07-18T07:33:26Z</time>
      </trkpt>
      <trkpt lat="43.43987" lon="1.83538">
        <ele>281.6</ele>
        <time>2015-07-18T07:33:32Z</time>
      </trkpt>
      <trkpt lat="43.43974" lon="1.83593">
        <ele>281.1</ele>
        <time>2015-07-18T07:33:41Z</time>
      </trkpt>
      <trkpt lat="43.43963" lon="1.83635">
        <ele>280.2</ele>
        <time>2015-07-18T07:33:47Z</time>
      </trkpt>
      <trkpt lat="43.43952" lon="1.83679">
        <ele>278.9</ele>
        <time>2015-07-18T07:33:54Z</time>
      </trkpt>
      <trkpt lat="43.43937" lon="1.83723">
        <ele>278</ele>
        <time>2015-07-18T07:33:59Z</time>
      </trkpt>
      <trkpt lat="43.43922" lon="1.83757">
        <ele>277.8</ele>
        <time>2015-07-18T07:34:05Z</time>
      </trkpt>
      <trkpt lat="43.43906" lon="1.83808">
        <ele>278.3</ele>
        <time>2015-07-18T07:34:10Z</time>
      </trkpt>
      <trkpt lat="43.43901" lon="1.8384">
        <ele>278.9</ele>
        <time>2015-07-18T07:34:16Z</time>
      </trkpt>
      <trkpt lat="43.43896" lon="1.83871">
        <ele>279.4</ele>
        <time>2015-07-18T07:34:21Z</time>
      </trkpt>
      <trkpt lat="43.43891" lon="1.83917">
        <ele>280.8</ele>
        <time>2015-07-18T07:34:29Z</time>
      </trkpt>
      <trkpt lat="43.43891" lon="1.83949">
        <ele>282</ele>
        <time>2015-07-18T07:34:35Z</time>
      </trkpt>
      <trkpt lat="43.43894" lon="1.83975">
        <ele>282.9</ele>
        <time>2015-07-18T07:34:40Z</time>
      </trkpt>
      <trkpt lat="43.43898" lon="1.84001">
        <ele>284.1</ele>
        <time>2015-07-18T07:34:47Z</time>
      </trkpt>
      <trkpt lat="43.439" lon="1.84044">
        <ele>286.2</ele>
        <time>2015-07-18T07:34:55Z</time>
      </trkpt>
      <trkpt lat="43.439" lon="1.84071">
        <ele>288.8</ele>
        <time>2015-07-18T07:35:01Z</time>
      </trkpt>
      <trkpt lat="43.43901" lon="1.84089">
        <ele>290.3</ele>
        <time>2015-07-18T07:35:06Z</time>
      </trkpt>
      <trkpt lat="43.43901" lon="1.84109">
        <ele>291.5</ele>
        <time>2015-07-18T07:35:11Z</time>
      </trkpt>
      <trkpt lat="43.43901" lon="1.84127">
        <ele>291.8</ele>
        <time>2015-07-18T07:35:16Z</time>
      </trkpt>
      <trkpt lat="43.43901" lon="1.84146">
        <ele>292</ele>
        <time>2015-07-18T07:35:23Z</time>
      </trkpt>
      <trkpt lat="43.43901" lon="1.84173">
        <ele>292.3</ele>
        <time>2015-07-18T07:35:29Z</time>
      </trkpt>
      <trkpt lat="43.43904" lon="1.84196">
        <ele>293.2</ele>
        <time>2015-07-18T07:35:35Z</time>
      </trkpt>
      <trkpt lat="43.43913" lon="1.84214">
        <ele>294.3</ele>
        <time>2015-07-18T07:35:41Z</time>
      </trkpt>
      <trkpt lat="43.43928" lon="1.84223">
        <ele>295.4</ele>
        <time>2015-07-18T07:35:48Z</time>
      </trkpt>
      <trkpt lat="43.43942" lon="1.84233">
        <ele>296</ele>
        <time>2015-07-18T07:35:54Z</time>
      </trkpt>
      <trkpt lat="43.43957" lon="1.84247">
        <ele>297.9</ele>
        <time>2015-07-18T07:35:59Z</time>
      </trkpt>
      <trkpt lat="43.43966" lon="1.84259">
        <ele>298.7</ele>
        <time>2015-07-18T07:36:06Z</time>
      </trkpt>
      <trkpt lat="43.43977" lon="1.84276">
        <ele>301.8</ele>
        <time>2015-07-18T07:36:11Z</time>
      </trkpt>
      <trkpt lat="43.43985" lon="1.84288">
        <ele>304</ele>
        <time>2015-07-18T07:36:16Z</time>
      </trkpt>
      <trkpt lat="43.43979" lon="1.84327">
        <ele>309.2</ele>
        <time>2015-07-18T07:36:32Z</time>
      </trkpt>
      <trkpt lat="43.43973" lon="1.84343">
        <ele>310.9</ele>
        <time>2015-07-18T07:36:37Z</time>
      </trkpt>
      <trkpt lat="43.43968" lon="1.84359">
        <ele>310.5</ele>
        <time>2015-07-18T07:36:43Z</time>
      </trkpt>
      <trkpt lat="43.43963" lon="1.84379">
        <ele>310.7</ele>
        <time>2015-07-18T07:36:48Z</time>
      </trkpt>
      <trkpt lat="43.43969" lon="1.84404">
        <ele>310.5</ele>
        <time>2015-07-18T07:36:54Z</time>
      </trkpt>
      <trkpt lat="43.43988" lon="1.84429">
        <ele>306.7</ele>
        <time>2015-07-18T07:37:00Z</time>
      </trkpt>
      <trkpt lat="43.43979" lon="1.84471">
        <ele>304.7</ele>
        <time>2015-07-18T07:37:06Z</time>
      </trkpt>
      <trkpt lat="43.43967" lon="1.84502">
        <ele>303.7</ele>
        <time>2015-07-18T07:37:11Z</time>
      </trkpt>
      <trkpt lat="43.43957" lon="1.84525">
        <ele>303.7</ele>
        <time>2015-07-18T07:37:17Z</time>
      </trkpt>
      <trkpt lat="43.43947" lon="1.84549">
        <ele>303.7</ele>
        <time>2015-07-18T07:37:22Z</time>
      </trkpt>
      <trkpt lat="43.43934" lon="1.84574">
        <ele>305.9</ele>
        <time>2015-07-18T07:37:27Z</time>
      </trkpt>
      <trkpt lat="43.43926" lon="1.84599">
        <ele>306.2</ele>
        <time>2015-07-18T07:37:33Z</time>
      </trkpt>
      <trkpt lat="43.43927" lon="1.8465">
        <ele>304.5</ele>
        <time>2015-07-18T07:37:39Z</time>
      </trkpt>
      <trkpt lat="43.43932" lon="1.84817">
        <ele>295.9</ele>
        <time>2015-07-18T07:38:00Z</time>
      </trkpt>
      <trkpt lat="43.43922" lon="1.84865">
        <ele>295.6</ele>
        <time>2015-07-18T07:38:06Z</time>
      </trkpt>
      <trkpt lat="43.4391" lon="1.84904">
        <ele>296.4</ele>
        <time>2015-07-18T07:38:12Z</time>
      </trkpt>
      <trkpt lat="43.43912" lon="1.84979">
        <ele>296.5</ele>
        <time>2015-07-18T07:38:25Z</time>
      </trkpt>
      <trkpt lat="43.43913" lon="1.8501">
        <ele>297</ele>
        <time>2015-07-18T07:38:31Z</time>
      </trkpt>
      <trkpt lat="43.43913" lon="1.85038">
        <ele>296.9</ele>
        <time>2015-07-18T07:38:36Z</time>
      </trkpt>
      <trkpt lat="43.43911" lon="1.85069">
        <ele>296.9</ele>
        <time>2015-07-18T07:38:43Z</time>
      </trkpt>
      <trkpt lat="43.43909" lon="1.85093">
        <ele>296.9</ele>
        <time>2015-07-18T07:38:48Z</time>
      </trkpt>
      <trkpt lat="43.43905" lon="1.85124">
        <ele>296.3</ele>
        <time>2015-07-18T07:38:56Z</time>
      </trkpt>
      <trkpt lat="43.43892" lon="1.85159">
        <ele>297.7</ele>
        <time>2015-07-18T07:39:01Z</time>
      </trkpt>
      <trkpt lat="43.43878" lon="1.85189">
        <ele>299</ele>
        <time>2015-07-18T07:39:07Z</time>
      </trkpt>
      <trkpt lat="43.43866" lon="1.85221">
        <ele>300.7</ele>
        <time>2015-07-18T07:39:13Z</time>
      </trkpt>
      <trkpt lat="43.43858" lon="1.85248">
        <ele>300.4</ele>
        <time>2015-07-18T07:39:18Z</time>
      </trkpt>
      <trkpt lat="43.43851" lon="1.8528">
        <ele>300.5</ele>
        <time>2015-07-18T07:39:24Z</time>
      </trkpt>
      <trkpt lat="43.4385" lon="1.8531">
        <ele>302.4</ele>
        <time>2015-07-18T07:39:30Z</time>
      </trkpt>
      <trkpt lat="43.43851" lon="1.85335">
        <ele>303.2</ele>
        <time>2015-07-18T07:39:35Z</time>
      </trkpt>
      <trkpt lat="43.43849" lon="1.85364">
        <ele>304.4</ele>
        <time>2015-07-18T07:39:40Z</time>
      </trkpt>
      <trkpt lat="43.43844" lon="1.85385">
        <ele>304.6</ele>
        <time>2015-07-18T07:39:46Z</time>
      </trkpt>
      <trkpt lat="43.43839" lon="1.85408">
        <ele>304.8</ele>
        <time>2015-07-18T07:39:52Z</time>
      </trkpt>
      <trkpt lat="43.43835" lon="1.85423">
        <ele>305.2</ele>
        <time>2015-07-18T07:39:57Z</time>
      </trkpt>
      <trkpt lat="43.43829" lon="1.85445">
        <ele>308.4</ele>
        <time>2015-07-18T07:40:03Z</time>
      </trkpt>
      <trkpt lat="43.43825" lon="1.85459">
        <ele>312.1</ele>
        <time>2015-07-18T07:40:08Z</time>
      </trkpt>
      <trkpt lat="43.43823" lon="1.85478">
        <ele>313.1</ele>
        <time>2015-07-18T07:40:13Z</time>
      </trkpt>
      <trkpt lat="43.43818" lon="1.85494">
        <ele>313.5</ele>
        <time>2015-07-18T07:40:19Z</time>
      </trkpt>
      <trkpt lat="43.43813" lon="1.85508">
        <ele>312.9</ele>
        <time>2015-07-18T07:40:25Z</time>
      </trkpt>
      <trkpt lat="43.43789" lon="1.85555">
        <ele>308.6</ele>
        <time>2015-07-18T07:40:39Z</time>
      </trkpt>
      <trkpt lat="43.43752" lon="1.8562">
        <ele>304.5</ele>
        <time>2015-07-18T07:40:44Z</time>
      </trkpt>
      <trkpt lat="43.4374" lon="1.8564">
        <ele>304</ele>
        <time>2015-07-18T07:40:50Z</time>
      </trkpt>
      <trkpt lat="43.43723" lon="1.85669">
        <ele>304.6</ele>
        <time>2015-07-18T07:40:56Z</time>
      </trkpt>
      <trkpt lat="43.43715" lon="1.85684">
        <ele>303.9</ele>
        <time>2015-07-18T07:41:01Z</time>
      </trkpt>
      <trkpt lat="43.43713" lon="1.85688">
        <ele>302.7</ele>
        <time>2015-07-18T07:41:08Z</time>
      </trkpt>
      <trkpt lat="43.43707" lon="1.85696">
        <ele>302.1</ele>
        <time>2015-07-18T07:41:13Z</time>
      </trkpt>
      <trkpt lat="43.43703" lon="1.85702">
        <ele>302.5</ele>
        <time>2015-07-18T07:41:18Z</time>
      </trkpt>
      <trkpt lat="43.43698" lon="1.85707">
        <ele>303.1</ele>
        <time>2015-07-18T07:41:24Z</time>
      </trkpt>
      <trkpt lat="43.43693" lon="1.85714">
        <ele>303.2</ele>
        <time>2015-07-18T07:41:29Z</time>
      </trkpt>
      <trkpt lat="43.43689" lon="1.85723">
        <ele>303.3</ele>
        <time>2015-07-18T07:41:35Z</time>
      </trkpt>
      <trkpt lat="43.43684" lon="1.85729">
        <ele>304.4</ele>
        <time>2015-07-18T07:41:41Z</time>
      </trkpt>
      <trkpt lat="43.43679" lon="1.85735">
        <ele>306</ele>
        <time>2015-07-18T07:41:47Z</time>
      </trkpt>
      <trkpt lat="43.43677" lon="1.85742">
        <ele>307</ele>
        <time>2015-07-18T07:41:53Z</time>
      </trkpt>
      <trkpt lat="43.43676" lon="1.85743">
        <ele>306.6</ele>
        <time>2015-07-18T07:41:59Z</time>
      </trkpt>
      <trkpt lat="43.43676" lon="1.85743">
        <ele>306.6</ele>
        <time>2015-07-18T07:42:05Z</time>
      </trkpt>
      <trkpt lat="43.43676" lon="1.85743">
        <ele>306.6</ele>
        <time>2015-07-18T07:42:11Z</time>
      </trkpt>
      <trkpt lat="43.43676" lon="1.85743">
        <ele>306.6</ele>
        <time>2015-07-18T07:42:16Z</time>
      </trkpt>
      <trkpt lat="43.43676" lon="1.85743">
        <ele>306.6</ele>
        <time>2015-07-18T07:42:22Z</time>
      </trkpt>
      <trkpt lat="43.43676" lon="1.85743">
        <ele>306.6</ele>
        <time>2015-07-18T07:42:28Z</time>
      </trkpt>
      <trkpt lat="43.43676" lon="1.85743">
        <ele>306.6</ele>
        <time>2015-07-18T07:42:33Z</time>
      </trkpt>
      <trkpt lat="43.43676" lon="1.85743">
        <ele>306.6</ele>
        <time>2015-07-18T07:42:39Z</time>
      </trkpt>
      <trkpt lat="43.43676" lon="1.85743">
        <ele>306.6</ele>
        <time>2015-07-18T07:42:44Z</time>
      </trkpt>
      <trkpt lat="43.43676" lon="1.85743">
        <ele>306.6</ele>
        <time>2015-07-18T07:42:51Z</time>
      </trkpt>
      <trkpt lat="43.43676" lon="1.85743">
        <ele>306.6</ele>
        <time>2015-07-18T07:42:58Z</time>
      </trkpt>
      <trkpt lat="43.43676" lon="1.85743">
        <ele>306.6</ele>
        <time>2015-07-18T07:43:07Z</time>
      </trkpt>
      <trkpt lat="43.43676" lon="1.85743">
        <ele>306.6</ele>
        <time>2015-07-18T07:43:13Z</time>
      </trkpt>
      <trkpt lat="43.43676" lon="1.85743">
        <ele>306.6</ele>
        <time>2015-07-18T07:43:18Z</time>
      </trkpt>
      <trkpt lat="43.43679" lon="1.8575">
        <ele>305.6</ele>
        <time>2015-07-18T07:43:23Z</time>
      </trkpt>
      <trkpt lat="43.43684" lon="1.85753">
        <ele>306.7</ele>
        <time>2015-07-18T07:43:29Z</time>
      </trkpt>
      <trkpt lat="43.43685" lon="1.85757">
        <ele>307.6</ele>
        <time>2015-07-18T07:43:36Z</time>
      </trkpt>
      <trkpt lat="43.43688" lon="1.85762">
        <ele>309.2</ele>
        <time>2015-07-18T07:43:54Z</time>
      </trkpt>
      <trkpt lat="43.43689" lon="1.85768">
        <ele>310.1</ele>
        <time>2015-07-18T07:43:59Z</time>
      </trkpt>
      <trkpt lat="43.4369" lon="1.85771">
        <ele>310.7</ele>
        <time>2015-07-18T07:44:05Z</time>
      </trkpt>
      <trkpt lat="43.43691" lon="1.8577">
        <ele>310.8</ele>
        <time>2015-07-18T07:44:11Z</time>
      </trkpt>
      <trkpt lat="43.43688" lon="1.85766">
        <ele>310.9</ele>
        <time>2015-07-18T07:44:16Z</time>
      </trkpt>
      <trkpt lat="43.43688" lon="1.85767">
        <ele>310.9</ele>
        <time>2015-07-18T07:44:22Z</time>
      </trkpt>
      <trkpt lat="43.43688" lon="1.85767">
        <ele>310.9</ele>
        <time>2015-07-18T07:44:28Z</time>
      </trkpt>
      <trkpt lat="43.43688" lon="1.85767">
        <ele>310.9</ele>
        <time>2015-07-18T07:44:34Z</time>
      </trkpt>
      <trkpt lat="43.43688" lon="1.85767">
        <ele>310.9</ele>
        <time>2015-07-18T07:44:39Z</time>
      </trkpt>
      <trkpt lat="43.43688" lon="1.85767">
        <ele>310.9</ele>
        <time>2015-07-18T07:44:44Z</time>
      </trkpt>
      <trkpt lat="43.43688" lon="1.85767">
        <ele>310.9</ele>
        <time>2015-07-18T07:44:50Z</time>
      </trkpt>
      <trkpt lat="43.43688" lon="1.85767">
        <ele>310.9</ele>
        <time>2015-07-18T07:44:56Z</time>
      </trkpt>
      <trkpt lat="43.43688" lon="1.85767">
        <ele>310.9</ele>
        <time>2015-07-18T07:45:01Z</time>
      </trkpt>
      <trkpt lat="43.43688" lon="1.85767">
        <ele>310.9</ele>
        <time>2015-07-18T07:45:07Z</time>
      </trkpt>
      <trkpt lat="43.43688" lon="1.85767">
        <ele>310.9</ele>
        <time>2015-07-18T07:45:13Z</time>
      </trkpt>
      <trkpt lat="43.43688" lon="1.85767">
        <ele>310.9</ele>
        <time>2015-07-18T07:45:18Z</time>
      </trkpt>
      <trkpt lat="43.43688" lon="1.85767">
        <ele>310.9</ele>
        <time>2015-07-18T07:45:25Z</time>
      </trkpt>
      <trkpt lat="43.43688" lon="1.85767">
        <ele>310.9</ele>
        <time>2015-07-18T07:45:31Z</time>
      </trkpt>
      <trkpt lat="43.43688" lon="1.85767">
        <ele>310.9</ele>
        <time>2015-07-18T07:45:55Z</time>
      </trkpt>
      <trkpt lat="43.43688" lon="1.85767">
        <ele>310.9</ele>
        <time>2015-07-18T07:46:01Z</time>
      </trkpt>
      <trkpt lat="43.43688" lon="1.85767">
        <ele>310.9</ele>
        <time>2015-07-18T07:46:06Z</time>
      </trkpt>
      <trkpt lat="43.43688" lon="1.85767">
        <ele>310.9</ele>
        <time>2015-07-18T07:46:13Z</time>
      </trkpt>
      <trkpt lat="43.43681" lon="1.8576">
        <ele>310</ele>
        <time>2015-07-18T07:46:19Z</time>
      </trkpt>
      <trkpt lat="43.43667" lon="1.85755">
        <ele>311.5</ele>
        <time>2015-07-18T07:46:24Z</time>
      </trkpt>
      <trkpt lat="43.43646" lon="1.8575">
        <ele>312.3</ele>
        <time>2015-07-18T07:46:29Z</time>
      </trkpt>
      <trkpt lat="43.43622" lon="1.85747">
        <ele>311.1</ele>
        <time>2015-07-18T07:46:35Z</time>
      </trkpt>
      <trkpt lat="43.43596" lon="1.85739">
        <ele>309.2</ele>
        <time>2015-07-18T07:46:40Z</time>
      </trkpt>
      <trkpt lat="43.43539" lon="1.85698">
        <ele>302.5</ele>
        <time>2015-07-18T07:46:50Z</time>
      </trkpt>
      <trkpt lat="43.43529" lon="1.85679">
        <ele>301</ele>
        <time>2015-07-18T07:46:55Z</time>
      </trkpt>
      <trkpt lat="43.43548" lon="1.85664">
        <ele>298.2</ele>
        <time>2015-07-18T07:47:00Z</time>
      </trkpt>
      <trkpt lat="43.43572" lon="1.8564">
        <ele>295.5</ele>
        <time>2015-07-18T07:47:15Z</time>
      </trkpt>
      <trkpt lat="43.43594" lon="1.85617">
        <ele>291.8</ele>
        <time>2015-07-18T07:47:20Z</time>
      </trkpt>
      <trkpt lat="43.43625" lon="1.85579">
        <ele>287.7</ele>
        <time>2015-07-18T07:47:28Z</time>
      </trkpt>
      <trkpt lat="43.43647" lon="1.85547">
        <ele>283.9</ele>
        <time>2015-07-18T07:47:34Z</time>
      </trkpt>
      <trkpt lat="43.43667" lon="1.85513">
        <ele>281</ele>
        <time>2015-07-18T07:47:40Z</time>
      </trkpt>
      <trkpt lat="43.4368" lon="1.85483">
        <ele>279.8</ele>
        <time>2015-07-18T07:47:45Z</time>
      </trkpt>
      <trkpt lat="43.43689" lon="1.85447">
        <ele>278.3</ele>
        <time>2015-07-18T07:47:50Z</time>
      </trkpt>
      <trkpt lat="43.43695" lon="1.85421">
        <ele>277.8</ele>
        <time>2015-07-18T07:47:56Z</time>
      </trkpt>
      <trkpt lat="43.43708" lon="1.85376">
        <ele>277.7</ele>
        <time>2015-07-18T07:48:02Z</time>
      </trkpt>
      <trkpt lat="43.43722" lon="1.85328">
        <ele>275.5</ele>
        <time>2015-07-18T07:48:07Z</time>
      </trkpt>
      <trkpt lat="43.43737" lon="1.85279">
        <ele>271.6</ele>
        <time>2015-07-18T07:48:12Z</time>
      </trkpt>
      <trkpt lat="43.43747" lon="1.85242">
        <ele>269.7</ele>
        <time>2015-07-18T07:48:18Z</time>
      </trkpt>
      <trkpt lat="43.43756" lon="1.85204">
        <ele>268</ele>
        <time>2015-07-18T07:48:23Z</time>
      </trkpt>
      <trkpt lat="43.4376" lon="1.8517">
        <ele>267.1</ele>
        <time>2015-07-18T07:48:28Z</time>
      </trkpt>
      <trkpt lat="43.4376" lon="1.85133">
        <ele>266</ele>
        <time>2015-07-18T07:48:34Z</time>
      </trkpt>
      <trkpt lat="43.43759" lon="1.85108">
        <ele>265.2</ele>
        <time>2015-07-18T07:48:40Z</time>
      </trkpt>
      <trkpt lat="43.43758" lon="1.85072">
        <ele>264.4</ele>
        <time>2015-07-18T07:48:46Z</time>
      </trkpt>
      <trkpt lat="43.43758" lon="1.85048">
        <ele>265</ele>
        <time>2015-07-18T07:48:51Z</time>
      </trkpt>
      <trkpt lat="43.43756" lon="1.85026">
        <ele>267</ele>
        <time>2015-07-18T07:48:56Z</time>
      </trkpt>
      <trkpt lat="43.43755" lon="1.85003">
        <ele>267.2</ele>
        <time>2015-07-18T07:49:01Z</time>
      </trkpt>
      <trkpt lat="43.43754" lon="1.84977">
        <ele>265.2</ele>
        <time>2015-07-18T07:49:07Z</time>
      </trkpt>
      <trkpt lat="43.43751" lon="1.84944">
        <ele>264</ele>
        <time>2015-07-18T07:49:13Z</time>
      </trkpt>
      <trkpt lat="43.4375" lon="1.84914">
        <ele>262</ele>
        <time>2015-07-18T07:49:18Z</time>
      </trkpt>
      <trkpt lat="43.43748" lon="1.84881">
        <ele>260.5</ele>
        <time>2015-07-18T07:49:24Z</time>
      </trkpt>
      <trkpt lat="43.43747" lon="1.84854">
        <ele>259.9</ele>
        <time>2015-07-18T07:49:29Z</time>
      </trkpt>
      <trkpt lat="43.43744" lon="1.84825">
        <ele>260.1</ele>
        <time>2015-07-18T07:49:35Z</time>
      </trkpt>
      <trkpt lat="43.43743" lon="1.84795">
        <ele>262.3</ele>
        <time>2015-07-18T07:49:44Z</time>
      </trkpt>
      <trkpt lat="43.43744" lon="1.84781">
        <ele>264.4</ele>
        <time>2015-07-18T07:49:50Z</time>
      </trkpt>
      <trkpt lat="43.43745" lon="1.84763">
        <ele>264.9</ele>
        <time>2015-07-18T07:49:56Z</time>
      </trkpt>
      <trkpt lat="43.43745" lon="1.84763">
        <ele>264.4</ele>
        <time>2015-07-18T07:50:02Z</time>
      </trkpt>
      <trkpt lat="43.43745" lon="1.84763">
        <ele>264.4</ele>
        <time>2015-07-18T07:50:07Z</time>
      </trkpt>
      <trkpt lat="43.43745" lon="1.84763">
        <ele>264.4</ele>
        <time>2015-07-18T07:50:12Z</time>
      </trkpt>
      <trkpt lat="43.43745" lon="1.84763">
        <ele>264.4</ele>
        <time>2015-07-18T07:50:17Z</time>
      </trkpt>
      <trkpt lat="43.43745" lon="1.84763">
        <ele>264.4</ele>
        <time>2015-07-18T07:50:23Z</time>
      </trkpt>
      <trkpt lat="43.43745" lon="1.84763">
        <ele>264.4</ele>
        <time>2015-07-18T07:50:29Z</time>
      </trkpt>
      <trkpt lat="43.43746" lon="1.84757">
        <ele>260.9</ele>
        <time>2015-07-18T07:50:34Z</time>
      </trkpt>
      <trkpt lat="43.43746" lon="1.84756">
        <ele>260.8</ele>
        <time>2015-07-18T07:50:39Z</time>
      </trkpt>
      <trkpt lat="43.43746" lon="1.84756">
        <ele>260.8</ele>
        <time>2015-07-18T07:50:45Z</time>
      </trkpt>
      <trkpt lat="43.43746" lon="1.84756">
        <ele>260.8</ele>
        <time>2015-07-18T07:50:54Z</time>
      </trkpt>
      <trkpt lat="43.43746" lon="1.84756">
        <ele>260.8</ele>
        <time>2015-07-18T07:51:00Z</time>
      </trkpt>
      <trkpt lat="43.4375" lon="1.84759">
        <ele>258.8</ele>
        <time>2015-07-18T07:51:05Z</time>
      </trkpt>
      <trkpt lat="43.43749" lon="1.84767">
        <ele>258.2</ele>
        <time>2015-07-18T07:51:11Z</time>
      </trkpt>
      <trkpt lat="43.43748" lon="1.8478">
        <ele>256.8</ele>
        <time>2015-07-18T07:51:16Z</time>
      </trkpt>
      <trkpt lat="43.43747" lon="1.84789">
        <ele>256.8</ele>
        <time>2015-07-18T07:51:22Z</time>
      </trkpt>
      <trkpt lat="43.43746" lon="1.84797">
        <ele>256.3</ele>
        <time>2015-07-18T07:51:28Z</time>
      </trkpt>
      <trkpt lat="43.43747" lon="1.84811">
        <ele>254.5</ele>
        <time>2015-07-18T07:51:35Z</time>
      </trkpt>
      <trkpt lat="43.43747" lon="1.84821">
        <ele>254</ele>
        <time>2015-07-18T07:51:43Z</time>
      </trkpt>
      <trkpt lat="43.43747" lon="1.84821">
        <ele>254</ele>
        <time>2015-07-18T07:51:49Z</time>
      </trkpt>
      <trkpt lat="43.4375" lon="1.84835">
        <ele>254.4</ele>
        <time>2015-07-18T07:51:54Z</time>
      </trkpt>
      <trkpt lat="43.43751" lon="1.84841">
        <ele>254.5</ele>
        <time>2015-07-18T07:51:59Z</time>
      </trkpt>
      <trkpt lat="43.43751" lon="1.8486">
        <ele>255.5</ele>
        <time>2015-07-18T07:52:07Z</time>
      </trkpt>
      <trkpt lat="43.4375" lon="1.84874">
        <ele>255.9</ele>
        <time>2015-07-18T07:52:12Z</time>
      </trkpt>
      <trkpt lat="43.4375" lon="1.84886">
        <ele>256.4</ele>
        <time>2015-07-18T07:52:18Z</time>
      </trkpt>
      <trkpt lat="43.43749" lon="1.84898">
        <ele>256.9</ele>
        <time>2015-07-18T07:52:23Z</time>
      </trkpt>
      <trkpt lat="43.43751" lon="1.8491">
        <ele>257.5</ele>
        <time>2015-07-18T07:52:29Z</time>
      </trkpt>
      <trkpt lat="43.43751" lon="1.84921">
        <ele>257.6</ele>
        <time>2015-07-18T07:52:36Z</time>
      </trkpt>
      <trkpt lat="43.43752" lon="1.84932">
        <ele>258.4</ele>
        <time>2015-07-18T07:52:42Z</time>
      </trkpt>
      <trkpt lat="43.43752" lon="1.84944">
        <ele>259.2</ele>
        <time>2015-07-18T07:52:47Z</time>
      </trkpt>
      <trkpt lat="43.43756" lon="1.84968">
        <ele>259.3</ele>
        <time>2015-07-18T07:53:00Z</time>
      </trkpt>
      <trkpt lat="43.43757" lon="1.84977">
        <ele>259.3</ele>
        <time>2015-07-18T07:53:06Z</time>
      </trkpt>
      <trkpt lat="43.43756" lon="1.8499">
        <ele>259</ele>
        <time>2015-07-18T07:53:15Z</time>
      </trkpt>
      <trkpt lat="43.43755" lon="1.85004">
        <ele>259.5</ele>
        <time>2015-07-18T07:53:20Z</time>
      </trkpt>
      <trkpt lat="43.43756" lon="1.85015">
        <ele>260.1</ele>
        <time>2015-07-18T07:53:26Z</time>
      </trkpt>
      <trkpt lat="43.43755" lon="1.8503">
        <ele>260.4</ele>
        <time>2015-07-18T07:53:33Z</time>
      </trkpt>
      <trkpt lat="43.43758" lon="1.85071">
        <ele>260</ele>
        <time>2015-07-18T07:53:55Z</time>
      </trkpt>
      <trkpt lat="43.43759" lon="1.85084">
        <ele>259.8</ele>
        <time>2015-07-18T07:54:03Z</time>
      </trkpt>
      <trkpt lat="43.4376" lon="1.85096">
        <ele>260</ele>
        <time>2015-07-18T07:54:10Z</time>
      </trkpt>
      <trkpt lat="43.43761" lon="1.8511">
        <ele>260.1</ele>
        <time>2015-07-18T07:54:15Z</time>
      </trkpt>
      <trkpt lat="43.43761" lon="1.85122">
        <ele>260.1</ele>
        <time>2015-07-18T07:54:20Z</time>
      </trkpt>
      <trkpt lat="43.43762" lon="1.85132">
        <ele>259.4</ele>
        <time>2015-07-18T07:54:25Z</time>
      </trkpt>
      <trkpt lat="43.43762" lon="1.85144">
        <ele>258.7</ele>
        <time>2015-07-18T07:54:34Z</time>
      </trkpt>
      <trkpt lat="43.43762" lon="1.85154">
        <ele>258.3</ele>
        <time>2015-07-18T07:54:40Z</time>
      </trkpt>
      <trkpt lat="43.43762" lon="1.85164">
        <ele>257.9</ele>
        <time>2015-07-18T07:54:45Z</time>
      </trkpt>
      <trkpt lat="43.43762" lon="1.85175">
        <ele>257.3</ele>
        <time>2015-07-18T07:54:51Z</time>
      </trkpt>
      <trkpt lat="43.43761" lon="1.85186">
        <ele>256.7</ele>
        <time>2015-07-18T07:54:57Z</time>
      </trkpt>
      <trkpt lat="43.4376" lon="1.85195">
        <ele>256</ele>
        <time>2015-07-18T07:55:03Z</time>
      </trkpt>
      <trkpt lat="43.43757" lon="1.85207">
        <ele>256.2</ele>
        <time>2015-07-18T07:55:09Z</time>
      </trkpt>
      <trkpt lat="43.43749" lon="1.8523">
        <ele>254.2</ele>
        <time>2015-07-18T07:55:20Z</time>
      </trkpt>
      <trkpt lat="43.43746" lon="1.85241">
        <ele>252.7</ele>
        <time>2015-07-18T07:55:25Z</time>
      </trkpt>
      <trkpt lat="43.43744" lon="1.8525">
        <ele>252.5</ele>
        <time>2015-07-18T07:55:30Z</time>
      </trkpt>
      <trkpt lat="43.43741" lon="1.85262">
        <ele>252.7</ele>
        <time>2015-07-18T07:55:36Z</time>
      </trkpt>
      <trkpt lat="43.43739" lon="1.85271">
        <ele>252.7</ele>
        <time>2015-07-18T07:55:42Z</time>
      </trkpt>
      <trkpt lat="43.43735" lon="1.85283">
        <ele>253</ele>
        <time>2015-07-18T07:55:48Z</time>
      </trkpt>
      <trkpt lat="43.43732" lon="1.85296">
        <ele>253.2</ele>
        <time>2015-07-18T07:55:54Z</time>
      </trkpt>
      <trkpt lat="43.43731" lon="1.85298">
        <ele>253.3</ele>
        <time>2015-07-18T07:55:59Z</time>
      </trkpt>
      <trkpt lat="43.43728" lon="1.85313">
        <ele>253.5</ele>
        <time>2015-07-18T07:56:05Z</time>
      </trkpt>
      <trkpt lat="43.43727" lon="1.85321">
        <ele>253.8</ele>
        <time>2015-07-18T07:56:10Z</time>
      </trkpt>
      <trkpt lat="43.43725" lon="1.85327">
        <ele>254.1</ele>
        <time>2015-07-18T07:56:15Z</time>
      </trkpt>
      <trkpt lat="43.43721" lon="1.85337">
        <ele>254.5</ele>
        <time>2015-07-18T07:56:21Z</time>
      </trkpt>
      <trkpt lat="43.43717" lon="1.85347">
        <ele>253.3</ele>
        <time>2015-07-18T07:56:26Z</time>
      </trkpt>
      <trkpt lat="43.43715" lon="1.85354">
        <ele>251.9</ele>
        <time>2015-07-18T07:56:32Z</time>
      </trkpt>
      <trkpt lat="43.4371" lon="1.85363">
        <ele>251.9</ele>
        <time>2015-07-18T07:56:38Z</time>
      </trkpt>
      <trkpt lat="43.43707" lon="1.85376">
        <ele>251.8</ele>
        <time>2015-07-18T07:56:44Z</time>
      </trkpt>
      <trkpt lat="43.43705" lon="1.85386">
        <ele>252.2</ele>
        <time>2015-07-18T07:56:50Z</time>
      </trkpt>
      <trkpt lat="43.43703" lon="1.85396">
        <ele>252.2</ele>
        <time>2015-07-18T07:56:55Z</time>
      </trkpt>
      <trkpt lat="43.43701" lon="1.85405">
        <ele>251.8</ele>
        <time>2015-07-18T07:57:01Z</time>
      </trkpt>
      <trkpt lat="43.437" lon="1.85412">
        <ele>251.4</ele>
        <time>2015-07-18T07:57:11Z</time>
      </trkpt>
      <trkpt lat="43.43696" lon="1.85428">
        <ele>251.7</ele>
        <time>2015-07-18T07:57:16Z</time>
      </trkpt>
      <trkpt lat="43.43694" lon="1.85439">
        <ele>251.5</ele>
        <time>2015-07-18T07:57:22Z</time>
      </trkpt>
      <trkpt lat="43.43691" lon="1.8545">
        <ele>251</ele>
        <time>2015-07-18T07:57:27Z</time>
      </trkpt>
      <trkpt lat="43.43688" lon="1.85458">
        <ele>251</ele>
        <time>2015-07-18T07:57:33Z</time>
      </trkpt>
      <trkpt lat="43.43684" lon="1.85468">
        <ele>250.8</ele>
        <time>2015-07-18T07:57:39Z</time>
      </trkpt>
      <trkpt lat="43.43677" lon="1.85487">
        <ele>252.6</ele>
        <time>2015-07-18T07:57:44Z</time>
      </trkpt>
      <trkpt lat="43.43673" lon="1.85497">
        <ele>253.8</ele>
        <time>2015-07-18T07:57:49Z</time>
      </trkpt>
      <trkpt lat="43.43669" lon="1.85508">
        <ele>256.1</ele>
        <time>2015-07-18T07:57:54Z</time>
      </trkpt>
      <trkpt lat="43.43669" lon="1.85511">
        <ele>256.7</ele>
        <time>2015-07-18T07:57:59Z</time>
      </trkpt>
      <trkpt lat="43.43666" lon="1.85516">
        <ele>259.8</ele>
        <time>2015-07-18T07:58:06Z</time>
      </trkpt>
      <trkpt lat="43.43661" lon="1.85523">
        <ele>260</ele>
        <time>2015-07-18T07:58:11Z</time>
      </trkpt>
      <trkpt lat="43.43658" lon="1.8553">
        <ele>260.1</ele>
        <time>2015-07-18T07:58:17Z</time>
      </trkpt>
      <trkpt lat="43.43648" lon="1.85541">
        <ele>260</ele>
        <time>2015-07-18T07:58:26Z</time>
      </trkpt>
      <trkpt lat="43.43643" lon="1.85549">
        <ele>259.8</ele>
        <time>2015-07-18T07:58:31Z</time>
      </trkpt>
      <trkpt lat="43.43638" lon="1.85556">
        <ele>259.8</ele>
        <time>2015-07-18T07:58:37Z</time>
      </trkpt>
      <trkpt lat="43.43625" lon="1.85573">
        <ele>257.5</ele>
        <time>2015-07-18T07:58:51Z</time>
      </trkpt>
      <trkpt lat="43.43619" lon="1.8558">
        <ele>255.8</ele>
        <time>2015-07-18T07:58:56Z</time>
      </trkpt>
      <trkpt lat="43.43614" lon="1.85587">
        <ele>254.8</ele>
        <time>2015-07-18T07:59:03Z</time>
      </trkpt>
      <trkpt lat="43.43607" lon="1.85593">
        <ele>252.9</ele>
        <time>2015-07-18T07:59:09Z</time>
      </trkpt>
      <trkpt lat="43.43599" lon="1.85601">
        <ele>252.6</ele>
        <time>2015-07-18T07:59:14Z</time>
      </trkpt>
      <trkpt lat="43.43594" lon="1.85605">
        <ele>253.2</ele>
        <time>2015-07-18T07:59:19Z</time>
      </trkpt>
      <trkpt lat="43.43588" lon="1.85612">
        <ele>254.7</ele>
        <time>2015-07-18T07:59:24Z</time>
      </trkpt>
      <trkpt lat="43.43582" lon="1.85622">
        <ele>257.9</ele>
        <time>2015-07-18T07:59:29Z</time>
      </trkpt>
      <trkpt lat="43.43576" lon="1.85628">
        <ele>259.6</ele>
        <time>2015-07-18T07:59:35Z</time>
      </trkpt>
      <trkpt lat="43.4357" lon="1.85633">
        <ele>260.9</ele>
        <time>2015-07-18T07:59:40Z</time>
      </trkpt>
      <trkpt lat="43.43562" lon="1.85638">
        <ele>263</ele>
        <time>2015-07-18T07:59:46Z</time>
      </trkpt>
      <trkpt lat="43.43555" lon="1.85646">
        <ele>265.9</ele>
        <time>2015-07-18T07:59:51Z</time>
      </trkpt>
      <trkpt lat="43.43549" lon="1.85652">
        <ele>267.4</ele>
        <time>2015-07-18T07:59:58Z</time>
      </trkpt>
      <trkpt lat="43.43542" lon="1.85657">
        <ele>268.2</ele>
        <time>2015-07-18T08:00:03Z</time>
      </trkpt>
      <trkpt lat="43.43536" lon="1.85661">
        <ele>268.4</ele>
        <time>2015-07-18T08:00:10Z</time>
      </trkpt>
      <trkpt lat="43.4353" lon="1.85667">
        <ele>270.7</ele>
        <time>2015-07-18T08:00:16Z</time>
      </trkpt>
      <trkpt lat="43.4353" lon="1.85668">
        <ele>271.5</ele>
        <time>2015-07-18T08:00:21Z</time>
      </trkpt>
      <trkpt lat="43.4353" lon="1.85668">
        <ele>271.5</ele>
        <time>2015-07-18T08:00:26Z</time>
      </trkpt>
      <trkpt lat="43.4353" lon="1.85668">
        <ele>271.5</ele>
        <time>2015-07-18T08:00:31Z</time>
      </trkpt>
      <trkpt lat="43.4353" lon="1.85668">
        <ele>271.5</ele>
        <time>2015-07-18T08:00:36Z</time>
      </trkpt>
      <trkpt lat="43.43527" lon="1.85677">
        <ele>278.7</ele>
        <time>2015-07-18T08:00:41Z</time>
      </trkpt>
      <trkpt lat="43.43529" lon="1.85675">
        <ele>278.4</ele>
        <time>2015-07-18T08:00:47Z</time>
      </trkpt>
      <trkpt lat="43.43529" lon="1.85674">
        <ele>278.3</ele>
        <time>2015-07-18T08:00:52Z</time>
      </trkpt>
      <trkpt lat="43.43529" lon="1.85674">
        <ele>278.3</ele>
        <time>2015-07-18T08:00:58Z</time>
      </trkpt>
      <trkpt lat="43.43528" lon="1.85683">
        <ele>279.8</ele>
        <time>2015-07-18T08:01:04Z</time>
      </trkpt>
      <trkpt lat="43.43533" lon="1.85695">
        <ele>280.8</ele>
        <time>2015-07-18T08:01:11Z</time>
      </trkpt>
      <trkpt lat="43.43542" lon="1.85706">
        <ele>282</ele>
        <time>2015-07-18T08:01:19Z</time>
      </trkpt>
      <trkpt lat="43.43549" lon="1.85713">
        <ele>283</ele>
        <time>2015-07-18T08:01:25Z</time>
      </trkpt>
      <trkpt lat="43.43555" lon="1.85719">
        <ele>284.2</ele>
        <time>2015-07-18T08:01:30Z</time>
      </trkpt>
      <trkpt lat="43.43562" lon="1.85726">
        <ele>285.4</ele>
        <time>2015-07-18T08:01:35Z</time>
      </trkpt>
      <trkpt lat="43.43571" lon="1.85733">
        <ele>286.6</ele>
        <time>2015-07-18T08:01:40Z</time>
      </trkpt>
      <trkpt lat="43.43577" lon="1.85738">
        <ele>287.4</ele>
        <time>2015-07-18T08:01:55Z</time>
      </trkpt>
      <trkpt lat="43.43596" lon="1.85746">
        <ele>289.7</ele>
        <time>2015-07-18T08:02:02Z</time>
      </trkpt>
      <trkpt lat="43.43604" lon="1.85748">
        <ele>290.7</ele>
        <time>2015-07-18T08:02:07Z</time>
      </trkpt>
      <trkpt lat="43.43612" lon="1.85747">
        <ele>292.1</ele>
        <time>2015-07-18T08:02:12Z</time>
      </trkpt>
      <trkpt lat="43.43619" lon="1.85748">
        <ele>294.2</ele>
        <time>2015-07-18T08:02:20Z</time>
      </trkpt>
      <trkpt lat="43.43628" lon="1.8575">
        <ele>296.7</ele>
        <time>2015-07-18T08:02:25Z</time>
      </trkpt>
      <trkpt lat="43.43637" lon="1.85751">
        <ele>298.8</ele>
        <time>2015-07-18T08:02:31Z</time>
      </trkpt>
      <trkpt lat="43.43644" lon="1.8575">
        <ele>299.7</ele>
        <time>2015-07-18T08:02:37Z</time>
      </trkpt>
      <trkpt lat="43.43652" lon="1.85749">
        <ele>303.8</ele>
        <time>2015-07-18T08:02:42Z</time>
      </trkpt>
      <trkpt lat="43.43659" lon="1.85747">
        <ele>305.3</ele>
        <time>2015-07-18T08:02:48Z</time>
      </trkpt>
      <trkpt lat="43.43663" lon="1.85748">
        <ele>306.6</ele>
        <time>2015-07-18T08:02:54Z</time>
      </trkpt>
      <trkpt lat="43.43669" lon="1.85747">
        <ele>308.6</ele>
        <time>2015-07-18T08:02:59Z</time>
      </trkpt>
      <trkpt lat="43.43672" lon="1.85749">
        <ele>308.3</ele>
        <time>2015-07-18T08:03:05Z</time>
      </trkpt>
      <trkpt lat="43.43682" lon="1.85756">
        <ele>308.2</ele>
        <time>2015-07-18T08:03:11Z</time>
      </trkpt>
      <trkpt lat="43.43687" lon="1.85761">
        <ele>308.3</ele>
        <time>2015-07-18T08:03:16Z</time>
      </trkpt>
      <trkpt lat="43.43692" lon="1.85768">
        <ele>306</ele>
        <time>2015-07-18T08:03:22Z</time>
      </trkpt>
      <trkpt lat="43.43694" lon="1.85777">
        <ele>304.7</ele>
        <time>2015-07-18T08:03:28Z</time>
      </trkpt>
      <trkpt lat="43.43698" lon="1.85786">
        <ele>304.6</ele>
        <time>2015-07-18T08:03:33Z</time>
      </trkpt>
      <trkpt lat="43.43702" lon="1.85795">
        <ele>303.7</ele>
        <time>2015-07-18T08:03:40Z</time>
      </trkpt>
      <trkpt lat="43.43706" lon="1.85802">
        <ele>303.2</ele>
        <time>2015-07-18T08:03:46Z</time>
      </trkpt>
      <trkpt lat="43.43707" lon="1.85808">
        <ele>302.9</ele>
        <time>2015-07-18T08:03:51Z</time>
      </trkpt>
      <trkpt lat="43.43709" lon="1.8581">
        <ele>303.5</ele>
        <time>2015-07-18T08:03:57Z</time>
      </trkpt>
      <trkpt lat="43.43709" lon="1.8581">
        <ele>303.5</ele>
        <time>2015-07-18T08:04:03Z</time>
      </trkpt>
      <trkpt lat="43.43709" lon="1.8581">
        <ele>303.5</ele>
        <time>2015-07-18T08:04:09Z</time>
      </trkpt>
      <trkpt lat="43.43709" lon="1.8581">
        <ele>303.5</ele>
        <time>2015-07-18T08:04:15Z</time>
      </trkpt>
      <trkpt lat="43.43709" lon="1.8581">
        <ele>303.5</ele>
        <time>2015-07-18T08:04:20Z</time>
      </trkpt>
      <trkpt lat="43.43709" lon="1.8581">
        <ele>303.5</ele>
        <time>2015-07-18T08:04:26Z</time>
      </trkpt>
      <trkpt lat="43.43709" lon="1.8581">
        <ele>303.5</ele>
        <time>2015-07-18T08:04:32Z</time>
      </trkpt>
      <trkpt lat="43.43709" lon="1.8581">
        <ele>303.5</ele>
        <time>2015-07-18T08:04:37Z</time>
      </trkpt>
      <trkpt lat="43.43709" lon="1.8581">
        <ele>303.5</ele>
        <time>2015-07-18T08:04:42Z</time>
      </trkpt>
      <trkpt lat="43.43709" lon="1.8581">
        <ele>303.5</ele>
        <time>2015-07-18T08:04:48Z</time>
      </trkpt>
      <trkpt lat="43.43709" lon="1.8581">
        <ele>303.5</ele>
        <time>2015-07-18T08:04:53Z</time>
      </trkpt>
      <trkpt lat="43.43709" lon="1.8581">
        <ele>303.5</ele>
        <time>2015-07-18T08:04:58Z</time>
      </trkpt>
      <trkpt lat="43.43709" lon="1.8581">
        <ele>303.5</ele>
        <time>2015-07-18T08:05:05Z</time>
      </trkpt>
      <trkpt lat="43.43709" lon="1.8581">
        <ele>303.5</ele>
        <time>2015-07-18T08:05:10Z</time>
      </trkpt>
      <trkpt lat="43.43709" lon="1.8581">
        <ele>303.5</ele>
        <time>2015-07-18T08:05:15Z</time>
      </trkpt>
      <trkpt lat="43.43702" lon="1.85824">
        <ele>308</ele>
        <time>2015-07-18T08:05:21Z</time>
      </trkpt>
      <trkpt lat="43.43694" lon="1.85831">
        <ele>308.7</ele>
        <time>2015-07-18T08:05:28Z</time>
      </trkpt>
      <trkpt lat="43.43676" lon="1.85845">
        <ele>309.6</ele>
        <time>2015-07-18T08:05:33Z</time>
      </trkpt>
      <trkpt lat="43.43656" lon="1.8586">
        <ele>310.1</ele>
        <time>2015-07-18T08:05:38Z</time>
      </trkpt>
      <trkpt lat="43.43643" lon="1.85871">
        <ele>310.5</ele>
        <time>2015-07-18T08:05:44Z</time>
      </trkpt>
      <trkpt lat="43.43589" lon="1.85923">
        <ele>313.2</ele>
        <time>2015-07-18T08:06:00Z</time>
      </trkpt>
      <trkpt lat="43.43577" lon="1.8594">
        <ele>313.7</ele>
        <time>2015-07-18T08:06:05Z</time>
      </trkpt>
      <trkpt lat="43.43563" lon="1.85963">
        <ele>314.5</ele>
        <time>2015-07-18T08:06:11Z</time>
      </trkpt>
      <trkpt lat="43.43551" lon="1.85987">
        <ele>315.3</ele>
        <time>2015-07-18T08:06:16Z</time>
      </trkpt>
      <trkpt lat="43.43542" lon="1.86005">
        <ele>315.7</ele>
        <time>2015-07-18T08:06:22Z</time>
      </trkpt>
      <trkpt lat="43.43534" lon="1.86021">
        <ele>315.4</ele>
        <time>2015-07-18T08:06:27Z</time>
      </trkpt>
      <trkpt lat="43.43524" lon="1.86039">
        <ele>315.3</ele>
        <time>2015-07-18T08:06:32Z</time>
      </trkpt>
      <trkpt lat="43.43512" lon="1.86059">
        <ele>314.5</ele>
        <time>2015-07-18T08:06:37Z</time>
      </trkpt>
      <trkpt lat="43.43498" lon="1.86084">
        <ele>313.2</ele>
        <time>2015-07-18T08:06:43Z</time>
      </trkpt>
      <trkpt lat="43.43481" lon="1.86145">
        <ele>309.7</ele>
        <time>2015-07-18T08:06:51Z</time>
      </trkpt>
      <trkpt lat="43.43472" lon="1.86182">
        <ele>307.5</ele>
        <time>2015-07-18T08:06:56Z</time>
      </trkpt>
      <trkpt lat="43.43454" lon="1.86247">
        <ele>303.6</ele>
        <time>2015-07-18T08:07:01Z</time>
      </trkpt>
      <trkpt lat="43.43441" lon="1.8631">
        <ele>299.1</ele>
        <time>2015-07-18T08:07:07Z</time>
      </trkpt>
      <trkpt lat="43.43434" lon="1.86355">
        <ele>296.2</ele>
        <time>2015-07-18T08:07:14Z</time>
      </trkpt>
      <trkpt lat="43.43418" lon="1.86422">
        <ele>292.2</ele>
        <time>2015-07-18T08:07:19Z</time>
      </trkpt>
      <trkpt lat="43.43395" lon="1.86474">
        <ele>288.7</ele>
        <time>2015-07-18T08:07:25Z</time>
      </trkpt>
      <trkpt lat="43.43377" lon="1.86522">
        <ele>283.5</ele>
        <time>2015-07-18T08:07:30Z</time>
      </trkpt>
      <trkpt lat="43.43364" lon="1.86591">
        <ele>279.8</ele>
        <time>2015-07-18T08:07:35Z</time>
      </trkpt>
      <trkpt lat="43.43354" lon="1.86638">
        <ele>278.8</ele>
        <time>2015-07-18T08:07:41Z</time>
      </trkpt>
      <trkpt lat="43.43344" lon="1.86684">
        <ele>278.2</ele>
        <time>2015-07-18T08:07:46Z</time>
      </trkpt>
      <trkpt lat="43.43339" lon="1.86708">
        <ele>278.4</ele>
        <time>2015-07-18T08:07:53Z</time>
      </trkpt>
      <trkpt lat="43.43339" lon="1.86714">
        <ele>278</ele>
        <time>2015-07-18T08:07:59Z</time>
      </trkpt>
      <trkpt lat="43.43339" lon="1.86714">
        <ele>278</ele>
        <time>2015-07-18T08:08:05Z</time>
      </trkpt>
      <trkpt lat="43.43339" lon="1.86714">
        <ele>278</ele>
        <time>2015-07-18T08:08:10Z</time>
      </trkpt>
      <trkpt lat="43.43339" lon="1.86714">
        <ele>278</ele>
        <time>2015-07-18T08:08:15Z</time>
      </trkpt>
      <trkpt lat="43.43339" lon="1.86714">
        <ele>278</ele>
        <time>2015-07-18T08:08:20Z</time>
      </trkpt>
      <trkpt lat="43.43339" lon="1.86714">
        <ele>278</ele>
        <time>2015-07-18T08:08:26Z</time>
      </trkpt>
      <trkpt lat="43.43339" lon="1.86714">
        <ele>278</ele>
        <time>2015-07-18T08:08:32Z</time>
      </trkpt>
      <trkpt lat="43.43339" lon="1.86714">
        <ele>278</ele>
        <time>2015-07-18T08:08:37Z</time>
      </trkpt>
      <trkpt lat="43.43339" lon="1.86714">
        <ele>278</ele>
        <time>2015-07-18T08:08:43Z</time>
      </trkpt>
      <trkpt lat="43.43339" lon="1.86714">
        <ele>278</ele>
        <time>2015-07-18T08:08:50Z</time>
      </trkpt>
      <trkpt lat="43.43339" lon="1.86714">
        <ele>278</ele>
        <time>2015-07-18T08:08:55Z</time>
      </trkpt>
      <trkpt lat="43.43339" lon="1.86714">
        <ele>278</ele>
        <time>2015-07-18T08:09:02Z</time>
      </trkpt>
      <trkpt lat="43.43339" lon="1.86714">
        <ele>278</ele>
        <time>2015-07-18T08:09:11Z</time>
      </trkpt>
      <trkpt lat="43.43316" lon="1.86756">
        <ele>274</ele>
        <time>2015-07-18T08:09:17Z</time>
      </trkpt>
      <trkpt lat="43.43292" lon="1.86792">
        <ele>272.3</ele>
        <time>2015-07-18T08:09:23Z</time>
      </trkpt>
      <trkpt lat="43.43266" lon="1.86831">
        <ele>270.6</ele>
        <time>2015-07-18T08:09:28Z</time>
      </trkpt>
      <trkpt lat="43.4324" lon="1.86861">
        <ele>269.1</ele>
        <time>2015-07-18T08:09:34Z</time>
      </trkpt>
      <trkpt lat="43.43206" lon="1.86893">
        <ele>266.7</ele>
        <time>2015-07-18T08:09:39Z</time>
      </trkpt>
      <trkpt lat="43.43177" lon="1.8692">
        <ele>265</ele>
        <time>2015-07-18T08:09:44Z</time>
      </trkpt>
      <trkpt lat="43.43138" lon="1.86949">
        <ele>262.8</ele>
        <time>2015-07-18T08:09:52Z</time>
      </trkpt>
      <trkpt lat="43.4309" lon="1.86979">
        <ele>260.2</ele>
        <time>2015-07-18T08:09:58Z</time>
      </trkpt>
      <trkpt lat="43.4305" lon="1.87007">
        <ele>258.3</ele>
        <time>2015-07-18T08:10:04Z</time>
      </trkpt>
      <trkpt lat="43.43016" lon="1.87023">
        <ele>256.8</ele>
        <time>2015-07-18T08:10:09Z</time>
      </trkpt>
      <trkpt lat="43.42979" lon="1.87035">
        <ele>254.4</ele>
        <time>2015-07-18T08:10:14Z</time>
      </trkpt>
      <trkpt lat="43.42932" lon="1.87046">
        <ele>251.6</ele>
        <time>2015-07-18T08:10:20Z</time>
      </trkpt>
      <trkpt lat="43.42894" lon="1.87039">
        <ele>251.2</ele>
        <time>2015-07-18T08:10:25Z</time>
      </trkpt>
      <trkpt lat="43.42852" lon="1.87034">
        <ele>251.3</ele>
        <time>2015-07-18T08:10:31Z</time>
      </trkpt>
      <trkpt lat="43.42825" lon="1.87046">
        <ele>250.9</ele>
        <time>2015-07-18T08:10:36Z</time>
      </trkpt>
      <trkpt lat="43.42798" lon="1.87061">
        <ele>251.4</ele>
        <time>2015-07-18T08:10:42Z</time>
      </trkpt>
      <trkpt lat="43.4278" lon="1.87072">
        <ele>252.3</ele>
        <time>2015-07-18T08:10:48Z</time>
      </trkpt>
      <trkpt lat="43.42765" lon="1.87081">
        <ele>252.5</ele>
        <time>2015-07-18T08:10:53Z</time>
      </trkpt>
      <trkpt lat="43.42745" lon="1.87092">
        <ele>253</ele>
        <time>2015-07-18T08:10:59Z</time>
      </trkpt>
      <trkpt lat="43.42725" lon="1.87104">
        <ele>254.3</ele>
        <time>2015-07-18T08:11:05Z</time>
      </trkpt>
      <trkpt lat="43.42707" lon="1.87115">
        <ele>255.9</ele>
        <time>2015-07-18T08:11:10Z</time>
      </trkpt>
      <trkpt lat="43.42688" lon="1.87127">
        <ele>256.5</ele>
        <time>2015-07-18T08:11:15Z</time>
      </trkpt>
      <trkpt lat="43.42666" lon="1.87142">
        <ele>257.2</ele>
        <time>2015-07-18T08:11:22Z</time>
      </trkpt>
      <trkpt lat="43.42644" lon="1.87155">
        <ele>257.2</ele>
        <time>2015-07-18T08:11:28Z</time>
      </trkpt>
      <trkpt lat="43.4263" lon="1.87169">
        <ele>257</ele>
        <time>2015-07-18T08:11:34Z</time>
      </trkpt>
      <trkpt lat="43.42625" lon="1.87178">
        <ele>256.8</ele>
        <time>2015-07-18T08:11:45Z</time>
      </trkpt>
      <trkpt lat="43.42568" lon="1.872">
        <ele>253.3</ele>
        <time>2015-07-18T08:11:51Z</time>
      </trkpt>
      <trkpt lat="43.42551" lon="1.87238">
        <ele>250.5</ele>
        <time>2015-07-18T08:11:57Z</time>
      </trkpt>
      <trkpt lat="43.42526" lon="1.87298">
        <ele>247.5</ele>
        <time>2015-07-18T08:12:03Z</time>
      </trkpt>
      <trkpt lat="43.42512" lon="1.87348">
        <ele>246.3</ele>
        <time>2015-07-18T08:12:08Z</time>
      </trkpt>
      <trkpt lat="43.42503" lon="1.87383">
        <ele>246</ele>
        <time>2015-07-18T08:12:13Z</time>
      </trkpt>
      <trkpt lat="43.42488" lon="1.87434">
        <ele>245</ele>
        <time>2015-07-18T08:12:18Z</time>
      </trkpt>
      <trkpt lat="43.42449" lon="1.87494">
        <ele>240.3</ele>
        <time>2015-07-18T08:12:25Z</time>
      </trkpt>
      <trkpt lat="43.42429" lon="1.87565">
        <ele>235.8</ele>
        <time>2015-07-18T08:12:31Z</time>
      </trkpt>
      <trkpt lat="43.42412" lon="1.87639">
        <ele>231.9</ele>
        <time>2015-07-18T08:12:37Z</time>
      </trkpt>
      <trkpt lat="43.42384" lon="1.87688">
        <ele>228.1</ele>
        <time>2015-07-18T08:12:42Z</time>
      </trkpt>
      <trkpt lat="43.4235" lon="1.87749">
        <ele>224.4</ele>
        <time>2015-07-18T08:12:47Z</time>
      </trkpt>
      <trkpt lat="43.42333" lon="1.87779">
        <ele>223.6</ele>
        <time>2015-07-18T08:12:53Z</time>
      </trkpt>
      <trkpt lat="43.4229" lon="1.87854">
        <ele>220.5</ele>
        <time>2015-07-18T08:12:58Z</time>
      </trkpt>
      <trkpt lat="43.42267" lon="1.87895">
        <ele>219.2</ele>
        <time>2015-07-18T08:13:05Z</time>
      </trkpt>
      <trkpt lat="43.4224" lon="1.87943">
        <ele>217.4</ele>
        <time>2015-07-18T08:13:11Z</time>
      </trkpt>
      <trkpt lat="43.4222" lon="1.87977">
        <ele>216.2</ele>
        <time>2015-07-18T08:13:16Z</time>
      </trkpt>
      <trkpt lat="43.42198" lon="1.88016">
        <ele>215</ele>
        <time>2015-07-18T08:13:21Z</time>
      </trkpt>
      <trkpt lat="43.4218" lon="1.88048">
        <ele>212.7</ele>
        <time>2015-07-18T08:13:27Z</time>
      </trkpt>
      <trkpt lat="43.42161" lon="1.88085">
        <ele>209.6</ele>
        <time>2015-07-18T08:13:32Z</time>
      </trkpt>
      <trkpt lat="43.42163" lon="1.88109">
        <ele>209.1</ele>
        <time>2015-07-18T08:13:40Z</time>
      </trkpt>
      <trkpt lat="43.42163" lon="1.88109">
        <ele>209.5</ele>
        <time>2015-07-18T08:13:46Z</time>
      </trkpt>
      <trkpt lat="43.42163" lon="1.88109">
        <ele>209.5</ele>
        <time>2015-07-18T08:13:52Z</time>
      </trkpt>
      <trkpt lat="43.42163" lon="1.88109">
        <ele>209.5</ele>
        <time>2015-07-18T08:13:57Z</time>
      </trkpt>
      <trkpt lat="43.42163" lon="1.88109">
        <ele>209.5</ele>
        <time>2015-07-18T08:14:02Z</time>
      </trkpt>
      <trkpt lat="43.42163" lon="1.88109">
        <ele>209.5</ele>
        <time>2015-07-18T08:14:09Z</time>
      </trkpt>
      <trkpt lat="43.42163" lon="1.88109">
        <ele>209.5</ele>
        <time>2015-07-18T08:14:16Z</time>
      </trkpt>
      <trkpt lat="43.42163" lon="1.88109">
        <ele>209.5</ele>
        <time>2015-07-18T08:14:22Z</time>
      </trkpt>
      <trkpt lat="43.42166" lon="1.8811">
        <ele>212.2</ele>
        <time>2015-07-18T08:14:27Z</time>
      </trkpt>
      <trkpt lat="43.42171" lon="1.88134">
        <ele>212.5</ele>
        <time>2015-07-18T08:14:32Z</time>
      </trkpt>
      <trkpt lat="43.42171" lon="1.88165">
        <ele>213.8</ele>
        <time>2015-07-18T08:14:37Z</time>
      </trkpt>
      <trkpt lat="43.42178" lon="1.88194">
        <ele>216</ele>
        <time>2015-07-18T08:14:42Z</time>
      </trkpt>
      <trkpt lat="43.42184" lon="1.88216">
        <ele>218.2</ele>
        <time>2015-07-18T08:14:48Z</time>
      </trkpt>
      <trkpt lat="43.42189" lon="1.88233">
        <ele>220</ele>
        <time>2015-07-18T08:14:54Z</time>
      </trkpt>
      <trkpt lat="43.42198" lon="1.88254">
        <ele>219.9</ele>
        <time>2015-07-18T08:14:59Z</time>
      </trkpt>
      <trkpt lat="43.42211" lon="1.88275">
        <ele>219.1</ele>
        <time>2015-07-18T08:15:04Z</time>
      </trkpt>
      <trkpt lat="43.42229" lon="1.88298">
        <ele>218.2</ele>
        <time>2015-07-18T08:15:10Z</time>
      </trkpt>
      <trkpt lat="43.42259" lon="1.88321">
        <ele>217.1</ele>
        <time>2015-07-18T08:15:18Z</time>
      </trkpt>
      <trkpt lat="43.42286" lon="1.88341">
        <ele>217.6</ele>
        <time>2015-07-18T08:15:23Z</time>
      </trkpt>
      <trkpt lat="43.42313" lon="1.88374">
        <ele>215.5</ele>
        <time>2015-07-18T08:15:28Z</time>
      </trkpt>
      <trkpt lat="43.42329" lon="1.88401">
        <ele>215.6</ele>
        <time>2015-07-18T08:15:33Z</time>
      </trkpt>
      <trkpt lat="43.42359" lon="1.88439">
        <ele>216.1</ele>
        <time>2015-07-18T08:15:39Z</time>
      </trkpt>
      <trkpt lat="43.42391" lon="1.88458">
        <ele>215.3</ele>
        <time>2015-07-18T08:15:46Z</time>
      </trkpt>
      <trkpt lat="43.4238" lon="1.88506">
        <ele>217.9</ele>
        <time>2015-07-18T08:15:54Z</time>
      </trkpt>
      <trkpt lat="43.42368" lon="1.88548">
        <ele>217.1</ele>
        <time>2015-07-18T08:15:59Z</time>
      </trkpt>
      <trkpt lat="43.42367" lon="1.88589">
        <ele>218.1</ele>
        <time>2015-07-18T08:16:05Z</time>
      </trkpt>
      <trkpt lat="43.42386" lon="1.88635">
        <ele>217.7</ele>
        <time>2015-07-18T08:16:13Z</time>
      </trkpt>
      <trkpt lat="43.42399" lon="1.88674">
        <ele>219.2</ele>
        <time>2015-07-18T08:16:19Z</time>
      </trkpt>
      <trkpt lat="43.42395" lon="1.88717">
        <ele>221.5</ele>
        <time>2015-07-18T08:16:24Z</time>
      </trkpt>
      <trkpt lat="43.42385" lon="1.88754">
        <ele>220.4</ele>
        <time>2015-07-18T08:16:30Z</time>
      </trkpt>
      <trkpt lat="43.42373" lon="1.88797">
        <ele>219.3</ele>
        <time>2015-07-18T08:16:35Z</time>
      </trkpt>
      <trkpt lat="43.42375" lon="1.88831">
        <ele>220.5</ele>
        <time>2015-07-18T08:16:41Z</time>
      </trkpt>
      <trkpt lat="43.42394" lon="1.88865">
        <ele>219.4</ele>
        <time>2015-07-18T08:16:46Z</time>
      </trkpt>
      <trkpt lat="43.42406" lon="1.88878">
        <ele>218.3</ele>
        <time>2015-07-18T08:16:52Z</time>
      </trkpt>
      <trkpt lat="43.42443" lon="1.88909">
        <ele>217.2</ele>
        <time>2015-07-18T08:16:58Z</time>
      </trkpt>
      <trkpt lat="43.42474" lon="1.88915">
        <ele>219.2</ele>
        <time>2015-07-18T08:17:04Z</time>
      </trkpt>
      <trkpt lat="43.42496" lon="1.88915">
        <ele>222.3</ele>
        <time>2015-07-18T08:17:09Z</time>
      </trkpt>
      <trkpt lat="43.42519" lon="1.88929">
        <ele>222</ele>
        <time>2015-07-18T08:17:14Z</time>
      </trkpt>
      <trkpt lat="43.42532" lon="1.88957">
        <ele>222.9</ele>
        <time>2015-07-18T08:17:19Z</time>
      </trkpt>
      <trkpt lat="43.42589" lon="1.89047">
        <ele>224.1</ele>
        <time>2015-07-18T08:17:36Z</time>
      </trkpt>
      <trkpt lat="43.42601" lon="1.89084">
        <ele>226.6</ele>
        <time>2015-07-18T08:17:42Z</time>
      </trkpt>
      <trkpt lat="43.42638" lon="1.89102">
        <ele>227.2</ele>
        <time>2015-07-18T08:17:50Z</time>
      </trkpt>
      <trkpt lat="43.42664" lon="1.89101">
        <ele>229.1</ele>
        <time>2015-07-18T08:17:56Z</time>
      </trkpt>
      <trkpt lat="43.42677" lon="1.89116">
        <ele>231.8</ele>
        <time>2015-07-18T08:18:01Z</time>
      </trkpt>
      <trkpt lat="43.42677" lon="1.89154">
        <ele>232.8</ele>
        <time>2015-07-18T08:18:06Z</time>
      </trkpt>
      <trkpt lat="43.42671" lon="1.89198">
        <ele>228.8</ele>
        <time>2015-07-18T08:18:12Z</time>
      </trkpt>
      <trkpt lat="43.42669" lon="1.89231">
        <ele>228.9</ele>
        <time>2015-07-18T08:18:18Z</time>
      </trkpt>
      <trkpt lat="43.42679" lon="1.89263">
        <ele>230.4</ele>
        <time>2015-07-18T08:18:23Z</time>
      </trkpt>
      <trkpt lat="43.42718" lon="1.89356">
        <ele>229.7</ele>
        <time>2015-07-18T08:18:38Z</time>
      </trkpt>
      <trkpt lat="43.42732" lon="1.8939">
        <ele>230.7</ele>
        <time>2015-07-18T08:18:44Z</time>
      </trkpt>
      <trkpt lat="43.42755" lon="1.89422">
        <ele>231.9</ele>
        <time>2015-07-18T08:18:54Z</time>
      </trkpt>
      <trkpt lat="43.42769" lon="1.89419">
        <ele>235.8</ele>
        <time>2015-07-18T08:19:00Z</time>
      </trkpt>
      <trkpt lat="43.42785" lon="1.89408">
        <ele>241.6</ele>
        <time>2015-07-18T08:19:05Z</time>
      </trkpt>
      <trkpt lat="43.42795" lon="1.894">
        <ele>245.4</ele>
        <time>2015-07-18T08:19:12Z</time>
      </trkpt>
      <trkpt lat="43.42804" lon="1.89394">
        <ele>245</ele>
        <time>2015-07-18T08:19:21Z</time>
      </trkpt>
      <trkpt lat="43.42807" lon="1.89393">
        <ele>242.6</ele>
        <time>2015-07-18T08:19:27Z</time>
      </trkpt>
      <trkpt lat="43.42807" lon="1.89393">
        <ele>242.6</ele>
        <time>2015-07-18T08:19:32Z</time>
      </trkpt>
      <trkpt lat="43.42815" lon="1.89403">
        <ele>232.1</ele>
        <time>2015-07-18T08:19:37Z</time>
      </trkpt>
      <trkpt lat="43.42816" lon="1.89404">
        <ele>231.5</ele>
        <time>2015-07-18T08:19:42Z</time>
      </trkpt>
      <trkpt lat="43.42816" lon="1.89404">
        <ele>231.5</ele>
        <time>2015-07-18T08:19:48Z</time>
      </trkpt>
      <trkpt lat="43.42816" lon="1.89404">
        <ele>231.5</ele>
        <time>2015-07-18T08:19:53Z</time>
      </trkpt>
      <trkpt lat="43.42825" lon="1.89404">
        <ele>227.1</ele>
        <time>2015-07-18T08:19:58Z</time>
      </trkpt>
      <trkpt lat="43.42825" lon="1.89406">
        <ele>226.5</ele>
        <time>2015-07-18T08:20:04Z</time>
      </trkpt>
      <trkpt lat="43.42825" lon="1.89406">
        <ele>226.5</ele>
        <time>2015-07-18T08:20:09Z</time>
      </trkpt>
      <trkpt lat="43.42825" lon="1.89406">
        <ele>226.5</ele>
        <time>2015-07-18T08:20:15Z</time>
      </trkpt>
      <trkpt lat="43.42825" lon="1.89406">
        <ele>226.5</ele>
        <time>2015-07-18T08:20:21Z</time>
      </trkpt>
      <trkpt lat="43.42825" lon="1.89406">
        <ele>226.5</ele>
        <time>2015-07-18T08:20:27Z</time>
      </trkpt>
      <trkpt lat="43.42825" lon="1.89406">
        <ele>226.5</ele>
        <time>2015-07-18T08:20:38Z</time>
      </trkpt>
      <trkpt lat="43.42825" lon="1.89406">
        <ele>226.5</ele>
        <time>2015-07-18T08:20:44Z</time>
      </trkpt>
      <trkpt lat="43.42825" lon="1.89406">
        <ele>226.5</ele>
        <time>2015-07-18T08:20:50Z</time>
      </trkpt>
      <trkpt lat="43.42825" lon="1.89406">
        <ele>226.5</ele>
        <time>2015-07-18T08:20:55Z</time>
      </trkpt>
      <trkpt lat="43.42825" lon="1.89406">
        <ele>226.5</ele>
        <time>2015-07-18T08:21:02Z</time>
      </trkpt>
      <trkpt lat="43.42825" lon="1.89406">
        <ele>226.5</ele>
        <time>2015-07-18T08:21:07Z</time>
      </trkpt>
      <trkpt lat="43.42825" lon="1.89406">
        <ele>226.5</ele>
        <time>2015-07-18T08:21:18Z</time>
      </trkpt>
      <trkpt lat="43.42825" lon="1.89406">
        <ele>226.5</ele>
        <time>2015-07-18T08:21:24Z</time>
      </trkpt>
      <trkpt lat="43.42825" lon="1.89406">
        <ele>226.5</ele>
        <time>2015-07-18T08:21:30Z</time>
      </trkpt>
      <trkpt lat="43.42825" lon="1.89406">
        <ele>226.5</ele>
        <time>2015-07-18T08:21:36Z</time>
      </trkpt>
      <trkpt lat="43.42825" lon="1.89406">
        <ele>226.5</ele>
        <time>2015-07-18T08:21:43Z</time>
      </trkpt>
      <trkpt lat="43.42825" lon="1.89406">
        <ele>226.5</ele>
        <time>2015-07-18T08:21:50Z</time>
      </trkpt>
      <trkpt lat="43.42825" lon="1.89406">
        <ele>226.5</ele>
        <time>2015-07-18T08:21:58Z</time>
      </trkpt>
      <trkpt lat="43.42825" lon="1.89406">
        <ele>226.5</ele>
        <time>2015-07-18T08:22:03Z</time>
      </trkpt>
      <trkpt lat="43.42825" lon="1.89406">
        <ele>226.5</ele>
        <time>2015-07-18T08:22:09Z</time>
      </trkpt>
      <trkpt lat="43.42825" lon="1.89406">
        <ele>226.5</ele>
        <time>2015-07-18T08:22:14Z</time>
      </trkpt>
      <trkpt lat="43.42825" lon="1.89406">
        <ele>226.5</ele>
        <time>2015-07-18T08:22:19Z</time>
      </trkpt>
      <trkpt lat="43.42825" lon="1.89406">
        <ele>226.5</ele>
        <time>2015-07-18T08:22:27Z</time>
      </trkpt>
      <trkpt lat="43.42825" lon="1.89406">
        <ele>226.5</ele>
        <time>2015-07-18T08:22:33Z</time>
      </trkpt>
      <trkpt lat="43.42825" lon="1.89406">
        <ele>226.5</ele>
        <time>2015-07-18T08:22:38Z</time>
      </trkpt>
      <trkpt lat="43.42825" lon="1.89406">
        <ele>226.5</ele>
        <time>2015-07-18T08:22:43Z</time>
      </trkpt>
      <trkpt lat="43.42825" lon="1.89406">
        <ele>226.5</ele>
        <time>2015-07-18T08:22:49Z</time>
      </trkpt>
      <trkpt lat="43.42825" lon="1.89406">
        <ele>226.5</ele>
        <time>2015-07-18T08:22:55Z</time>
      </trkpt>
      <trkpt lat="43.42825" lon="1.89406">
        <ele>226.5</ele>
        <time>2015-07-18T08:23:00Z</time>
      </trkpt>
      <trkpt lat="43.42825" lon="1.89406">
        <ele>226.5</ele>
        <time>2015-07-18T08:23:06Z</time>
      </trkpt>
      <trkpt lat="43.42825" lon="1.89406">
        <ele>226.5</ele>
        <time>2015-07-18T08:23:11Z</time>
      </trkpt>
      <trkpt lat="43.42825" lon="1.89406">
        <ele>226.5</ele>
        <time>2015-07-18T08:23:16Z</time>
      </trkpt>
      <trkpt lat="43.42825" lon="1.89406">
        <ele>226.5</ele>
        <time>2015-07-18T08:23:22Z</time>
      </trkpt>
      <trkpt lat="43.42825" lon="1.89406">
        <ele>226.5</ele>
        <time>2015-07-18T08:23:28Z</time>
      </trkpt>
      <trkpt lat="43.42825" lon="1.89406">
        <ele>226.5</ele>
        <time>2015-07-18T08:23:33Z</time>
      </trkpt>
      <trkpt lat="43.42825" lon="1.89406">
        <ele>226.5</ele>
        <time>2015-07-18T08:23:39Z</time>
      </trkpt>
      <trkpt lat="43.42825" lon="1.89406">
        <ele>226.5</ele>
        <time>2015-07-18T08:23:44Z</time>
      </trkpt>
      <trkpt lat="43.42825" lon="1.89406">
        <ele>226.5</ele>
        <time>2015-07-18T08:23:51Z</time>
      </trkpt>
      <trkpt lat="43.42825" lon="1.89406">
        <ele>226.5</ele>
        <time>2015-07-18T08:23:57Z</time>
      </trkpt>
      <trkpt lat="43.42825" lon="1.89406">
        <ele>226.5</ele>
        <time>2015-07-18T08:24:02Z</time>
      </trkpt>
      <trkpt lat="43.42825" lon="1.89406">
        <ele>226.5</ele>
        <time>2015-07-18T08:24:07Z</time>
      </trkpt>
      <trkpt lat="43.42822" lon="1.89411">
        <ele>215.3</ele>
        <time>2015-07-18T08:24:15Z</time>
      </trkpt>
      <trkpt lat="43.42822" lon="1.89411">
        <ele>215.1</ele>
        <time>2015-07-18T08:24:21Z</time>
      </trkpt>
      <trkpt lat="43.42814" lon="1.89413">
        <ele>215.3</ele>
        <time>2015-07-18T08:24:27Z</time>
      </trkpt>
      <trkpt lat="43.42793" lon="1.89423">
        <ele>217.5</ele>
        <time>2015-07-18T08:24:32Z</time>
      </trkpt>
      <trkpt lat="43.42774" lon="1.89429">
        <ele>221</ele>
        <time>2015-07-18T08:24:38Z</time>
      </trkpt>
      <trkpt lat="43.42755" lon="1.8945">
        <ele>221.1</ele>
        <time>2015-07-18T08:24:43Z</time>
      </trkpt>
      <trkpt lat="43.42746" lon="1.89483">
        <ele>218.4</ele>
        <time>2015-07-18T08:24:48Z</time>
      </trkpt>
      <trkpt lat="43.4274" lon="1.89507">
        <ele>216.4</ele>
        <time>2015-07-18T08:24:54Z</time>
      </trkpt>
      <trkpt lat="43.42729" lon="1.89551">
        <ele>214</ele>
        <time>2015-07-18T08:25:00Z</time>
      </trkpt>
      <trkpt lat="43.42721" lon="1.89587">
        <ele>213.4</ele>
        <time>2015-07-18T08:25:07Z</time>
      </trkpt>
      <trkpt lat="43.42711" lon="1.89631">
        <ele>212.6</ele>
        <time>2015-07-18T08:25:13Z</time>
      </trkpt>
      <trkpt lat="43.42704" lon="1.89661">
        <ele>212.5</ele>
        <time>2015-07-18T08:25:21Z</time>
      </trkpt>
      <trkpt lat="43.42694" lon="1.89707">
        <ele>212.4</ele>
        <time>2015-07-18T08:25:26Z</time>
      </trkpt>
      <trkpt lat="43.42689" lon="1.89736">
        <ele>214</ele>
        <time>2015-07-18T08:25:32Z</time>
      </trkpt>
      <trkpt lat="43.42681" lon="1.89766">
        <ele>215.9</ele>
        <time>2015-07-18T08:25:38Z</time>
      </trkpt>
      <trkpt lat="43.42676" lon="1.89793">
        <ele>216.7</ele>
        <time>2015-07-18T08:25:45Z</time>
      </trkpt>
      <trkpt lat="43.42675" lon="1.89828">
        <ele>223</ele>
        <time>2015-07-18T08:25:50Z</time>
      </trkpt>
      <trkpt lat="43.42674" lon="1.89843">
        <ele>226.6</ele>
        <time>2015-07-18T08:25:56Z</time>
      </trkpt>
      <trkpt lat="43.42674" lon="1.89853">
        <ele>226.1</ele>
        <time>2015-07-18T08:26:01Z</time>
      </trkpt>
      <trkpt lat="43.42678" lon="1.89864">
        <ele>226.1</ele>
        <time>2015-07-18T08:26:07Z</time>
      </trkpt>
      <trkpt lat="43.42677" lon="1.89901">
        <ele>227.3</ele>
        <time>2015-07-18T08:26:13Z</time>
      </trkpt>
      <trkpt lat="43.4267" lon="1.89932">
        <ele>228.6</ele>
        <time>2015-07-18T08:26:18Z</time>
      </trkpt>
      <trkpt lat="43.42665" lon="1.89952">
        <ele>229.6</ele>
        <time>2015-07-18T08:26:39Z</time>
      </trkpt>
      <trkpt lat="43.42673" lon="1.90082">
        <ele>235.3</ele>
        <time>2015-07-18T08:26:44Z</time>
      </trkpt>
      <trkpt lat="43.42656" lon="1.90122">
        <ele>232.9</ele>
        <time>2015-07-18T08:26:49Z</time>
      </trkpt>
      <trkpt lat="43.42646" lon="1.90148">
        <ele>232.1</ele>
        <time>2015-07-18T08:26:55Z</time>
      </trkpt>
      <trkpt lat="43.42629" lon="1.90175">
        <ele>234.8</ele>
        <time>2015-07-18T08:27:00Z</time>
      </trkpt>
      <trkpt lat="43.42585" lon="1.90227">
        <ele>230.5</ele>
        <time>2015-07-18T08:27:10Z</time>
      </trkpt>
      <trkpt lat="43.42556" lon="1.90259">
        <ele>226.3</ele>
        <time>2015-07-18T08:27:16Z</time>
      </trkpt>
      <trkpt lat="43.42536" lon="1.9028">
        <ele>227.1</ele>
        <time>2015-07-18T08:27:21Z</time>
      </trkpt>
      <trkpt lat="43.42513" lon="1.90302">
        <ele>225.5</ele>
        <time>2015-07-18T08:27:26Z</time>
      </trkpt>
      <trkpt lat="43.42487" lon="1.90326">
        <ele>224.3</ele>
        <time>2015-07-18T08:27:31Z</time>
      </trkpt>
      <trkpt lat="43.4247" lon="1.90361">
        <ele>222</ele>
        <time>2015-07-18T08:27:37Z</time>
      </trkpt>
      <trkpt lat="43.42471" lon="1.9041">
        <ele>222.8</ele>
        <time>2015-07-18T08:27:44Z</time>
      </trkpt>
      <trkpt lat="43.42481" lon="1.90442">
        <ele>225</ele>
        <time>2015-07-18T08:27:49Z</time>
      </trkpt>
      <trkpt lat="43.42501" lon="1.90477">
        <ele>227</ele>
        <time>2015-07-18T08:27:54Z</time>
      </trkpt>
      <trkpt lat="43.4252" lon="1.90505">
        <ele>226.9</ele>
        <time>2015-07-18T08:28:00Z</time>
      </trkpt>
      <trkpt lat="43.42543" lon="1.90536">
        <ele>227.7</ele>
        <time>2015-07-18T08:28:06Z</time>
      </trkpt>
      <trkpt lat="43.42554" lon="1.90566">
        <ele>228.3</ele>
        <time>2015-07-18T08:28:12Z</time>
      </trkpt>
      <trkpt lat="43.42568" lon="1.90607">
        <ele>228.9</ele>
        <time>2015-07-18T08:28:17Z</time>
      </trkpt>
      <trkpt lat="43.42586" lon="1.90643">
        <ele>227.9</ele>
        <time>2015-07-18T08:28:22Z</time>
      </trkpt>
      <trkpt lat="43.42597" lon="1.90667">
        <ele>227.9</ele>
        <time>2015-07-18T08:28:28Z</time>
      </trkpt>
      <trkpt lat="43.42611" lon="1.90749">
        <ele>231.5</ele>
        <time>2015-07-18T08:28:48Z</time>
      </trkpt>
      <trkpt lat="43.42621" lon="1.90852">
        <ele>228.2</ele>
        <time>2015-07-18T08:28:54Z</time>
      </trkpt>
      <trkpt lat="43.42643" lon="1.90873">
        <ele>224.6</ele>
        <time>2015-07-18T08:28:59Z</time>
      </trkpt>
      <trkpt lat="43.42675" lon="1.90874">
        <ele>222.1</ele>
        <time>2015-07-18T08:29:05Z</time>
      </trkpt>
      <trkpt lat="43.42706" lon="1.90877">
        <ele>223</ele>
        <time>2015-07-18T08:29:10Z</time>
      </trkpt>
      <trkpt lat="43.4273" lon="1.9088">
        <ele>223.5</ele>
        <time>2015-07-18T08:29:16Z</time>
      </trkpt>
      <trkpt lat="43.42758" lon="1.90884">
        <ele>226.2</ele>
        <time>2015-07-18T08:29:21Z</time>
      </trkpt>
      <trkpt lat="43.4278" lon="1.90903">
        <ele>226.1</ele>
        <time>2015-07-18T08:29:27Z</time>
      </trkpt>
      <trkpt lat="43.42796" lon="1.90933">
        <ele>225.7</ele>
        <time>2015-07-18T08:29:32Z</time>
      </trkpt>
      <trkpt lat="43.4281" lon="1.90951">
        <ele>226.1</ele>
        <time>2015-07-18T08:29:40Z</time>
      </trkpt>
      <trkpt lat="43.42815" lon="1.90965">
        <ele>227.4</ele>
        <time>2015-07-18T08:29:45Z</time>
      </trkpt>
      <trkpt lat="43.42822" lon="1.90959">
        <ele>224.3</ele>
        <time>2015-07-18T08:29:50Z</time>
      </trkpt>
      <trkpt lat="43.42816" lon="1.90953">
        <ele>226.6</ele>
        <time>2015-07-18T08:29:55Z</time>
      </trkpt>
      <trkpt lat="43.42807" lon="1.90955">
        <ele>229.9</ele>
        <time>2015-07-18T08:30:01Z</time>
      </trkpt>
      <trkpt lat="43.42804" lon="1.90972">
        <ele>231.9</ele>
        <time>2015-07-18T08:30:08Z</time>
      </trkpt>
      <trkpt lat="43.42804" lon="1.90995">
        <ele>231.6</ele>
        <time>2015-07-18T08:30:16Z</time>
      </trkpt>
      <trkpt lat="43.42844" lon="1.9106">
        <ele>230.2</ele>
        <time>2015-07-18T08:30:21Z</time>
      </trkpt>
      <trkpt lat="43.42857" lon="1.91089">
        <ele>228.6</ele>
        <time>2015-07-18T08:30:26Z</time>
      </trkpt>
      <trkpt lat="43.429" lon="1.91192">
        <ele>225.9</ele>
        <time>2015-07-18T08:30:44Z</time>
      </trkpt>
      <trkpt lat="43.42917" lon="1.91223">
        <ele>223.8</ele>
        <time>2015-07-18T08:30:50Z</time>
      </trkpt>
      <trkpt lat="43.42941" lon="1.91249">
        <ele>222.3</ele>
        <time>2015-07-18T08:30:55Z</time>
      </trkpt>
      <trkpt lat="43.42963" lon="1.91269">
        <ele>222.2</ele>
        <time>2015-07-18T08:31:00Z</time>
      </trkpt>
      <trkpt lat="43.42983" lon="1.91286">
        <ele>222.1</ele>
        <time>2015-07-18T08:31:06Z</time>
      </trkpt>
      <trkpt lat="43.42999" lon="1.91306">
        <ele>222.8</ele>
        <time>2015-07-18T08:31:11Z</time>
      </trkpt>
      <trkpt lat="43.43003" lon="1.91335">
        <ele>222.5</ele>
        <time>2015-07-18T08:31:18Z</time>
      </trkpt>
      <trkpt lat="43.43006" lon="1.9139">
        <ele>223.8</ele>
        <time>2015-07-18T08:31:23Z</time>
      </trkpt>
      <trkpt lat="43.4302" lon="1.91428">
        <ele>224.7</ele>
        <time>2015-07-18T08:31:29Z</time>
      </trkpt>
      <trkpt lat="43.4304" lon="1.91433">
        <ele>224</ele>
        <time>2015-07-18T08:31:35Z</time>
      </trkpt>
      <trkpt lat="43.43077" lon="1.91409">
        <ele>225.8</ele>
        <time>2015-07-18T08:31:41Z</time>
      </trkpt>
      <trkpt lat="43.43095" lon="1.91378">
        <ele>231.1</ele>
        <time>2015-07-18T08:31:46Z</time>
      </trkpt>
      <trkpt lat="43.43117" lon="1.91365">
        <ele>234.4</ele>
        <time>2015-07-18T08:31:51Z</time>
      </trkpt>
      <trkpt lat="43.43142" lon="1.91367">
        <ele>237.6</ele>
        <time>2015-07-18T08:31:57Z</time>
      </trkpt>
      <trkpt lat="43.43161" lon="1.91369">
        <ele>237.6</ele>
        <time>2015-07-18T08:32:04Z</time>
      </trkpt>
      <trkpt lat="43.43169" lon="1.9136">
        <ele>241.6</ele>
        <time>2015-07-18T08:32:09Z</time>
      </trkpt>
      <trkpt lat="43.43186" lon="1.91366">
        <ele>238.2</ele>
        <time>2015-07-18T08:32:15Z</time>
      </trkpt>
      <trkpt lat="43.43216" lon="1.91424">
        <ele>232.4</ele>
        <time>2015-07-18T08:32:25Z</time>
      </trkpt>
      <trkpt lat="43.43208" lon="1.9148">
        <ele>230</ele>
        <time>2015-07-18T08:32:36Z</time>
      </trkpt>
      <trkpt lat="43.43227" lon="1.9154">
        <ele>230.3</ele>
        <time>2015-07-18T08:32:42Z</time>
      </trkpt>
      <trkpt lat="43.43234" lon="1.91576">
        <ele>228.8</ele>
        <time>2015-07-18T08:32:47Z</time>
      </trkpt>
      <trkpt lat="43.43227" lon="1.91613">
        <ele>226.8</ele>
        <time>2015-07-18T08:32:53Z</time>
      </trkpt>
      <trkpt lat="43.43215" lon="1.91663">
        <ele>225.4</ele>
        <time>2015-07-18T08:32:59Z</time>
      </trkpt>
      <trkpt lat="43.4321" lon="1.91693">
        <ele>228.3</ele>
        <time>2015-07-18T08:33:04Z</time>
      </trkpt>
      <trkpt lat="43.43212" lon="1.91719">
        <ele>229.8</ele>
        <time>2015-07-18T08:33:10Z</time>
      </trkpt>
      <trkpt lat="43.43239" lon="1.91753">
        <ele>227.9</ele>
        <time>2015-07-18T08:33:15Z</time>
      </trkpt>
      <trkpt lat="43.43244" lon="1.9179">
        <ele>226.6</ele>
        <time>2015-07-18T08:33:20Z</time>
      </trkpt>
      <trkpt lat="43.43225" lon="1.91832">
        <ele>223</ele>
        <time>2015-07-18T08:33:26Z</time>
      </trkpt>
      <trkpt lat="43.43206" lon="1.91861">
        <ele>223.6</ele>
        <time>2015-07-18T08:33:32Z</time>
      </trkpt>
      <trkpt lat="43.43188" lon="1.91892">
        <ele>224.8</ele>
        <time>2015-07-18T08:33:38Z</time>
      </trkpt>
      <trkpt lat="43.4318" lon="1.91915">
        <ele>227.6</ele>
        <time>2015-07-18T08:33:44Z</time>
      </trkpt>
      <trkpt lat="43.43173" lon="1.91934">
        <ele>227.3</ele>
        <time>2015-07-18T08:33:50Z</time>
      </trkpt>
      <trkpt lat="43.43155" lon="1.91957">
        <ele>227.3</ele>
        <time>2015-07-18T08:33:55Z</time>
      </trkpt>
      <trkpt lat="43.43141" lon="1.91979">
        <ele>227.6</ele>
        <time>2015-07-18T08:34:00Z</time>
      </trkpt>
      <trkpt lat="43.43125" lon="1.92022">
        <ele>228.9</ele>
        <time>2015-07-18T08:34:06Z</time>
      </trkpt>
      <trkpt lat="43.43115" lon="1.92063">
        <ele>231.4</ele>
        <time>2015-07-18T08:34:12Z</time>
      </trkpt>
      <trkpt lat="43.43097" lon="1.92109">
        <ele>233.5</ele>
        <time>2015-07-18T08:34:18Z</time>
      </trkpt>
      <trkpt lat="43.43079" lon="1.92134">
        <ele>235</ele>
        <time>2015-07-18T08:34:24Z</time>
      </trkpt>
      <trkpt lat="43.43059" lon="1.92167">
        <ele>235.7</ele>
        <time>2015-07-18T08:34:29Z</time>
      </trkpt>
      <trkpt lat="43.43041" lon="1.92192">
        <ele>235.2</ele>
        <time>2015-07-18T08:34:34Z</time>
      </trkpt>
      <trkpt lat="43.4297" lon="1.92331">
        <ele>237.5</ele>
        <time>2015-07-18T08:34:56Z</time>
      </trkpt>
      <trkpt lat="43.42957" lon="1.92375">
        <ele>239.3</ele>
        <time>2015-07-18T08:35:02Z</time>
      </trkpt>
      <trkpt lat="43.4295" lon="1.92401">
        <ele>240.2</ele>
        <time>2015-07-18T08:35:10Z</time>
      </trkpt>
      <trkpt lat="43.42915" lon="1.92502">
        <ele>242.1</ele>
        <time>2015-07-18T08:35:20Z</time>
      </trkpt>
      <trkpt lat="43.42898" lon="1.92554">
        <ele>241.7</ele>
        <time>2015-07-18T08:35:25Z</time>
      </trkpt>
      <trkpt lat="43.42892" lon="1.92587">
        <ele>242.2</ele>
        <time>2015-07-18T08:35:31Z</time>
      </trkpt>
      <trkpt lat="43.42885" lon="1.92618">
        <ele>241.8</ele>
        <time>2015-07-18T08:35:52Z</time>
      </trkpt>
      <trkpt lat="43.42903" lon="1.92738">
        <ele>233.7</ele>
        <time>2015-07-18T08:35:57Z</time>
      </trkpt>
      <trkpt lat="43.42926" lon="1.92714">
        <ele>233.7</ele>
        <time>2015-07-18T08:36:02Z</time>
      </trkpt>
      <trkpt lat="43.42948" lon="1.92683">
        <ele>236.1</ele>
        <time>2015-07-18T08:36:11Z</time>
      </trkpt>
      <trkpt lat="43.42975" lon="1.92666">
        <ele>240.8</ele>
        <time>2015-07-18T08:36:19Z</time>
      </trkpt>
      <trkpt lat="43.43003" lon="1.92641">
        <ele>244.7</ele>
        <time>2015-07-18T08:36:24Z</time>
      </trkpt>
      <trkpt lat="43.43035" lon="1.92638">
        <ele>244</ele>
        <time>2015-07-18T08:36:30Z</time>
      </trkpt>
      <trkpt lat="43.43046" lon="1.92646">
        <ele>240.6</ele>
        <time>2015-07-18T08:36:49Z</time>
      </trkpt>
      <trkpt lat="43.43065" lon="1.92767">
        <ele>233</ele>
        <time>2015-07-18T08:36:54Z</time>
      </trkpt>
      <trkpt lat="43.43066" lon="1.92802">
        <ele>234.5</ele>
        <time>2015-07-18T08:36:59Z</time>
      </trkpt>
      <trkpt lat="43.4306" lon="1.92831">
        <ele>235.6</ele>
        <time>2015-07-18T08:37:04Z</time>
      </trkpt>
      <trkpt lat="43.43051" lon="1.92854">
        <ele>235.4</ele>
        <time>2015-07-18T08:37:10Z</time>
      </trkpt>
      <trkpt lat="43.43032" lon="1.92888">
        <ele>235.5</ele>
        <time>2015-07-18T08:37:15Z</time>
      </trkpt>
      <trkpt lat="43.4302" lon="1.92911">
        <ele>237.2</ele>
        <time>2015-07-18T08:37:20Z</time>
      </trkpt>
      <trkpt lat="43.42999" lon="1.92948">
        <ele>239.3</ele>
        <time>2015-07-18T08:37:27Z</time>
      </trkpt>
      <trkpt lat="43.42977" lon="1.92982">
        <ele>240.2</ele>
        <time>2015-07-18T08:37:33Z</time>
      </trkpt>
      <trkpt lat="43.42916" lon="1.93074">
        <ele>230.6</ele>
        <time>2015-07-18T08:37:50Z</time>
      </trkpt>
      <trkpt lat="43.42897" lon="1.93114">
        <ele>230.1</ele>
        <time>2015-07-18T08:37:55Z</time>
      </trkpt>
      <trkpt lat="43.42892" lon="1.9315">
        <ele>231.3</ele>
        <time>2015-07-18T08:38:00Z</time>
      </trkpt>
      <trkpt lat="43.42879" lon="1.93303">
        <ele>232.1</ele>
        <time>2015-07-18T08:38:23Z</time>
      </trkpt>
      <trkpt lat="43.42892" lon="1.93341">
        <ele>233.5</ele>
        <time>2015-07-18T08:38:29Z</time>
      </trkpt>
      <trkpt lat="43.429" lon="1.93383">
        <ele>235.5</ele>
        <time>2015-07-18T08:38:35Z</time>
      </trkpt>
      <trkpt lat="43.42904" lon="1.93417">
        <ele>236.9</ele>
        <time>2015-07-18T08:38:40Z</time>
      </trkpt>
      <trkpt lat="43.42899" lon="1.93455">
        <ele>239.7</ele>
        <time>2015-07-18T08:38:46Z</time>
      </trkpt>
      <trkpt lat="43.42888" lon="1.93484">
        <ele>239.9</ele>
        <time>2015-07-18T08:38:51Z</time>
      </trkpt>
      <trkpt lat="43.42874" lon="1.9355">
        <ele>236.3</ele>
        <time>2015-07-18T08:39:00Z</time>
      </trkpt>
      <trkpt lat="43.42881" lon="1.93595">
        <ele>235.8</ele>
        <time>2015-07-18T08:39:06Z</time>
      </trkpt>
      <trkpt lat="43.429" lon="1.93628">
        <ele>235.9</ele>
        <time>2015-07-18T08:39:20Z</time>
      </trkpt>
      <trkpt lat="43.42944" lon="1.93709">
        <ele>236</ele>
        <time>2015-07-18T08:39:25Z</time>
      </trkpt>
      <trkpt lat="43.42957" lon="1.93737">
        <ele>235.7</ele>
        <time>2015-07-18T08:39:32Z</time>
      </trkpt>
      <trkpt lat="43.42975" lon="1.93781">
        <ele>235.2</ele>
        <time>2015-07-18T08:39:38Z</time>
      </trkpt>
      <trkpt lat="43.42987" lon="1.93826">
        <ele>236.2</ele>
        <time>2015-07-18T08:39:44Z</time>
      </trkpt>
      <trkpt lat="43.42994" lon="1.93861">
        <ele>236.2</ele>
        <time>2015-07-18T08:39:51Z</time>
      </trkpt>
      <trkpt lat="43.43004" lon="1.93908">
        <ele>234.5</ele>
        <time>2015-07-18T08:39:57Z</time>
      </trkpt>
      <trkpt lat="43.43011" lon="1.9396">
        <ele>233.7</ele>
        <time>2015-07-18T08:40:02Z</time>
      </trkpt>
      <trkpt lat="43.43016" lon="1.93995">
        <ele>233.5</ele>
        <time>2015-07-18T08:40:07Z</time>
      </trkpt>
      <trkpt lat="43.43027" lon="1.94029">
        <ele>232.1</ele>
        <time>2015-07-18T08:40:12Z</time>
      </trkpt>
      <trkpt lat="43.43047" lon="1.94044">
        <ele>230.3</ele>
        <time>2015-07-18T08:40:18Z</time>
      </trkpt>
      <trkpt lat="43.4307" lon="1.94069">
        <ele>228.4</ele>
        <time>2015-07-18T08:40:25Z</time>
      </trkpt>
      <trkpt lat="43.43078" lon="1.94112">
        <ele>227.9</ele>
        <time>2015-07-18T08:40:31Z</time>
      </trkpt>
      <trkpt lat="43.4308" lon="1.9416">
        <ele>228.5</ele>
        <time>2015-07-18T08:40:36Z</time>
      </trkpt>
      <trkpt lat="43.43083" lon="1.94198">
        <ele>230.5</ele>
        <time>2015-07-18T08:40:42Z</time>
      </trkpt>
      <trkpt lat="43.43084" lon="1.94231">
        <ele>232.2</ele>
        <time>2015-07-18T08:40:48Z</time>
      </trkpt>
      <trkpt lat="43.43079" lon="1.94273">
        <ele>233.6</ele>
        <time>2015-07-18T08:40:53Z</time>
      </trkpt>
      <trkpt lat="43.43074" lon="1.94311">
        <ele>231.8</ele>
        <time>2015-07-18T08:41:00Z</time>
      </trkpt>
      <trkpt lat="43.43067" lon="1.94361">
        <ele>231.5</ele>
        <time>2015-07-18T08:41:05Z</time>
      </trkpt>
      <trkpt lat="43.43062" lon="1.94395">
        <ele>231.6</ele>
        <time>2015-07-18T08:41:10Z</time>
      </trkpt>
      <trkpt lat="43.43057" lon="1.94428">
        <ele>230</ele>
        <time>2015-07-18T08:41:17Z</time>
      </trkpt>
      <trkpt lat="43.43052" lon="1.94477">
        <ele>228</ele>
        <time>2015-07-18T08:41:23Z</time>
      </trkpt>
      <trkpt lat="43.43046" lon="1.94516">
        <ele>226.3</ele>
        <time>2015-07-18T08:41:29Z</time>
      </trkpt>
      <trkpt lat="43.43043" lon="1.94542">
        <ele>225.5</ele>
        <time>2015-07-18T08:41:34Z</time>
      </trkpt>
      <trkpt lat="43.43032" lon="1.94571">
        <ele>225.5</ele>
        <time>2015-07-18T08:41:40Z</time>
      </trkpt>
      <trkpt lat="43.43017" lon="1.94599">
        <ele>225.3</ele>
        <time>2015-07-18T08:41:45Z</time>
      </trkpt>
      <trkpt lat="43.42998" lon="1.94634">
        <ele>227</ele>
        <time>2015-07-18T08:41:50Z</time>
      </trkpt>
      <trkpt lat="43.42987" lon="1.94664">
        <ele>225.7</ele>
        <time>2015-07-18T08:41:56Z</time>
      </trkpt>
      <trkpt lat="43.42967" lon="1.94695">
        <ele>225.8</ele>
        <time>2015-07-18T08:42:02Z</time>
      </trkpt>
      <trkpt lat="43.42945" lon="1.94714">
        <ele>226.5</ele>
        <time>2015-07-18T08:42:07Z</time>
      </trkpt>
      <trkpt lat="43.42917" lon="1.94733">
        <ele>226.7</ele>
        <time>2015-07-18T08:42:13Z</time>
      </trkpt>
      <trkpt lat="43.4289" lon="1.94744">
        <ele>227</ele>
        <time>2015-07-18T08:42:18Z</time>
      </trkpt>
      <trkpt lat="43.42865" lon="1.9476">
        <ele>227.2</ele>
        <time>2015-07-18T08:42:24Z</time>
      </trkpt>
      <trkpt lat="43.42848" lon="1.94783">
        <ele>226</ele>
        <time>2015-07-18T08:42:29Z</time>
      </trkpt>
      <trkpt lat="43.42837" lon="1.94818">
        <ele>227.8</ele>
        <time>2015-07-18T08:42:35Z</time>
      </trkpt>
      <trkpt lat="43.42832" lon="1.94852">
        <ele>228.3</ele>
        <time>2015-07-18T08:42:40Z</time>
      </trkpt>
      <trkpt lat="43.42829" lon="1.94897">
        <ele>227.6</ele>
        <time>2015-07-18T08:42:45Z</time>
      </trkpt>
      <trkpt lat="43.42829" lon="1.94933">
        <ele>227.2</ele>
        <time>2015-07-18T08:42:52Z</time>
      </trkpt>
      <trkpt lat="43.42835" lon="1.94975">
        <ele>226.9</ele>
        <time>2015-07-18T08:42:57Z</time>
      </trkpt>
      <trkpt lat="43.42844" lon="1.95019">
        <ele>225.6</ele>
        <time>2015-07-18T08:43:02Z</time>
      </trkpt>
      <trkpt lat="43.42852" lon="1.95053">
        <ele>225.1</ele>
        <time>2015-07-18T08:43:07Z</time>
      </trkpt>
      <trkpt lat="43.4286" lon="1.95087">
        <ele>225.5</ele>
        <time>2015-07-18T08:43:13Z</time>
      </trkpt>
      <trkpt lat="43.42868" lon="1.95127">
        <ele>226.4</ele>
        <time>2015-07-18T08:43:20Z</time>
      </trkpt>
      <trkpt lat="43.42872" lon="1.95155">
        <ele>226.3</ele>
        <time>2015-07-18T08:43:28Z</time>
      </trkpt>
      <trkpt lat="43.42901" lon="1.95223">
        <ele>228.1</ele>
        <time>2015-07-18T08:43:33Z</time>
      </trkpt>
      <trkpt lat="43.42918" lon="1.9525">
        <ele>227.7</ele>
        <time>2015-07-18T08:43:38Z</time>
      </trkpt>
      <trkpt lat="43.42937" lon="1.95284">
        <ele>226.4</ele>
        <time>2015-07-18T08:43:45Z</time>
      </trkpt>
      <trkpt lat="43.42951" lon="1.95305">
        <ele>225.6</ele>
        <time>2015-07-18T08:43:51Z</time>
      </trkpt>
      <trkpt lat="43.42978" lon="1.95347">
        <ele>224.1</ele>
        <time>2015-07-18T08:44:00Z</time>
      </trkpt>
      <trkpt lat="43.42987" lon="1.95363">
        <ele>223.3</ele>
        <time>2015-07-18T08:44:06Z</time>
      </trkpt>
      <trkpt lat="43.42988" lon="1.95364">
        <ele>223.1</ele>
        <time>2015-07-18T08:44:12Z</time>
      </trkpt>
      <trkpt lat="43.42988" lon="1.95366">
        <ele>224</ele>
        <time>2015-07-18T08:44:17Z</time>
      </trkpt>
      <trkpt lat="43.42998" lon="1.95388">
        <ele>223.7</ele>
        <time>2015-07-18T08:44:26Z</time>
      </trkpt>
      <trkpt lat="43.43009" lon="1.95427">
        <ele>224.3</ele>
        <time>2015-07-18T08:44:31Z</time>
      </trkpt>
      <trkpt lat="43.43009" lon="1.95448">
        <ele>227</ele>
        <time>2015-07-18T08:44:36Z</time>
      </trkpt>
      <trkpt lat="43.43009" lon="1.95469">
        <ele>231</ele>
        <time>2015-07-18T08:44:43Z</time>
      </trkpt>
      <trkpt lat="43.43008" lon="1.95496">
        <ele>234.6</ele>
        <time>2015-07-18T08:44:49Z</time>
      </trkpt>
      <trkpt lat="43.43016" lon="1.95517">
        <ele>238.9</ele>
        <time>2015-07-18T08:44:58Z</time>
      </trkpt>
      <trkpt lat="43.43026" lon="1.95539">
        <ele>239.5</ele>
        <time>2015-07-18T08:45:06Z</time>
      </trkpt>
      <trkpt lat="43.43037" lon="1.95555">
        <ele>238</ele>
        <time>2015-07-18T08:45:12Z</time>
      </trkpt>
      <trkpt lat="43.43044" lon="1.95563">
        <ele>236.9</ele>
        <time>2015-07-18T08:45:17Z</time>
      </trkpt>
      <trkpt lat="43.43044" lon="1.95565">
        <ele>236.2</ele>
        <time>2015-07-18T08:45:23Z</time>
      </trkpt>
      <trkpt lat="43.43044" lon="1.95565">
        <ele>236.2</ele>
        <time>2015-07-18T08:45:29Z</time>
      </trkpt>
      <trkpt lat="43.43044" lon="1.95565">
        <ele>236.2</ele>
        <time>2015-07-18T08:45:35Z</time>
      </trkpt>
      <trkpt lat="43.43044" lon="1.95565">
        <ele>236.2</ele>
        <time>2015-07-18T08:45:40Z</time>
      </trkpt>
      <trkpt lat="43.43044" lon="1.95565">
        <ele>236.2</ele>
        <time>2015-07-18T08:45:46Z</time>
      </trkpt>
      <trkpt lat="43.43044" lon="1.95565">
        <ele>236.2</ele>
        <time>2015-07-18T08:45:51Z</time>
      </trkpt>
      <trkpt lat="43.43044" lon="1.95565">
        <ele>236.2</ele>
        <time>2015-07-18T08:45:57Z</time>
      </trkpt>
      <trkpt lat="43.43044" lon="1.95565">
        <ele>236.2</ele>
        <time>2015-07-18T08:46:03Z</time>
      </trkpt>
      <trkpt lat="43.43044" lon="1.95565">
        <ele>236.2</ele>
        <time>2015-07-18T08:46:09Z</time>
      </trkpt>
      <trkpt lat="43.43044" lon="1.95565">
        <ele>236.2</ele>
        <time>2015-07-18T08:46:15Z</time>
      </trkpt>
      <trkpt lat="43.43044" lon="1.95565">
        <ele>236.2</ele>
        <time>2015-07-18T08:46:21Z</time>
      </trkpt>
      <trkpt lat="43.43044" lon="1.95565">
        <ele>236.2</ele>
        <time>2015-07-18T08:46:26Z</time>
      </trkpt>
      <trkpt lat="43.43044" lon="1.95565">
        <ele>236.2</ele>
        <time>2015-07-18T08:46:31Z</time>
      </trkpt>
      <trkpt lat="43.43044" lon="1.95565">
        <ele>236.2</ele>
        <time>2015-07-18T08:46:36Z</time>
      </trkpt>
      <trkpt lat="43.43044" lon="1.95565">
        <ele>236.2</ele>
        <time>2015-07-18T08:46:42Z</time>
      </trkpt>
      <trkpt lat="43.43044" lon="1.95565">
        <ele>236.2</ele>
        <time>2015-07-18T08:46:47Z</time>
      </trkpt>
      <trkpt lat="43.43054" lon="1.95565">
        <ele>219.9</ele>
        <time>2015-07-18T08:46:53Z</time>
      </trkpt>
      <trkpt lat="43.43054" lon="1.95565">
        <ele>219.6</ele>
        <time>2015-07-18T08:46:59Z</time>
      </trkpt>
      <trkpt lat="43.43054" lon="1.95565">
        <ele>219.6</ele>
        <time>2015-07-18T08:47:04Z</time>
      </trkpt>
      <trkpt lat="43.43054" lon="1.95565">
        <ele>219.6</ele>
        <time>2015-07-18T08:47:10Z</time>
      </trkpt>
      <trkpt lat="43.43054" lon="1.95565">
        <ele>219.6</ele>
        <time>2015-07-18T08:47:15Z</time>
      </trkpt>
      <trkpt lat="43.43054" lon="1.95565">
        <ele>219.6</ele>
        <time>2015-07-18T08:47:22Z</time>
      </trkpt>
      <trkpt lat="43.43054" lon="1.95565">
        <ele>219.6</ele>
        <time>2015-07-18T08:47:27Z</time>
      </trkpt>
      <trkpt lat="43.43054" lon="1.95565">
        <ele>219.6</ele>
        <time>2015-07-18T08:47:33Z</time>
      </trkpt>
      <trkpt lat="43.43054" lon="1.95565">
        <ele>219.6</ele>
        <time>2015-07-18T08:47:39Z</time>
      </trkpt>
      <trkpt lat="43.43054" lon="1.95565">
        <ele>219.6</ele>
        <time>2015-07-18T08:48:00Z</time>
      </trkpt>
      <trkpt lat="43.43054" lon="1.95565">
        <ele>219.6</ele>
        <time>2015-07-18T08:48:06Z</time>
      </trkpt>
      <trkpt lat="43.43054" lon="1.95565">
        <ele>219.6</ele>
        <time>2015-07-18T08:48:11Z</time>
      </trkpt>
      <trkpt lat="43.43054" lon="1.95565">
        <ele>219.6</ele>
        <time>2015-07-18T08:48:16Z</time>
      </trkpt>
      <trkpt lat="43.43054" lon="1.95565">
        <ele>219.6</ele>
        <time>2015-07-18T08:48:21Z</time>
      </trkpt>
      <trkpt lat="43.43054" lon="1.95565">
        <ele>219.6</ele>
        <time>2015-07-18T08:48:26Z</time>
      </trkpt>
      <trkpt lat="43.43054" lon="1.95565">
        <ele>219.6</ele>
        <time>2015-07-18T08:48:35Z</time>
      </trkpt>
      <trkpt lat="43.43054" lon="1.95565">
        <ele>219.6</ele>
        <time>2015-07-18T08:48:41Z</time>
      </trkpt>
      <trkpt lat="43.43054" lon="1.95565">
        <ele>219.6</ele>
        <time>2015-07-18T08:48:46Z</time>
      </trkpt>
      <trkpt lat="43.43054" lon="1.95565">
        <ele>219.6</ele>
        <time>2015-07-18T08:48:51Z</time>
      </trkpt>
      <trkpt lat="43.43054" lon="1.95565">
        <ele>219.6</ele>
        <time>2015-07-18T08:48:57Z</time>
      </trkpt>
      <trkpt lat="43.43054" lon="1.95565">
        <ele>219.6</ele>
        <time>2015-07-18T08:49:03Z</time>
      </trkpt>
      <trkpt lat="43.43054" lon="1.95565">
        <ele>219.6</ele>
        <time>2015-07-18T08:49:09Z</time>
      </trkpt>
      <trkpt lat="43.43054" lon="1.95565">
        <ele>219.6</ele>
        <time>2015-07-18T08:49:14Z</time>
      </trkpt>
      <trkpt lat="43.43054" lon="1.95565">
        <ele>219.6</ele>
        <time>2015-07-18T08:49:20Z</time>
      </trkpt>
      <trkpt lat="43.43054" lon="1.95565">
        <ele>219.6</ele>
        <time>2015-07-18T08:49:25Z</time>
      </trkpt>
      <trkpt lat="43.43054" lon="1.95565">
        <ele>219.6</ele>
        <time>2015-07-18T08:49:31Z</time>
      </trkpt>
      <trkpt lat="43.43054" lon="1.95565">
        <ele>219.6</ele>
        <time>2015-07-18T08:49:36Z</time>
      </trkpt>
      <trkpt lat="43.43054" lon="1.95565">
        <ele>219.6</ele>
        <time>2015-07-18T08:49:42Z</time>
      </trkpt>
      <trkpt lat="43.43054" lon="1.95565">
        <ele>219.6</ele>
        <time>2015-07-18T08:49:48Z</time>
      </trkpt>
      <trkpt lat="43.43054" lon="1.95565">
        <ele>219.6</ele>
        <time>2015-07-18T08:49:57Z</time>
      </trkpt>
      <trkpt lat="43.43054" lon="1.95565">
        <ele>219.6</ele>
        <time>2015-07-18T08:50:03Z</time>
      </trkpt>
      <trkpt lat="43.43045" lon="1.9557">
        <ele>214.8</ele>
        <time>2015-07-18T08:50:09Z</time>
      </trkpt>
      <trkpt lat="43.43045" lon="1.9557">
        <ele>214.8</ele>
        <time>2015-07-18T08:50:14Z</time>
      </trkpt>
      <trkpt lat="43.43045" lon="1.9557">
        <ele>214.8</ele>
        <time>2015-07-18T08:50:19Z</time>
      </trkpt>
      <trkpt lat="43.43045" lon="1.9557">
        <ele>214.8</ele>
        <time>2015-07-18T08:50:25Z</time>
      </trkpt>
      <trkpt lat="43.43056" lon="1.95576">
        <ele>216.8</ele>
        <time>2015-07-18T08:50:31Z</time>
      </trkpt>
      <trkpt lat="43.43071" lon="1.9557">
        <ele>219.7</ele>
        <time>2015-07-18T08:50:37Z</time>
      </trkpt>
      <trkpt lat="43.43098" lon="1.9555">
        <ele>227.9</ele>
        <time>2015-07-18T08:50:42Z</time>
      </trkpt>
      <trkpt lat="43.43118" lon="1.95536">
        <ele>232.5</ele>
        <time>2015-07-18T08:50:48Z</time>
      </trkpt>
      <trkpt lat="43.43146" lon="1.95519">
        <ele>237.8</ele>
        <time>2015-07-18T08:50:55Z</time>
      </trkpt>
      <trkpt lat="43.43167" lon="1.95502">
        <ele>244.1</ele>
        <time>2015-07-18T08:51:00Z</time>
      </trkpt>
      <trkpt lat="43.43191" lon="1.95489">
        <ele>248.3</ele>
        <time>2015-07-18T08:51:05Z</time>
      </trkpt>
      <trkpt lat="43.43216" lon="1.95498">
        <ele>252.7</ele>
        <time>2015-07-18T08:51:11Z</time>
      </trkpt>
      <trkpt lat="43.43244" lon="1.95502">
        <ele>256.5</ele>
        <time>2015-07-18T08:51:17Z</time>
      </trkpt>
      <trkpt lat="43.43282" lon="1.95501">
        <ele>256.5</ele>
        <time>2015-07-18T08:51:24Z</time>
      </trkpt>
      <trkpt lat="43.43311" lon="1.955">
        <ele>258.4</ele>
        <time>2015-07-18T08:51:29Z</time>
      </trkpt>
      <trkpt lat="43.43331" lon="1.95501">
        <ele>260.5</ele>
        <time>2015-07-18T08:51:35Z</time>
      </trkpt>
      <trkpt lat="43.43368" lon="1.95508">
        <ele>251.9</ele>
        <time>2015-07-18T08:51:40Z</time>
      </trkpt>
      <trkpt lat="43.43395" lon="1.95517">
        <ele>248.9</ele>
        <time>2015-07-18T08:51:45Z</time>
      </trkpt>
      <trkpt lat="43.43422" lon="1.95531">
        <ele>245.5</ele>
        <time>2015-07-18T08:51:50Z</time>
      </trkpt>
      <trkpt lat="43.43445" lon="1.95551">
        <ele>242.9</ele>
        <time>2015-07-18T08:51:56Z</time>
      </trkpt>
      <trkpt lat="43.43475" lon="1.95562">
        <ele>242.5</ele>
        <time>2015-07-18T08:52:02Z</time>
      </trkpt>
      <trkpt lat="43.43507" lon="1.95544">
        <ele>239.8</ele>
        <time>2015-07-18T08:52:07Z</time>
      </trkpt>
      <trkpt lat="43.43526" lon="1.9553">
        <ele>239.6</ele>
        <time>2015-07-18T08:52:13Z</time>
      </trkpt>
      <trkpt lat="43.43546" lon="1.95522">
        <ele>242.8</ele>
        <time>2015-07-18T08:52:19Z</time>
      </trkpt>
      <trkpt lat="43.43552" lon="1.95518">
        <ele>243.4</ele>
        <time>2015-07-18T08:52:25Z</time>
      </trkpt>
      <trkpt lat="43.43584" lon="1.95507">
        <ele>250.3</ele>
        <time>2015-07-18T08:52:31Z</time>
      </trkpt>
      <trkpt lat="43.43603" lon="1.95501">
        <ele>256.1</ele>
        <time>2015-07-18T08:52:36Z</time>
      </trkpt>
      <trkpt lat="43.43627" lon="1.95497">
        <ele>261.6</ele>
        <time>2015-07-18T08:52:41Z</time>
      </trkpt>
      <trkpt lat="43.43646" lon="1.95497">
        <ele>263.8</ele>
        <time>2015-07-18T08:52:47Z</time>
      </trkpt>
      <trkpt lat="43.43673" lon="1.9549">
        <ele>268.8</ele>
        <time>2015-07-18T08:52:53Z</time>
      </trkpt>
      <trkpt lat="43.43695" lon="1.95473">
        <ele>272.5</ele>
        <time>2015-07-18T08:52:59Z</time>
      </trkpt>
      <trkpt lat="43.4372" lon="1.95456">
        <ele>271.6</ele>
        <time>2015-07-18T08:53:04Z</time>
      </trkpt>
      <trkpt lat="43.43741" lon="1.95436">
        <ele>276.3</ele>
        <time>2015-07-18T08:53:09Z</time>
      </trkpt>
      <trkpt lat="43.43754" lon="1.95423">
        <ele>279.8</ele>
        <time>2015-07-18T08:53:16Z</time>
      </trkpt>
      <trkpt lat="43.43802" lon="1.95387">
        <ele>272.8</ele>
        <time>2015-07-18T08:53:22Z</time>
      </trkpt>
      <trkpt lat="43.43831" lon="1.95366">
        <ele>264.5</ele>
        <time>2015-07-18T08:53:27Z</time>
      </trkpt>
      <trkpt lat="43.43865" lon="1.95343">
        <ele>266.7</ele>
        <time>2015-07-18T08:53:32Z</time>
      </trkpt>
      <trkpt lat="43.43889" lon="1.95355">
        <ele>266.1</ele>
        <time>2015-07-18T08:53:38Z</time>
      </trkpt>
      <trkpt lat="43.43897" lon="1.95395">
        <ele>264.6</ele>
        <time>2015-07-18T08:53:44Z</time>
      </trkpt>
      <trkpt lat="43.43906" lon="1.95434">
        <ele>263.3</ele>
        <time>2015-07-18T08:53:50Z</time>
      </trkpt>
      <trkpt lat="43.43916" lon="1.95465">
        <ele>262.7</ele>
        <time>2015-07-18T08:53:55Z</time>
      </trkpt>
      <trkpt lat="43.43934" lon="1.95493">
        <ele>260.8</ele>
        <time>2015-07-18T08:54:00Z</time>
      </trkpt>
      <trkpt lat="43.43953" lon="1.95517">
        <ele>256.9</ele>
        <time>2015-07-18T08:54:05Z</time>
      </trkpt>
      <trkpt lat="43.43969" lon="1.95601">
        <ele>246.2</ele>
        <time>2015-07-18T08:54:16Z</time>
      </trkpt>
      <trkpt lat="43.43962" lon="1.95648">
        <ele>243.9</ele>
        <time>2015-07-18T08:54:22Z</time>
      </trkpt>
      <trkpt lat="43.4395" lon="1.95683">
        <ele>243.2</ele>
        <time>2015-07-18T08:54:27Z</time>
      </trkpt>
      <trkpt lat="43.4394" lon="1.9571">
        <ele>242.4</ele>
        <time>2015-07-18T08:54:32Z</time>
      </trkpt>
      <trkpt lat="43.43933" lon="1.95763">
        <ele>241.1</ele>
        <time>2015-07-18T08:54:37Z</time>
      </trkpt>
      <trkpt lat="43.43963" lon="1.95766">
        <ele>238.4</ele>
        <time>2015-07-18T08:54:45Z</time>
      </trkpt>
      <trkpt lat="43.43986" lon="1.95739">
        <ele>239.9</ele>
        <time>2015-07-18T08:54:51Z</time>
      </trkpt>
      <trkpt lat="43.44021" lon="1.95698">
        <ele>240.4</ele>
        <time>2015-07-18T08:55:00Z</time>
      </trkpt>
      <trkpt lat="43.4404" lon="1.9567">
        <ele>240.1</ele>
        <time>2015-07-18T08:55:05Z</time>
      </trkpt>
      <trkpt lat="43.44065" lon="1.95634">
        <ele>239.6</ele>
        <time>2015-07-18T08:55:15Z</time>
      </trkpt>
      <trkpt lat="43.44091" lon="1.95592">
        <ele>241.2</ele>
        <time>2015-07-18T08:55:20Z</time>
      </trkpt>
      <trkpt lat="43.44111" lon="1.95569">
        <ele>242.8</ele>
        <time>2015-07-18T08:55:25Z</time>
      </trkpt>
      <trkpt lat="43.44134" lon="1.95546">
        <ele>244.4</ele>
        <time>2015-07-18T08:55:31Z</time>
      </trkpt>
      <trkpt lat="43.44159" lon="1.95518">
        <ele>246.5</ele>
        <time>2015-07-18T08:55:37Z</time>
      </trkpt>
      <trkpt lat="43.44183" lon="1.95493">
        <ele>249.5</ele>
        <time>2015-07-18T08:55:42Z</time>
      </trkpt>
      <trkpt lat="43.44203" lon="1.95469">
        <ele>251.4</ele>
        <time>2015-07-18T08:55:47Z</time>
      </trkpt>
      <trkpt lat="43.44222" lon="1.95443">
        <ele>252.3</ele>
        <time>2015-07-18T08:55:52Z</time>
      </trkpt>
      <trkpt lat="43.44232" lon="1.95423">
        <ele>251.7</ele>
        <time>2015-07-18T08:55:58Z</time>
      </trkpt>
      <trkpt lat="43.44246" lon="1.95371">
        <ele>248.5</ele>
        <time>2015-07-18T08:56:04Z</time>
      </trkpt>
      <trkpt lat="43.44245" lon="1.95339">
        <ele>249</ele>
        <time>2015-07-18T08:56:09Z</time>
      </trkpt>
      <trkpt lat="43.44256" lon="1.953">
        <ele>247.2</ele>
        <time>2015-07-18T08:56:14Z</time>
      </trkpt>
      <trkpt lat="43.44281" lon="1.95289">
        <ele>248.9</ele>
        <time>2015-07-18T08:56:20Z</time>
      </trkpt>
      <trkpt lat="43.44306" lon="1.95289">
        <ele>249</ele>
        <time>2015-07-18T08:56:25Z</time>
      </trkpt>
      <trkpt lat="43.44331" lon="1.95293">
        <ele>249.7</ele>
        <time>2015-07-18T08:56:34Z</time>
      </trkpt>
      <trkpt lat="43.44392" lon="1.95316">
        <ele>264.8</ele>
        <time>2015-07-18T08:56:46Z</time>
      </trkpt>
      <trkpt lat="43.44419" lon="1.95299">
        <ele>269.3</ele>
        <time>2015-07-18T08:56:53Z</time>
      </trkpt>
      <trkpt lat="43.44446" lon="1.95307">
        <ele>275.9</ele>
        <time>2015-07-18T08:56:59Z</time>
      </trkpt>
      <trkpt lat="43.44457" lon="1.95329">
        <ele>281.5</ele>
        <time>2015-07-18T08:57:04Z</time>
      </trkpt>
      <trkpt lat="43.44456" lon="1.95362">
        <ele>289.7</ele>
        <time>2015-07-18T08:57:09Z</time>
      </trkpt>
      <trkpt lat="43.44456" lon="1.95389">
        <ele>294.9</ele>
        <time>2015-07-18T08:57:15Z</time>
      </trkpt>
      <trkpt lat="43.44448" lon="1.95422">
        <ele>304.5</ele>
        <time>2015-07-18T08:57:20Z</time>
      </trkpt>
      <trkpt lat="43.4444" lon="1.95459">
        <ele>302</ele>
        <time>2015-07-18T08:57:27Z</time>
      </trkpt>
      <trkpt lat="43.44431" lon="1.95508">
        <ele>296.6</ele>
        <time>2015-07-18T08:57:33Z</time>
      </trkpt>
      <trkpt lat="43.44417" lon="1.9554">
        <ele>292.2</ele>
        <time>2015-07-18T08:57:39Z</time>
      </trkpt>
      <trkpt lat="43.44401" lon="1.95569">
        <ele>285.9</ele>
        <time>2015-07-18T08:57:44Z</time>
      </trkpt>
      <trkpt lat="43.44383" lon="1.95604">
        <ele>274.1</ele>
        <time>2015-07-18T08:57:49Z</time>
      </trkpt>
      <trkpt lat="43.44372" lon="1.95641">
        <ele>270.6</ele>
        <time>2015-07-18T08:57:55Z</time>
      </trkpt>
      <trkpt lat="43.44365" lon="1.95685">
        <ele>265.9</ele>
        <time>2015-07-18T08:58:00Z</time>
      </trkpt>
      <trkpt lat="43.44364" lon="1.95715">
        <ele>265.1</ele>
        <time>2015-07-18T08:58:06Z</time>
      </trkpt>
      <trkpt lat="43.44368" lon="1.95762">
        <ele>263.8</ele>
        <time>2015-07-18T08:58:11Z</time>
      </trkpt>
      <trkpt lat="43.44371" lon="1.95799">
        <ele>263.3</ele>
        <time>2015-07-18T08:58:16Z</time>
      </trkpt>
      <trkpt lat="43.4437" lon="1.9585">
        <ele>261.5</ele>
        <time>2015-07-18T08:58:23Z</time>
      </trkpt>
      <trkpt lat="43.44379" lon="1.95893">
        <ele>260.9</ele>
        <time>2015-07-18T08:58:29Z</time>
      </trkpt>
      <trkpt lat="43.44392" lon="1.95921">
        <ele>257.4</ele>
        <time>2015-07-18T08:58:34Z</time>
      </trkpt>
      <trkpt lat="43.44407" lon="1.95957">
        <ele>255.9</ele>
        <time>2015-07-18T08:58:40Z</time>
      </trkpt>
      <trkpt lat="43.44427" lon="1.95983">
        <ele>253.4</ele>
        <time>2015-07-18T08:58:45Z</time>
      </trkpt>
      <trkpt lat="43.4445" lon="1.96005">
        <ele>250</ele>
        <time>2015-07-18T08:58:50Z</time>
      </trkpt>
      <trkpt lat="43.44468" lon="1.96046">
        <ele>247.1</ele>
        <time>2015-07-18T08:58:56Z</time>
      </trkpt>
      <trkpt lat="43.44477" lon="1.96079">
        <ele>246.6</ele>
        <time>2015-07-18T08:59:02Z</time>
      </trkpt>
      <trkpt lat="43.44478" lon="1.9613">
        <ele>243.5</ele>
        <time>2015-07-18T08:59:08Z</time>
      </trkpt>
      <trkpt lat="43.44473" lon="1.9617">
        <ele>244</ele>
        <time>2015-07-18T08:59:14Z</time>
      </trkpt>
      <trkpt lat="43.4447" lon="1.96208">
        <ele>247</ele>
        <time>2015-07-18T08:59:20Z</time>
      </trkpt>
      <trkpt lat="43.44462" lon="1.96235">
        <ele>253.3</ele>
        <time>2015-07-18T08:59:25Z</time>
      </trkpt>
      <trkpt lat="43.44448" lon="1.9626">
        <ele>257.6</ele>
        <time>2015-07-18T08:59:31Z</time>
      </trkpt>
      <trkpt lat="43.44435" lon="1.96287">
        <ele>256.7</ele>
        <time>2015-07-18T08:59:36Z</time>
      </trkpt>
      <trkpt lat="43.44427" lon="1.96304">
        <ele>252.4</ele>
        <time>2015-07-18T08:59:59Z</time>
      </trkpt>
      <trkpt lat="43.44454" lon="1.96445">
        <ele>231</ele>
        <time>2015-07-18T09:00:05Z</time>
      </trkpt>
      <trkpt lat="43.44472" lon="1.96442">
        <ele>231.8</ele>
        <time>2015-07-18T09:00:10Z</time>
      </trkpt>
      <trkpt lat="43.44494" lon="1.96442">
        <ele>232.6</ele>
        <time>2015-07-18T09:00:16Z</time>
      </trkpt>
      <trkpt lat="43.44529" lon="1.96495">
        <ele>232.9</ele>
        <time>2015-07-18T09:00:25Z</time>
      </trkpt>
      <trkpt lat="43.44539" lon="1.96534">
        <ele>233.2</ele>
        <time>2015-07-18T09:00:31Z</time>
      </trkpt>
      <trkpt lat="43.44547" lon="1.96581">
        <ele>232.3</ele>
        <time>2015-07-18T09:00:38Z</time>
      </trkpt>
      <trkpt lat="43.44558" lon="1.96623">
        <ele>231.6</ele>
        <time>2015-07-18T09:00:44Z</time>
      </trkpt>
      <trkpt lat="43.44554" lon="1.9667">
        <ele>231.1</ele>
        <time>2015-07-18T09:00:50Z</time>
      </trkpt>
      <trkpt lat="43.44544" lon="1.96705">
        <ele>233</ele>
        <time>2015-07-18T09:00:55Z</time>
      </trkpt>
      <trkpt lat="43.44531" lon="1.96749">
        <ele>235.6</ele>
        <time>2015-07-18T09:01:00Z</time>
      </trkpt>
      <trkpt lat="43.44525" lon="1.96772">
        <ele>237.1</ele>
        <time>2015-07-18T09:01:06Z</time>
      </trkpt>
      <trkpt lat="43.44499" lon="1.96824">
        <ele>240.7</ele>
        <time>2015-07-18T09:01:12Z</time>
      </trkpt>
      <trkpt lat="43.44496" lon="1.96863">
        <ele>243.4</ele>
        <time>2015-07-18T09:01:18Z</time>
      </trkpt>
      <trkpt lat="43.44517" lon="1.96919">
        <ele>243.3</ele>
        <time>2015-07-18T09:01:27Z</time>
      </trkpt>
      <trkpt lat="43.44527" lon="1.96955">
        <ele>243.2</ele>
        <time>2015-07-18T09:01:33Z</time>
      </trkpt>
      <trkpt lat="43.44529" lon="1.96961">
        <ele>243.4</ele>
        <time>2015-07-18T09:01:39Z</time>
      </trkpt>
      <trkpt lat="43.44557" lon="1.97032">
        <ele>242.6</ele>
        <time>2015-07-18T09:01:44Z</time>
      </trkpt>
      <trkpt lat="43.44569" lon="1.97069">
        <ele>240.9</ele>
        <time>2015-07-18T09:01:50Z</time>
      </trkpt>
      <trkpt lat="43.44569" lon="1.97134">
        <ele>239.5</ele>
        <time>2015-07-18T09:01:58Z</time>
      </trkpt>
      <trkpt lat="43.44582" lon="1.97178">
        <ele>239.3</ele>
        <time>2015-07-18T09:02:04Z</time>
      </trkpt>
      <trkpt lat="43.44603" lon="1.97202">
        <ele>238.5</ele>
        <time>2015-07-18T09:02:09Z</time>
      </trkpt>
      <trkpt lat="43.44617" lon="1.97219">
        <ele>238.5</ele>
        <time>2015-07-18T09:02:16Z</time>
      </trkpt>
      <trkpt lat="43.44633" lon="1.97273">
        <ele>236.3</ele>
        <time>2015-07-18T09:02:21Z</time>
      </trkpt>
      <trkpt lat="43.44628" lon="1.9731">
        <ele>234.3</ele>
        <time>2015-07-18T09:02:27Z</time>
      </trkpt>
      <trkpt lat="43.44614" lon="1.9735">
        <ele>235.5</ele>
        <time>2015-07-18T09:02:32Z</time>
      </trkpt>
      <trkpt lat="43.44594" lon="1.97381">
        <ele>236.9</ele>
        <time>2015-07-18T09:02:39Z</time>
      </trkpt>
      <trkpt lat="43.44587" lon="1.9742">
        <ele>238.3</ele>
        <time>2015-07-18T09:02:46Z</time>
      </trkpt>
      <trkpt lat="43.44573" lon="1.97487">
        <ele>243.9</ele>
        <time>2015-07-18T09:02:57Z</time>
      </trkpt>
      <trkpt lat="43.4457" lon="1.97538">
        <ele>242.8</ele>
        <time>2015-07-18T09:03:03Z</time>
      </trkpt>
      <trkpt lat="43.44619" lon="1.97642">
        <ele>245.5</ele>
        <time>2015-07-18T09:03:21Z</time>
      </trkpt>
      <trkpt lat="43.44624" lon="1.97671">
        <ele>245.5</ele>
        <time>2015-07-18T09:03:26Z</time>
      </trkpt>
      <trkpt lat="43.4463" lon="1.97691">
        <ele>249.6</ele>
        <time>2015-07-18T09:03:33Z</time>
      </trkpt>
      <trkpt lat="43.44642" lon="1.97715">
        <ele>250</ele>
        <time>2015-07-18T09:03:39Z</time>
      </trkpt>
      <trkpt lat="43.44657" lon="1.9775">
        <ele>252.5</ele>
        <time>2015-07-18T09:03:45Z</time>
      </trkpt>
      <trkpt lat="43.44681" lon="1.97826">
        <ele>255.4</ele>
        <time>2015-07-18T09:03:57Z</time>
      </trkpt>
      <trkpt lat="43.44692" lon="1.97867">
        <ele>259.1</ele>
        <time>2015-07-18T09:04:02Z</time>
      </trkpt>
      <trkpt lat="43.4471" lon="1.97918">
        <ele>260.3</ele>
        <time>2015-07-18T09:04:11Z</time>
      </trkpt>
      <trkpt lat="43.44756" lon="1.97967">
        <ele>256.3</ele>
        <time>2015-07-18T09:04:21Z</time>
      </trkpt>
      <trkpt lat="43.44781" lon="1.97998">
        <ele>254.3</ele>
        <time>2015-07-18T09:04:26Z</time>
      </trkpt>
      <trkpt lat="43.44805" lon="1.98015">
        <ele>252.7</ele>
        <time>2015-07-18T09:04:32Z</time>
      </trkpt>
      <trkpt lat="43.44831" lon="1.98028">
        <ele>252.2</ele>
        <time>2015-07-18T09:04:37Z</time>
      </trkpt>
      <trkpt lat="43.44862" lon="1.98084">
        <ele>252.6</ele>
        <time>2015-07-18T09:04:46Z</time>
      </trkpt>
      <trkpt lat="43.44856" lon="1.9813">
        <ele>252</ele>
        <time>2015-07-18T09:04:52Z</time>
      </trkpt>
      <trkpt lat="43.44842" lon="1.9817">
        <ele>247.9</ele>
        <time>2015-07-18T09:04:57Z</time>
      </trkpt>
      <trkpt lat="43.44834" lon="1.98202">
        <ele>248</ele>
        <time>2015-07-18T09:05:03Z</time>
      </trkpt>
      <trkpt lat="43.44841" lon="1.98241">
        <ele>251.8</ele>
        <time>2015-07-18T09:05:08Z</time>
      </trkpt>
      <trkpt lat="43.44835" lon="1.98335">
        <ele>263.3</ele>
        <time>2015-07-18T09:05:27Z</time>
      </trkpt>
      <trkpt lat="43.44844" lon="1.98382">
        <ele>267.8</ele>
        <time>2015-07-18T09:05:32Z</time>
      </trkpt>
      <trkpt lat="43.44864" lon="1.98374">
        <ele>264.2</ele>
        <time>2015-07-18T09:05:37Z</time>
      </trkpt>
      <trkpt lat="43.44886" lon="1.98385">
        <ele>267.5</ele>
        <time>2015-07-18T09:05:44Z</time>
      </trkpt>
      <trkpt lat="43.44898" lon="1.98427">
        <ele>270.7</ele>
        <time>2015-07-18T09:05:51Z</time>
      </trkpt>
      <trkpt lat="43.44905" lon="1.98475">
        <ele>274.2</ele>
        <time>2015-07-18T09:05:56Z</time>
      </trkpt>
      <trkpt lat="43.44914" lon="1.98511">
        <ele>276.5</ele>
        <time>2015-07-18T09:06:02Z</time>
      </trkpt>
      <trkpt lat="43.44919" lon="1.98556">
        <ele>278.2</ele>
        <time>2015-07-18T09:06:08Z</time>
      </trkpt>
      <trkpt lat="43.44921" lon="1.986">
        <ele>278.5</ele>
        <time>2015-07-18T09:06:15Z</time>
      </trkpt>
      <trkpt lat="43.44926" lon="1.98644">
        <ele>280.9</ele>
        <time>2015-07-18T09:06:20Z</time>
      </trkpt>
      <trkpt lat="43.44928" lon="1.98683">
        <ele>283.4</ele>
        <time>2015-07-18T09:06:25Z</time>
      </trkpt>
      <trkpt lat="43.44932" lon="1.98727">
        <ele>285.7</ele>
        <time>2015-07-18T09:06:31Z</time>
      </trkpt>
      <trkpt lat="43.44945" lon="1.98767">
        <ele>283</ele>
        <time>2015-07-18T09:06:36Z</time>
      </trkpt>
      <trkpt lat="43.44961" lon="1.98796">
        <ele>278.9</ele>
        <time>2015-07-18T09:06:42Z</time>
      </trkpt>
      <trkpt lat="43.44981" lon="1.98824">
        <ele>277.1</ele>
        <time>2015-07-18T09:06:48Z</time>
      </trkpt>
      <trkpt lat="43.44993" lon="1.98848">
        <ele>272.3</ele>
        <time>2015-07-18T09:06:56Z</time>
      </trkpt>
      <trkpt lat="43.4501" lon="1.98893">
        <ele>272.1</ele>
        <time>2015-07-18T09:07:01Z</time>
      </trkpt>
      <trkpt lat="43.45015" lon="1.98935">
        <ele>275.4</ele>
        <time>2015-07-18T09:07:07Z</time>
      </trkpt>
      <trkpt lat="43.4502" lon="1.98972">
        <ele>277.2</ele>
        <time>2015-07-18T09:07:12Z</time>
      </trkpt>
      <trkpt lat="43.45023" lon="1.99005">
        <ele>281.3</ele>
        <time>2015-07-18T09:07:19Z</time>
      </trkpt>
      <trkpt lat="43.45025" lon="1.99062">
        <ele>286.3</ele>
        <time>2015-07-18T09:07:25Z</time>
      </trkpt>
      <trkpt lat="43.45026" lon="1.99105">
        <ele>289.8</ele>
        <time>2015-07-18T09:07:30Z</time>
      </trkpt>
      <trkpt lat="43.45024" lon="1.99152">
        <ele>292.4</ele>
        <time>2015-07-18T09:07:36Z</time>
      </trkpt>
      <trkpt lat="43.45023" lon="1.99193">
        <ele>294.9</ele>
        <time>2015-07-18T09:07:42Z</time>
      </trkpt>
      <trkpt lat="43.45029" lon="1.99256">
        <ele>297.5</ele>
        <time>2015-07-18T09:07:50Z</time>
      </trkpt>
      <trkpt lat="43.45032" lon="1.99302">
        <ele>297.6</ele>
        <time>2015-07-18T09:07:56Z</time>
      </trkpt>
      <trkpt lat="43.45041" lon="1.99333">
        <ele>299.6</ele>
        <time>2015-07-18T09:08:02Z</time>
      </trkpt>
      <trkpt lat="43.45051" lon="1.99368">
        <ele>300.6</ele>
        <time>2015-07-18T09:08:07Z</time>
      </trkpt>
      <trkpt lat="43.4506" lon="1.99407">
        <ele>302.2</ele>
        <time>2015-07-18T09:08:12Z</time>
      </trkpt>
      <trkpt lat="43.45069" lon="1.9944">
        <ele>302.1</ele>
        <time>2015-07-18T09:08:19Z</time>
      </trkpt>
      <trkpt lat="43.45075" lon="1.99489">
        <ele>303.4</ele>
        <time>2015-07-18T09:08:24Z</time>
      </trkpt>
      <trkpt lat="43.45087" lon="1.99524">
        <ele>301.9</ele>
        <time>2015-07-18T09:08:30Z</time>
      </trkpt>
      <trkpt lat="43.45122" lon="1.99566">
        <ele>290.7</ele>
        <time>2015-07-18T09:08:35Z</time>
      </trkpt>
      <trkpt lat="43.45136" lon="1.99604">
        <ele>288.8</ele>
        <time>2015-07-18T09:08:41Z</time>
      </trkpt>
      <trkpt lat="43.45144" lon="1.99646">
        <ele>287.2</ele>
        <time>2015-07-18T09:08:46Z</time>
      </trkpt>
      <trkpt lat="43.45146" lon="1.99676">
        <ele>286.6</ele>
        <time>2015-07-18T09:08:52Z</time>
      </trkpt>
      <trkpt lat="43.45146" lon="1.99699">
        <ele>287.5</ele>
        <time>2015-07-18T09:08:58Z</time>
      </trkpt>
      <trkpt lat="43.45145" lon="1.9971">
        <ele>288.4</ele>
        <time>2015-07-18T09:09:03Z</time>
      </trkpt>
      <trkpt lat="43.45137" lon="1.9976">
        <ele>283.1</ele>
        <time>2015-07-18T09:09:09Z</time>
      </trkpt>
      <trkpt lat="43.45131" lon="1.99795">
        <ele>283.8</ele>
        <time>2015-07-18T09:09:14Z</time>
      </trkpt>
      <trkpt lat="43.45128" lon="1.99819">
        <ele>287.6</ele>
        <time>2015-07-18T09:09:20Z</time>
      </trkpt>
      <trkpt lat="43.4513" lon="1.99843">
        <ele>291.5</ele>
        <time>2015-07-18T09:09:25Z</time>
      </trkpt>
      <trkpt lat="43.45135" lon="1.99873">
        <ele>296.8</ele>
        <time>2015-07-18T09:09:31Z</time>
      </trkpt>
      <trkpt lat="43.45131" lon="1.99889">
        <ele>303.2</ele>
        <time>2015-07-18T09:09:36Z</time>
      </trkpt>
      <trkpt lat="43.45129" lon="1.99903">
        <ele>302.2</ele>
        <time>2015-07-18T09:09:42Z</time>
      </trkpt>
      <trkpt lat="43.45129" lon="1.99903">
        <ele>301.1</ele>
        <time>2015-07-18T09:09:47Z</time>
      </trkpt>
      <trkpt lat="43.45129" lon="1.99903">
        <ele>301.1</ele>
        <time>2015-07-18T09:09:52Z</time>
      </trkpt>
      <trkpt lat="43.45119" lon="1.99913">
        <ele>288.1</ele>
        <time>2015-07-18T09:09:59Z</time>
      </trkpt>
      <trkpt lat="43.45119" lon="1.99913">
        <ele>288.1</ele>
        <time>2015-07-18T09:10:04Z</time>
      </trkpt>
      <trkpt lat="43.45119" lon="1.99913">
        <ele>288.1</ele>
        <time>2015-07-18T09:10:10Z</time>
      </trkpt>
      <trkpt lat="43.45119" lon="1.99913">
        <ele>288.1</ele>
        <time>2015-07-18T09:10:15Z</time>
      </trkpt>
      <trkpt lat="43.45112" lon="1.99922">
        <ele>283.2</ele>
        <time>2015-07-18T09:10:21Z</time>
      </trkpt>
    </trkseg>
  </trk>
</gpx>